Date StartTime U_cm/s V_cm/s W_cm/s Ustd_cm/s Vstd_cm/s Wstd_cm/s Uvar_(cm/s)^2 Vvar_(cm/s)^2 Wvar_(cm/s)^2 KE_(m/s)^2 TurbulentKE_(m/s)^2 HorizWindSpeed_cm/s FrictionSpeec_cm/s DragCoef SpeedOfSound_m/s SonicTemperature_C Pressure_mb 
06/12/2013  00:00:00     -117.930      -63.013       -0.294       67.235       39.704       23.044     4520.590     1576.420      531.004        1.225        0.331      133.709       28.253        0.045      343.576       19.785      859.890
06/12/2013  00:01:00     -147.040      -93.306        5.482       74.688       60.038       36.420     5578.272     3604.538     1326.449        2.043        0.525      174.145       33.610        0.037      343.591       19.808      859.956
06/12/2013  00:02:00     -163.767     -102.605       -1.428       65.212       50.567       32.034     4252.637     2557.065     1026.188        2.259        0.392      193.255       26.829        0.019      343.590       19.807      860.000
06/12/2013  00:03:00     -173.011     -111.495       -1.590       70.981       50.391       32.260     5038.312     2539.278     1040.697        2.549        0.431      205.825       30.887        0.023      343.584       19.795      859.997
06/12/2013  00:04:00     -150.867     -129.128        0.514       77.183       46.410       37.927     5957.278     2153.921     1438.454        2.449        0.477      198.583       28.538        0.021      343.561       19.758      859.982
06/12/2013  00:05:00      -70.775      -70.010       -1.398       51.703       41.683       24.249     2673.235     1737.474      588.034        0.745        0.250       99.552       20.925        0.044      343.599       19.825      859.994
06/12/2013  00:06:00      -91.941      -75.860        0.505       64.944       46.628       26.972     4217.730     2174.181      727.492        1.066        0.356      119.197       28.213        0.056      343.582       19.793      859.993
06/12/2013  00:07:00     -136.949      -52.896       15.797       82.704       62.663       37.481     6839.869     3926.606     1404.823        1.698        0.609      146.810       30.732        0.044      343.568       19.770      859.972
06/12/2013  00:08:00     -178.643     -125.110       -1.665       65.443       69.503       36.783     4282.843     4830.638     1352.978        2.902        0.523      218.096       36.527        0.028      343.667       19.936      859.979
06/12/2013  00:09:00     -137.355      -53.130       -4.130       52.980       44.189       23.652     2806.845     1952.648      559.396        1.351        0.266      147.273       21.381        0.021      343.605       19.834      859.997
06/12/2013  00:10:00     -128.014      -71.384        2.628       62.459       45.202       25.846     3901.168     2043.255      668.002        1.405        0.331      146.572       18.313        0.016      343.601       19.828      860.009
06/12/2013  00:11:00     -134.311      -44.948       -4.243       60.305       37.030       31.343     3636.661     1371.245      982.369        1.303        0.300      141.633       29.768        0.044      343.524       19.696      860.017
06/12/2013  00:12:00      -47.516      -10.733       10.251       36.971       19.615       18.393     1366.889      384.748      338.292        0.228        0.104       48.713       20.003        0.169      343.477       19.617      859.994
06/12/2013  00:13:00     -103.116      -66.134       -0.232       47.525       49.129       29.346     2258.595     2413.619      861.162        1.027        0.277      122.502       26.934        0.048      343.512       19.676      859.978
06/12/2013  00:14:00      -87.965      -43.199       -6.083       56.599       44.875       21.832     3203.391     2013.810      476.658        0.767        0.285       98.000       27.641        0.080      343.497       19.651      859.974
06/12/2013  00:15:00      -78.064      -29.775        8.624       38.034       37.072       25.120     1446.548     1374.303      631.017        0.525        0.173       83.550       18.510        0.049      343.400       19.483      859.955
06/12/2013  00:16:00      -59.286       -3.880       -5.306       24.932       29.998       21.894      621.594      899.855      479.326        0.278        0.100       59.413       18.470        0.097      343.398       19.480      859.918
06/12/2013  00:17:00      -34.162       47.069       -3.338       16.732       13.000       12.989      279.954      169.009      168.722        0.201        0.031       58.159        7.025        0.015      343.333       19.372      859.897
06/12/2013  00:18:00      -41.189      -10.204        1.003       24.972       19.567        8.602      623.584      382.880       73.996        0.144        0.054       42.434        5.991        0.020      343.320       19.348      859.929
06/12/2013  00:19:00      -11.867      -23.904       16.648       30.831       24.577       20.929      950.564      604.050      438.042        0.149        0.100       26.687       19.549        0.537      343.361       19.420      859.974
06/12/2013  00:20:00      -68.104      -48.920       -1.462       40.249       28.481       21.949     1619.998      811.183      481.766        0.497        0.146       83.853       15.248        0.033      343.284       19.286      859.988
06/12/2013  00:21:00      -86.209      -17.196        0.408       25.304       32.817       15.422      640.268     1076.942      237.845        0.484        0.098       87.907       11.590        0.017      343.300       19.316      859.963
06/12/2013  00:22:00     -102.558       41.197      -10.017       41.544       30.519       23.299     1725.945      931.383      542.840        0.776        0.160      110.523       16.573        0.022      342.990       18.785      859.916
06/12/2013  00:23:00     -106.004       35.091      -10.025       34.823       36.713       20.173     1212.649     1347.869      406.964        0.777        0.148      111.662       18.817        0.028      342.957       18.729      859.884
06/12/2013  00:24:00     -106.522       14.636       -9.661       37.805       36.204       20.580     1429.207     1310.754      423.525        0.741        0.158      107.522       22.575        0.044      342.997       18.798      859.877
06/12/2013  00:25:00     -117.299      -34.808       -3.192       48.069       61.701       28.794     2310.607     3806.975      829.100        1.096        0.347      122.355       25.894        0.045      343.010       18.819      859.900
06/12/2013  00:26:00     -175.152      -84.498       -6.667       51.567       38.963       27.213     2659.199     1518.121      740.545        2.139        0.246      194.469       14.742        0.006      342.962       18.737      859.938
06/12/2013  00:27:00     -180.019      -75.540       -3.448       58.118       58.489       32.180     3377.737     3420.911     1035.524        2.298        0.392      195.226       25.375        0.017      342.939       18.698      859.984
06/12/2013  00:28:00     -164.873      -79.604       -0.715       59.515       49.979       29.904     3542.013     2497.898      894.240        2.023        0.347      183.084       23.945        0.017      342.921       18.667      860.008
06/12/2013  00:29:00     -151.312      -64.537       -3.426       54.154       60.043       33.225     2932.686     3605.219     1103.926        1.736        0.382      164.500       31.149        0.036      342.897       18.627      860.026
06/12/2013  00:30:00      -94.397      -23.024       -1.528       63.601       34.837       24.409     4045.144     1213.590      595.785        0.765        0.293       97.164       25.980        0.071      342.894       18.624      860.027
06/12/2013  00:31:00     -107.986      -62.324       -3.909       35.357       39.663       20.476     1250.134     1573.142      419.286        0.940        0.162      124.680       12.170        0.010      342.913       18.655      860.014
06/12/2013  00:32:00      -96.364       -9.982       -8.829       32.101       27.267       19.789     1030.459      743.500      391.617        0.581        0.108       96.879       19.348        0.040      342.976       18.764      859.971
06/12/2013  00:33:00      -94.855       30.097       -3.753       36.109       23.920       20.293     1303.850      572.175      411.797        0.610        0.114       99.516       13.664        0.019      342.839       18.530      859.901
06/12/2013  00:34:00     -109.822       34.365       -4.015       34.910       25.921       18.624     1218.742      671.890      346.865        0.775        0.112      115.073        9.156        0.006      342.838       18.527      859.860
06/12/2013  00:35:00     -173.346        8.198      -12.391       33.128       31.224       22.538     1097.466      974.945      507.948        1.642        0.129      173.540       17.275        0.010      342.883       18.602      859.851
06/12/2013  00:36:00     -158.612      -40.362       -5.195       45.957       59.057       27.713     2112.038     3487.768      767.994        1.659        0.318      163.667       25.593        0.024      342.859       18.565      859.877
06/12/2013  00:37:00     -104.550      -39.284        6.211       65.805       41.328       31.081     4330.340     1708.038      966.009        0.976        0.350      111.687       35.187        0.099      342.777       18.424      859.897
06/12/2013  00:38:00      -85.657      -46.693        1.258       39.129       49.660       24.432     1531.073     2466.088      596.933        0.706        0.230       97.557       18.299        0.035      342.758       18.391      859.906
06/12/2013  00:39:00      -68.015      -20.616       -0.065       29.198       25.792       17.678      852.511      665.232      312.507        0.344        0.092       71.071       18.330        0.067      342.763       18.398      859.884
06/12/2013  00:40:00      -68.279      -11.816       -2.842       26.051       24.305       15.159      678.668      590.721      229.802        0.315        0.075       69.294       13.312        0.037      342.808       18.476      859.879
06/12/2013  00:41:00     -116.578      -31.155       -2.484       52.324       33.230       17.781     2737.837     1104.234      316.147        0.936        0.208      120.669       14.112        0.014      342.848       18.544      859.920
06/12/2013  00:42:00     -139.772      -39.410      -10.689       25.590       39.312       16.920      654.840     1545.468      286.300        1.184        0.124      145.222       13.052        0.008      342.857       18.561      859.957
06/12/2013  00:43:00      -73.478      -28.848        6.990       46.799       37.292       21.615     2190.144     1390.711      467.190        0.516        0.202       78.938       24.976        0.100      342.827       18.509      859.956
06/12/2013  00:44:00      -69.381      -23.054        3.024       24.920       31.697       14.472      621.012     1004.709      209.431        0.359        0.092       73.111       15.189        0.043      342.796       18.457      859.947
06/12/2013  00:45:00     -119.782      -43.015      -10.841       20.098       20.490       16.608      403.925      419.823      275.837        0.871        0.055      127.271       14.951        0.014      342.822       18.502      859.973
06/12/2013  00:46:00     -141.433      -54.862      -10.571       43.684       38.114       21.364     1908.270     1452.714      456.428        1.347        0.191      151.700       16.903        0.012      342.814       18.486      859.984
06/12/2013  00:47:00     -192.675      -80.294       -5.261       39.124       27.634       28.454     1530.699      763.661      809.649        2.335        0.155      208.736       25.178        0.015      342.743       18.362      860.004
06/12/2013  00:48:00     -155.323      -70.945       -4.431       45.203       39.100       23.365     2043.277     1528.818      545.923        1.665        0.206      170.758       23.758        0.019      342.712       18.313      860.013
06/12/2013  00:49:00     -102.708      -35.920      -11.012       37.940       20.638       16.481     1439.412      425.934      271.616        0.705        0.107      108.808        8.363        0.006      342.722       18.331      859.984
06/12/2013  00:50:00     -130.072      -16.623      -10.569       35.593       33.722       22.105     1266.872     1137.158      488.647        1.010        0.145      131.130       19.173        0.021      342.670       18.241      859.961
06/12/2013  00:51:00      -55.028       -3.883       -8.188       46.011       19.809       17.803     2117.048      392.411      316.948        0.297        0.141       55.165       25.484        0.213      342.677       18.256      859.959
06/12/2013  00:52:00      -45.026      -20.002       -5.297       12.474       25.826       12.972      155.610      666.995      168.280        0.172        0.050       49.269        8.879        0.032      342.672       18.245      859.958
06/12/2013  00:53:00      -59.238      -18.702       -3.772       16.921       21.644       10.009      286.327      468.464      100.185        0.236        0.043       62.120        3.779        0.004      342.736       18.355      859.943
06/12/2013  00:54:00      -74.186      -25.855       -2.339       17.460       21.934       10.968      304.855      481.086      120.293        0.354        0.045       78.562        3.388        0.002      342.696       18.287      859.934
06/12/2013  00:55:00     -100.707        3.861       -8.548       41.546       26.337       18.348     1726.069      693.617      336.642        0.649        0.138      100.781       18.740        0.035      342.644       18.198      859.936
06/12/2013  00:56:00     -108.894       24.751      -14.371       29.515       29.209       19.030      871.133      853.163      362.151        0.738        0.104      111.671       13.693        0.015      342.518       17.982      859.930
06/12/2013  00:57:00      -78.571       20.997       -1.328       37.804       16.398       13.798     1429.155      268.900      190.377        0.425        0.094       81.329       16.641        0.042      342.524       17.994      859.922
06/12/2013  00:58:00      -53.481        5.320       -3.583       29.796       21.353       18.392      887.800      455.941      338.282        0.229        0.084       53.745       19.186        0.127      342.569       18.071      859.910
06/12/2013  00:59:00      -62.178        5.841       -4.010       23.762       12.597        9.707      564.619      158.694       94.222        0.237        0.041       62.452        8.287        0.018      342.639       18.189      859.892
06/12/2013  01:00:00      -63.694       16.083       -9.632       26.092       23.545       11.959      680.783      554.379      143.014        0.289        0.069       65.693       12.722        0.038      342.593       18.111      859.884
06/12/2013  01:01:00      -75.059      -24.393       -9.439       42.732       30.974       15.934     1825.985      959.404      253.897        0.468        0.152       78.924        8.133        0.011      342.603       18.128      859.901
06/12/2013  01:02:00     -150.865      -68.124       -6.612       16.267       19.468       12.650      264.624      379.018      160.023        1.412        0.040      165.533        4.303        0.001      342.517       17.982      859.954
06/12/2013  01:03:00     -130.416      -79.069        3.555       44.261       38.325       24.855     1959.059     1468.808      617.756        1.366        0.202      152.513       22.999        0.023      342.523       17.993      860.012
06/12/2013  01:04:00      -89.862      -47.284       -2.305       40.935       24.594       18.735     1675.692      604.872      351.014        0.647        0.132      101.543        6.763        0.004      342.634       18.181      860.034
06/12/2013  01:05:00      -45.947       -5.899       -0.514       22.572       18.901       13.915      509.480      357.246      193.618        0.160        0.053       46.324        8.810        0.036      342.600       18.123      860.000
06/12/2013  01:06:00      -46.091       21.157        2.493       32.333       13.624       11.742     1045.403      185.618      137.886        0.197        0.068       50.715       11.634        0.053      342.545       18.030      859.934
06/12/2013  01:07:00     -102.785        8.588       -5.230       26.044       29.426       17.008      678.297      865.917      289.288        0.625        0.092      103.143       10.908        0.011      342.648       18.204      859.909
06/12/2013  01:08:00      -88.501      -58.961      -10.552       34.003       25.977       18.819     1156.203      674.796      354.140        0.680        0.109      106.343       16.147        0.023      342.600       18.123      859.934
06/12/2013  01:09:00      -87.336      -52.847        4.257       55.155       35.320       25.743     3042.079     1247.532      662.717        0.769        0.248      102.080       21.466        0.044      342.611       18.142      859.972
06/12/2013  01:10:00     -113.662      -74.690       -3.985       56.829       41.465       29.553     3229.535     1719.307      873.383        1.217        0.291      136.006       33.159        0.059      342.729       18.341      859.982
06/12/2013  01:11:00      -74.845      -45.034        5.056       29.029       40.461       21.951      842.700     1637.118      481.833        0.531        0.148       87.349       14.274        0.027      342.669       18.241      859.975
06/12/2013  01:12:00      -81.134      -30.745        5.080       37.379       38.222       21.107     1397.179     1460.928      445.487        0.543        0.165       86.764       18.303        0.044      342.601       18.124      859.973
06/12/2013  01:13:00     -121.776        6.337       -3.458       30.310       25.815       15.709      918.703      666.390      246.777        0.836        0.092      121.940       18.630        0.023      342.641       18.193      859.946
06/12/2013  01:14:00     -153.027       33.923       -8.280       21.412       15.390       10.007      458.465      236.856      100.132        1.272        0.040      156.742        7.488        0.002      342.751       18.379      859.918
06/12/2013  01:15:00     -129.341       15.022      -10.279       20.402       21.686       11.960      416.257      470.276      143.031        0.904        0.051      130.210       11.144        0.007      342.678       18.256      859.932
06/12/2013  01:16:00      -93.608      -55.313       -6.632       32.270       23.518       15.116     1041.366      553.092      228.496        0.684        0.091      108.729       12.105        0.012      342.630       18.174      859.962
06/12/2013  01:17:00      -32.348      -21.933        5.853       38.255       23.741       14.502     1463.418      563.624      210.308        0.190        0.112       39.083       17.218        0.194      342.547       18.034      859.976
06/12/2013  01:18:00      -16.644      -71.241        8.141       25.726       40.567       17.378      661.812     1645.666      302.000        0.401        0.130       73.159       20.844        0.081      342.721       18.329      859.981
06/12/2013  01:19:00      -13.606      -75.975        4.011       24.290       22.164       15.117      590.015      491.239      228.534        0.364        0.065       77.184       14.579        0.036      342.992       18.791      859.979
06/12/2013  01:20:00      -20.701      -19.929        8.766       23.921       34.692       17.151      572.196     1203.531      294.152        0.149        0.103       28.734       11.668        0.165      342.803       18.469      859.980
06/12/2013  01:21:00      -15.811        1.950        6.661       24.555       15.503       10.089      602.946      240.358      101.782        0.062        0.047       15.931       13.520        0.720      342.682       18.262      859.969
06/12/2013  01:22:00      -68.497       11.540       -0.653       24.399       21.971       13.798      595.308      482.721      190.384        0.305        0.063       69.462       12.319        0.031      342.575       18.082      859.953
06/12/2013  01:23:00      -66.916       42.926      -13.884       14.777       22.134       14.100      218.353      489.904      198.796        0.371        0.045       79.501        7.996        0.010      342.438       17.847      859.928
06/12/2013  01:24:00      -68.857      -10.135       -6.249       18.432       26.623        9.618      339.752      708.761       92.510        0.301        0.057       69.599        6.228        0.008      342.564       18.062      859.939
06/12/2013  01:25:00      -99.354      -64.077      -12.537       37.498       22.425       14.222     1406.109      502.866      202.259        0.812        0.106      118.224       11.236        0.009      342.526       17.996      859.979
06/12/2013  01:26:00      -74.895      -59.737       -0.423       45.292       28.490       24.541     2051.352      811.671      602.239        0.632        0.173       95.800       19.373        0.041      342.411       17.801      860.009
06/12/2013  01:27:00      -63.331      -46.644       16.445       57.944       53.706       37.808     3357.497     2884.328     1429.465        0.706        0.384       78.655       37.769        0.231      342.420       17.817      860.032
06/12/2013  01:28:00      -79.588      -79.311        3.098       52.539       38.909       27.899     2760.367     1513.943      778.328        0.884        0.253      112.359       24.928        0.049      342.571       18.073      860.046
06/12/2013  01:29:00      -72.358      -73.404       12.837       65.896       40.784       33.988     4342.224     1663.329     1155.165        0.897        0.358      103.072       37.433        0.132      342.545       18.030      860.047
06/12/2013  01:30:00     -104.568     -118.692       -5.009       38.443       33.271       24.197     1477.881     1106.987      585.495        1.411        0.159      158.184       20.020        0.016      342.735       18.350      860.020
06/12/2013  01:31:00      -80.099      -61.799       -6.828       38.910       31.175       23.865     1514.001      971.868      569.535        0.667        0.153      101.168       15.817        0.024      342.740       18.361      859.972
06/12/2013  01:32:00     -111.503      -21.006        0.468       40.596       26.204       19.540     1648.025      686.630      381.794        0.779        0.136      113.465       22.090        0.038      342.669       18.240      859.927
06/12/2013  01:33:00     -106.921      -30.186       -3.997       51.527       36.570       27.240     2655.065     1337.373      741.990        0.855        0.237      111.100       31.176        0.079      342.658       18.220      859.919
06/12/2013  01:34:00     -108.713      -34.454        2.320       38.659       29.382       20.129     1494.531      863.316      405.162        0.789        0.138      114.042       20.428        0.032      342.535       18.013      859.908
06/12/2013  01:35:00     -134.322      -14.954       -9.307       23.391       21.547       12.980      547.131      464.285      168.478        0.977        0.059      135.152        9.311        0.005      342.297       17.609      859.908
06/12/2013  01:36:00     -147.378      -52.857       -7.084       25.177       26.231       14.667      633.901      688.045      215.113        1.305        0.077      156.570       11.054        0.005      342.182       17.413      859.938
06/12/2013  01:37:00     -174.471      -76.213       -4.605       28.044       27.285       19.078      786.485      744.458      363.974        1.908        0.095      190.391       14.496        0.006      342.161       17.376      859.997
06/12/2013  01:38:00     -132.633      -70.872       -6.175       66.336       31.753       22.077     4400.503     1008.264      487.411        1.427        0.295      150.381       17.629        0.014      342.161       17.376      860.025
06/12/2013  01:39:00     -120.851      -28.703       -8.831       38.052       32.341       15.280     1447.941     1045.970      233.475        0.912        0.136      124.213       10.167        0.007      342.179       17.408      860.006
06/12/2013  01:40:00      -49.248      -33.431        0.616       32.206       22.313       11.187     1037.237      497.867      125.152        0.260        0.083       59.523        8.665        0.021      342.240       17.510      859.951
06/12/2013  01:41:00      -69.367       -8.437       -8.319       28.320       24.084       18.578      802.000      580.040      345.150        0.334        0.086       69.879       16.600        0.056      342.310       17.630      859.922
06/12/2013  01:42:00     -110.290      -21.474       -4.922       31.299       23.387       18.780      979.625      546.967      352.670        0.726        0.094      112.361       18.264        0.026      342.252       17.531      859.943
06/12/2013  01:43:00     -128.739      -46.336       -4.912       42.970       37.824       22.017     1846.459     1430.668      484.735        1.125        0.188      136.824       20.321        0.022      342.165       17.384      859.951
06/12/2013  01:44:00     -108.426       12.477       -7.917       34.494       39.712       22.880     1189.830     1577.074      523.511        0.763        0.165      109.141       18.711        0.029      342.077       17.234      859.917
06/12/2013  01:45:00      -59.978       11.232       -5.525       29.074       21.971       14.178      845.289      482.703      201.021        0.264        0.076       61.021        9.887        0.026      342.158       17.373      859.869
06/12/2013  01:46:00      -50.572      -43.343       -3.581       47.427       27.622       29.826     2249.312      762.979      889.571        0.417        0.195       66.604       30.899        0.215      342.286       17.589      859.879
06/12/2013  01:47:00     -121.872     -100.814      -17.061       63.050       41.198       34.722     3975.305     1697.316     1205.649        1.609        0.344      158.165       27.358        0.030      342.220       17.476      859.938
06/12/2013  01:48:00     -104.181      -93.797        8.029       82.303       58.535       42.614     6773.796     3426.351     1815.986        1.586        0.601      140.184       50.386        0.129      342.184       17.415      859.988
06/12/2013  01:49:00     -137.656      -73.964        5.573       70.553       36.575       30.015     4977.785     1337.733      900.891        1.583        0.361      156.268       31.781        0.041      342.306       17.623      859.992
06/12/2013  01:50:00      -91.855      -56.305       -4.342       43.946       29.011       18.924     1931.210      841.620      358.132        0.738        0.157      107.739       12.389        0.013      342.251       17.529      859.956
06/12/2013  01:51:00      -73.447      -16.645       -2.207       54.350       24.631       17.576     2953.929      606.704      308.914        0.477        0.193       75.310       22.430        0.089      342.238       17.509      859.918
06/12/2013  01:52:00     -144.817      -55.155       -9.123       34.464       26.760       16.979     1187.759      716.113      288.282        1.314        0.110      154.965       11.126        0.005      342.245       17.520      859.912
06/12/2013  01:53:00     -132.891      -39.771        2.561       46.201       31.968       23.377     2134.539     1021.930      546.484        1.147        0.185      138.714       23.338        0.028      342.139       17.339      859.910
06/12/2013  01:54:00     -124.710      -28.804       -5.514       46.229       37.168       19.905     2137.156     1381.494      396.209        1.016        0.196      127.993       15.292        0.014      342.107       17.284      859.900
06/12/2013  01:55:00     -116.421       22.899       -9.267       33.966       26.264       15.914     1153.705      689.794      253.250        0.813        0.105      118.651       15.497        0.017      341.971       17.053      859.905
06/12/2013  01:56:00      -94.575        3.495      -13.343       45.970       30.239       16.903     2113.284      914.398      285.703        0.622        0.166       94.640       18.698        0.039      341.979       17.068      859.894
06/12/2013  01:57:00      -29.490       -7.847       -0.319       17.226       17.596       12.758      296.724      309.633      162.775        0.085        0.038       30.516       11.784        0.149      341.992       17.087      859.893
06/12/2013  01:58:00      -36.074       20.567       -0.676       26.717       38.773       18.771      713.824     1503.351      352.343        0.215        0.128       41.525       23.818        0.329      342.037       17.166      859.904
06/12/2013  01:59:00      -84.002       -0.042      -16.375       27.591       19.635       14.162      761.281      385.525      200.557        0.434        0.067       84.002       12.717        0.023      342.049       17.186      859.902
06/12/2013  02:00:00      -82.705        8.963       -2.303       16.992       32.379       13.750      288.730     1048.407      189.065        0.423        0.076       83.190        7.301        0.008      342.029       17.152      859.902
06/12/2013  02:01:00      -39.599        7.690        2.943       15.697       22.929       13.890      246.392      525.743      192.930        0.130        0.048       40.339       10.887        0.073      342.017       17.132      859.877
06/12/2013  02:02:00      -66.557       54.925      -10.883       27.195       34.604       19.849      739.547     1197.429      393.985        0.495        0.117       86.294       21.860        0.064      342.201       17.445      859.817
06/12/2013  02:03:00      -56.111      -11.004       -8.117       22.859       29.099       13.164      522.551      846.757      173.282        0.244        0.077       57.180        8.926        0.024      342.208       17.456      859.817
06/12/2013  02:04:00      -53.571      -41.970       -4.351       37.634       27.334       19.118     1416.317      747.159      365.515        0.359        0.126       68.053       11.666        0.029      342.140       17.342      859.865
06/12/2013  02:05:00      -47.606      -46.061        6.376       51.688       35.186       22.022     2671.609     1238.068      484.985        0.441        0.220       66.241       19.141        0.084      342.045       17.181      859.897
06/12/2013  02:06:00      -94.657      -96.746        8.096       71.140       41.307       31.583     5060.904     1706.234      997.512        1.307        0.388      135.350       34.833        0.066      341.958       17.031      859.920
06/12/2013  02:07:00     -146.532      -98.085       -1.162       51.873       49.718       36.439     2690.775     2471.920     1327.790        1.879        0.325      176.330       34.454        0.038      341.926       16.976      859.914
06/12/2013  02:08:00     -106.662      -74.276        6.526       67.217       44.534       31.299     4518.080     1983.268      979.648        1.221        0.374      129.975       34.731        0.071      342.005       17.112      859.878
06/12/2013  02:09:00      -69.696      -83.452       -4.904       30.953       23.093       18.662      958.103      533.269      348.284        0.684        0.092      108.728       15.747        0.021      342.163       17.380      859.857
06/12/2013  02:10:00      -71.749      -70.044       -8.289       29.094       26.195       21.597      846.451      686.194      466.414        0.606        0.100      100.270       17.564        0.031      342.190       17.427      859.895
06/12/2013  02:11:00      -95.674      -74.604        4.764       49.967       42.298       26.305     2496.738     1789.127      691.935        0.986        0.249      121.323       28.795        0.056      342.046       17.182      859.930
06/12/2013  02:12:00     -128.956      -54.602        3.203       42.367       36.184       23.645     1794.981     1309.249      559.069        1.164        0.183      140.039       20.991        0.022      342.062       17.207      859.917
06/12/2013  02:13:00      -82.495      -42.877        3.402       59.610       30.794       21.786     3553.340      948.295      474.635        0.681        0.249       92.973       25.802        0.077      342.041       17.173      859.862
06/12/2013  02:14:00     -100.884      -87.132        5.103       42.094       36.758       24.380     1771.938     1351.174      594.387        1.076        0.186      133.303       20.545        0.024      342.066       17.215      859.826
06/12/2013  02:15:00     -141.034      -42.051       -1.078       33.224       29.083       20.071     1103.820      845.833      402.859        1.201        0.118      147.170       16.955        0.013      341.950       17.019      859.824
06/12/2013  02:16:00     -107.228      -38.812        4.544       47.824       37.496       24.374     2287.110     1405.980      594.072        0.866        0.214      114.036       25.411        0.050      341.960       17.036      859.808
06/12/2013  02:17:00     -125.408      -36.120       -7.437       39.873       38.911       21.497     1589.841     1514.103      462.105        1.033        0.178      130.506       19.033        0.021      341.914       16.957      859.811
06/12/2013  02:18:00     -108.653      -13.498        6.899       49.102       42.161       25.402     2411.050     1777.519      645.272        0.843        0.242      109.488       25.119        0.053      341.734       16.653      859.846
06/12/2013  02:19:00     -110.374      -34.628        7.906       61.828       40.363       25.376     3822.709     1629.192      643.922        0.977        0.305      115.678       23.510        0.041      341.712       16.615      859.871
06/12/2013  02:20:00     -109.285      -40.749        9.797       52.707       46.263       26.957     2778.022     2140.227      726.669        0.967        0.282      116.635       26.655        0.052      341.848       16.845      859.871
06/12/2013  02:21:00      -68.443      -51.723        6.844       60.974       36.411       22.581     3717.825     1325.732      509.922        0.648        0.278       85.789       24.205        0.080      341.981       17.072      859.867
06/12/2013  02:22:00      -53.667     -101.945        1.493       32.664       31.927       29.291     1066.928     1019.361      857.972        0.811        0.147      115.208       24.980        0.047      342.119       17.305      859.892
06/12/2013  02:23:00      -74.807      -80.885       -2.000       44.294       42.465       22.613     1961.956     1803.290      511.328        0.821        0.214      110.174       21.307        0.037      342.023       17.141      859.913
06/12/2013  02:24:00     -115.218      -61.137        1.206       47.817       39.277       24.816     2286.499     1542.700      615.844        1.073        0.222      130.433       20.982        0.026      342.076       17.233      859.898
06/12/2013  02:25:00      -92.348      -32.247        1.826       32.053       32.356       20.996     1027.408     1046.934      440.834        0.604        0.126       97.817       17.509        0.032      342.066       17.217      859.849
06/12/2013  02:26:00      -81.779       15.043       -1.400       25.640       23.537       11.565      657.384      553.973      133.756        0.413        0.067       83.151       10.361        0.016      342.104       17.281      859.800
06/12/2013  02:27:00     -120.093       47.173       -5.781       40.532       26.472       25.694     1642.864      700.747      660.165        0.984        0.150      129.025       20.537        0.025      341.978       17.066      859.778
06/12/2013  02:28:00     -170.637       21.439      -15.486       29.014       33.519       18.885      841.839     1123.540      356.640        1.607        0.116      171.979       16.834        0.010      341.953       17.024      859.795
06/12/2013  02:29:00     -166.911      -33.484      -12.676       45.762       50.919       26.268     2094.164     2592.787      689.990        1.726        0.269      170.237       25.214        0.022      341.733       16.650      859.848
06/12/2013  02:30:00      -91.721      -24.552        2.576       53.817       47.921       32.976     2896.260     2296.462     1087.390        0.765        0.314       94.950       29.097        0.094      341.598       16.422      859.888
06/12/2013  02:31:00      -98.090      -40.952       -5.657       38.951       38.881       23.214     1517.194     1511.757      538.896        0.745        0.178      106.296       22.154        0.043      341.701       16.595      859.888
06/12/2013  02:32:00     -117.211      -34.324       -9.340       29.235       22.834       16.603      854.672      521.396      275.660        0.833        0.083      122.133       13.486        0.012      341.706       16.606      859.885
06/12/2013  02:33:00     -105.504        7.992      -14.082       25.535       22.395       17.143      652.013      501.556      293.869        0.642        0.072      105.807       15.172        0.021      341.672       16.547      859.883
06/12/2013  02:34:00     -158.740        3.844      -22.880       22.034       20.730       18.118      485.477      429.753      328.273        1.349        0.062      158.787       11.876        0.006      341.740       16.663      859.876
06/12/2013  02:35:00     -153.746       60.529      -11.622       52.439       26.676       23.310     2749.830      711.623      543.363        1.572        0.200      165.232       14.348        0.008      341.678       16.555      859.858
06/12/2013  02:36:00     -149.691       60.290       -3.675       52.403       30.480       24.550     2746.032      929.038      602.713        1.517        0.214      161.376       25.020        0.024      341.660       16.526      859.831
06/12/2013  02:37:00     -147.213       53.523      -22.101       34.027       27.080       18.812     1157.803      733.314      353.903        1.363        0.112      156.641       11.747        0.006      341.802       16.767      859.779
06/12/2013  02:38:00     -119.600        2.364      -18.842       32.978       43.033       23.094     1087.552     1851.877      533.323        0.907        0.174      119.623       22.461        0.035      341.846       16.842      859.742
06/12/2013  02:39:00      -83.031      -38.292       -1.395       31.802       31.769       21.822     1011.361     1009.254      476.210        0.543        0.125       91.435       16.840        0.034      341.756       16.688      859.750
06/12/2013  02:40:00     -128.497      -93.348       -5.726       54.055       34.644       25.437     2921.995     1200.224      647.055        1.501        0.238      158.825       12.144        0.006      341.635       16.483      859.800
06/12/2013  02:41:00     -114.026      -93.624        0.484       66.518       54.490       35.838     4424.591     2969.172     1284.371        1.522        0.434      147.537       31.234        0.045      341.629       16.474      859.833
06/12/2013  02:42:00     -151.782     -112.774       -5.351       72.972       60.406       46.676     5324.945     3648.886     2178.672        2.347        0.558      189.092       44.109        0.054      341.692       16.580      859.863
06/12/2013  02:43:00     -167.336      -50.293      -13.608       51.658       56.228       32.975     2668.579     3161.567     1087.324        1.882        0.346      174.730       27.692        0.025      341.685       16.569      859.846
06/12/2013  02:44:00     -109.359        5.059       -2.455       49.009       49.202       30.053     2401.885     2420.853      903.175        0.886        0.286      109.476       27.755        0.064      341.480       16.220      859.813
06/12/2013  02:45:00      -94.275       46.879       -1.227       56.849       35.420       31.716     3231.849     1254.541     1005.921        0.829        0.275      105.287       28.143        0.071      341.509       16.271      859.790
06/12/2013  02:46:00     -101.175      -40.174      -12.663       52.144       38.061       21.661     2718.980     1448.623      469.213        0.832        0.232      108.859       19.992        0.034      341.578       16.388      859.804
06/12/2013  02:47:00     -107.895      -30.175       -7.415       31.798       27.114       18.712     1011.117      735.142      350.148        0.735        0.105      112.035       16.427        0.021      341.690       16.577      859.825
06/12/2013  02:48:00     -100.872       -7.376      -12.002       24.530       32.442       17.177      601.710     1052.464      295.033        0.616        0.097      101.141       11.288        0.012      341.694       16.585      859.825
06/12/2013  02:49:00     -146.011      -72.336      -12.032       45.891       43.712       25.359     2105.938     1910.756      643.075        1.568        0.233      162.947       22.449        0.019      341.637       16.487      859.819
06/12/2013  02:50:00     -220.632      -81.798       -6.394       31.824       28.364       22.758     1012.785      804.498      517.937        2.887        0.117      235.307       17.219        0.005      341.494       16.240      859.845
06/12/2013  02:51:00     -189.493      -29.624       -9.440       77.299       58.855       38.156     5975.099     3463.890     1455.903        2.388        0.545      191.794       37.317        0.038      341.384       16.056      859.883
06/12/2013  02:52:00      -97.353        6.300       -2.205       38.057       46.171       30.114     1448.325     2131.774      906.876        0.700        0.224       97.557       19.797        0.041      341.353       16.007      859.860
06/12/2013  02:53:00     -145.839      -27.215       -3.531       56.298       38.557       29.611     3169.462     1486.666      876.794        1.378        0.277      148.357       29.477        0.039      341.364       16.025      859.849
06/12/2013  02:54:00      -85.335      -39.146       -3.244       33.395       37.270       18.998     1115.233     1389.025      360.938        0.584        0.143       93.885       13.616        0.021      341.389       16.067      859.855
06/12/2013  02:55:00      -80.847      -14.051       -6.256       55.834       26.421       25.769     3117.406      698.075      664.067        0.563        0.224       82.059       32.974        0.161      341.380       16.051      859.832
06/12/2013  02:56:00      -95.241      -20.603       -3.068       32.284       27.217       26.658     1042.239      740.771      710.663        0.600        0.125       97.444       21.165        0.047      341.349       15.999      859.816
06/12/2013  02:57:00     -148.599      -20.419      -17.898       37.897       40.468       21.967     1436.205     1637.625      482.546        1.319        0.178      149.995       11.117        0.005      341.451       16.171      859.839
06/12/2013  02:58:00     -137.163       -4.761      -15.314       37.897       31.039       19.449     1436.201      963.435      378.263        1.092        0.139      137.245       17.432        0.016      341.397       16.082      859.840
06/12/2013  02:59:00     -126.610       31.674      -10.794       31.624       26.360       16.980     1000.048      694.848      288.311        0.957        0.099      130.512        9.847        0.006      341.397       16.082      859.802
06/12/2013  03:00:00     -135.012       18.454       -9.153       55.149       36.536       20.001     3041.419     1334.913      400.039        1.171        0.239      136.267       24.958        0.034      341.525       16.297      859.759
06/12/2013  03:01:00     -140.311      -54.462      -11.157       27.841       22.263       17.914      775.139      495.656      320.924        1.218        0.080      150.510        8.823        0.003      341.432       16.140      859.763
06/12/2013  03:02:00     -184.695      -57.484      -18.621       25.538       34.912       23.943      652.166     1218.852      573.266        2.010        0.122      193.434       13.616        0.005      341.458       16.184      859.786
06/12/2013  03:03:00     -128.404      -32.963       -3.112       34.952       38.494       19.971     1221.634     1481.765      398.842        1.034        0.155      132.568       13.325        0.010      341.423       16.124      859.788
06/12/2013  03:04:00     -101.692      -10.280      -11.640       33.361       37.266       20.292     1112.983     1388.741      411.750        0.675        0.146      102.210       17.949        0.031      341.391       16.073      859.802
06/12/2013  03:05:00     -120.266      -43.447       -5.252       57.881       25.005       17.418     3350.213      625.236      303.394        1.033        0.214      127.873       18.872        0.022      341.359       16.018      859.817
06/12/2013  03:06:00     -106.056      -44.442       -2.508       30.737       35.830       16.952      944.783     1283.798      287.358        0.787        0.126      114.991       16.094        0.020      341.417       16.115      859.829
06/12/2013  03:07:00     -107.926      -20.050        2.674       33.354       24.996       19.099     1112.491      624.825      364.789        0.708        0.105      109.773       17.239        0.025      341.389       16.066      859.843
06/12/2013  03:08:00     -105.885      -27.903       -3.614       38.755       28.520       20.898     1501.977      813.371      436.726        0.738        0.138      109.499       22.430        0.042      341.435       16.145      859.852
06/12/2013  03:09:00     -114.148      -24.507       -0.228       39.803       28.815       18.145     1584.250      830.299      329.241        0.819        0.137      116.750       16.411        0.020      341.422       16.123      859.837
06/12/2013  03:10:00     -149.303       10.761      -14.290       28.904       21.694       16.463      835.437      470.639      271.032        1.209        0.079      149.690       15.106        0.010      341.380       16.053      859.819
06/12/2013  03:11:00     -174.179       57.610      -15.202       44.935       31.935       23.980     2019.142     1019.869      575.017        1.875        0.181      183.459       14.831        0.007      341.426       16.130      859.813
06/12/2013  03:12:00     -186.255       65.530       -5.715       49.334       36.273       22.667     2433.885     1315.737      513.787        2.164        0.213      197.446        8.602        0.002      341.451       16.171      859.806
06/12/2013  03:13:00     -109.083       12.665       -1.247       28.193       33.910       20.468      794.822     1149.881      418.952        0.721        0.118      109.816       13.275        0.015      341.325       15.960      859.803
06/12/2013  03:14:00     -106.001       10.810       -7.592       38.118       33.983       16.229     1453.006     1154.845      263.391        0.714        0.144      106.551       17.349        0.027      341.330       15.968      859.782
06/12/2013  03:15:00      -85.175       12.186      -15.312       21.388       23.322       14.852      457.455      543.923      220.567        0.443        0.061       86.043        8.753        0.010      341.285       15.891      859.738
06/12/2013  03:16:00      -46.526       -8.085       -4.217       25.148       27.888       17.505      632.411      777.750      306.437        0.198        0.086       47.223       14.903        0.100      341.335       15.976      859.694
06/12/2013  03:17:00      -59.225      -40.420       -5.016       39.221       21.348       20.382     1538.304      455.735      415.421        0.379        0.120       71.703       14.458        0.041      341.319       15.950      859.705
06/12/2013  03:18:00      -80.185      -53.765       -5.153       35.873       23.124       25.611     1286.883      534.723      655.899        0.591        0.124       96.542       20.618        0.046      341.297       15.912      859.762
06/12/2013  03:19:00      -92.911      -61.489       -2.840       47.722       43.676       29.253     2277.388     1907.555      855.756        0.873        0.252      111.415       31.163        0.078      341.241       15.817      859.808
06/12/2013  03:20:00      -91.723      -48.607        2.309       53.085       52.274       22.335     2817.994     2732.546      498.862        0.841        0.302      103.806       22.757        0.048      341.314       15.940      859.799
06/12/2013  03:21:00     -106.672      -37.097       -3.382       30.332       37.567       17.587      920.036     1411.281      309.292        0.770        0.132      112.939       16.811        0.022      341.681       16.562      859.748
06/12/2013  03:22:00      -91.663      -21.852       -6.465       31.026       27.436       20.609      962.621      752.722      424.732        0.553        0.107       94.232       13.740        0.021      341.534       16.313      859.742
06/12/2013  03:23:00     -102.948      -59.155        1.078       50.837       39.737       26.786     2584.362     1579.048      717.468        0.949        0.244      118.733       28.790        0.059      341.331       15.969      859.777
06/12/2013  03:24:00     -133.390      -45.366       -1.371       55.898       37.321       26.138     3124.581     1392.821      683.204        1.253        0.260      140.893       20.768        0.022      341.280       15.883      859.819
06/12/2013  03:25:00     -112.437      -39.832        7.933       45.351       54.556       30.745     2056.691     2976.397      945.277        1.013        0.299      119.284       23.940        0.040      341.383       16.058      859.830
06/12/2013  03:26:00      -69.655      -18.301        5.727       33.086       38.229       17.260     1094.691     1461.439      297.897        0.404        0.143       72.019       12.002        0.028      341.435       16.144      859.823
06/12/2013  03:27:00      -74.473      -29.111       -4.482       20.530       22.576       14.485      421.471      509.677      209.821        0.378        0.057       79.960       12.358        0.024      341.429       16.136      859.820
06/12/2013  03:28:00      -78.617      -18.764        2.734       33.222       30.126       18.665     1103.698      907.605      348.369        0.445        0.118       80.825       16.284        0.041      341.334       15.973      859.822
06/12/2013  03:29:00      -85.443      -12.016       -5.157       33.226       25.744       15.898     1103.976      662.777      252.746        0.475        0.101       86.284       17.987        0.043      341.279       15.880      859.824
06/12/2013  03:30:00     -106.132       -2.014      -10.559       18.251       19.026       11.696      333.101      361.996      136.795        0.611        0.042      106.151        9.640        0.008      341.214       15.771      859.823
06/12/2013  03:31:00      -88.587      -30.518       -4.941       29.615       31.329       16.498      877.028      981.527      272.169        0.547        0.107       93.696       19.213        0.042      341.192       15.734      859.831
06/12/2013  03:32:00     -143.245      -40.451       -9.749       26.643       15.252       13.824      709.836      232.621      191.100        1.169        0.057      148.847       11.279        0.006      341.124       15.619      859.847
06/12/2013  03:33:00     -139.051      -16.744       -4.311       51.036       35.083       17.889     2604.703     1230.808      320.024        1.189        0.208      140.056       22.119        0.025      341.020       15.443      859.866
06/12/2013  03:34:00      -80.305      -27.752        4.113       45.456       30.651       20.580     2066.244      939.504      423.524        0.533        0.171       84.965       24.295        0.082      341.024       15.450      859.859
06/12/2013  03:35:00      -78.600        2.485       -0.318       40.980       21.758       19.425     1679.386      473.410      377.319        0.436        0.127       78.640       23.624        0.090      341.078       15.542      859.839
06/12/2013  03:36:00      -81.340       11.475       -0.930       25.900       25.245       15.171      670.793      637.286      230.168        0.414        0.077       82.146        9.393        0.013      341.117       15.608      859.806
06/12/2013  03:37:00      -68.481        7.477       -2.282       24.988       22.205       15.290      624.401      493.079      233.775        0.305        0.068       68.888       11.199        0.026      341.188       15.728      859.793
06/12/2013  03:38:00      -71.390       17.638       -7.205       27.151       30.417       15.737      737.202      925.188      247.665        0.368        0.096       73.536       15.461        0.044      341.226       15.791      859.792
06/12/2013  03:39:00      -40.101        9.350       -2.614       19.101       20.788       15.263      364.830      432.148      232.946        0.137        0.051       41.177       14.929        0.131      341.262       15.852      859.786
06/12/2013  03:40:00      -63.568       43.612      -15.303       15.550       21.259       10.196      241.804      451.966      103.964        0.349        0.040       77.090        8.969        0.014      341.242       15.819      859.772
06/12/2013  03:41:00      -48.389      -13.088       -8.620       18.679       23.020       11.852      348.887      529.921      140.463        0.180        0.051       50.128        6.399        0.016      341.240       15.816      859.775
06/12/2013  03:42:00      -61.541      -20.602       -0.099       28.001       22.070       13.487      784.057      487.092      181.910        0.283        0.073       64.898        9.918        0.023      341.271       15.868      859.798
06/12/2013  03:43:00      -90.625      -45.568       -5.883       20.425       19.257       13.832      417.192      370.849      191.326        0.565        0.049      101.437        9.371        0.009      341.212       15.768      859.834
06/12/2013  03:44:00     -111.005       -8.727       -7.419       29.780       23.450       14.404      886.867      549.908      207.470        0.705        0.082      111.348       16.948        0.023      341.166       15.691      859.814
06/12/2013  03:45:00     -118.163       20.312      -11.058       30.501       28.174       16.216      930.302      793.792      262.944        0.824        0.099      119.896       13.128        0.012      341.016       15.436      859.770
06/12/2013  03:46:00      -67.690       63.506      -14.960       20.273       24.295       12.492      410.979      590.255      156.058        0.500        0.058       92.816        5.563        0.004      341.015       15.434      859.708
06/12/2013  03:47:00      -79.932       75.709      -17.827       19.662       30.193       12.572      386.583      911.594      158.048        0.695        0.073      110.095       13.155        0.014      341.095       15.570      859.683
06/12/2013  03:48:00      -64.078      -13.981        1.250       25.281       21.435       17.729      639.109      459.470      314.328        0.286        0.071       65.585       14.336        0.048      341.117       15.608      859.733
06/12/2013  03:49:00      -61.164      -36.357      -10.057       29.347       24.952       13.114      861.243      622.580      171.976        0.341        0.083       71.154        8.175        0.013      341.117       15.608      859.779
06/12/2013  03:50:00     -117.712      -55.271       -1.679       24.132       29.470       17.039      582.374      868.494      290.335        0.933        0.087      130.042        8.284        0.004      341.024       15.450      859.782
06/12/2013  03:51:00     -104.693      -12.026       -8.118       48.199       29.878       20.900     2323.157      892.693      436.798        0.741        0.183      105.382       20.734        0.039      340.943       15.313      859.759
06/12/2013  03:52:00      -74.837       15.424       -6.961       41.230       36.634       22.556     1699.916     1342.076      508.756        0.472        0.178       76.410       22.519        0.087      340.840       15.139      859.721
06/12/2013  03:53:00      -57.650       16.649       -6.897       36.420       22.631       17.061     1326.419      512.180      291.071        0.289        0.106       60.006       16.909        0.079      340.897       15.235      859.678
06/12/2013  03:54:00      -35.065       19.717       -4.535       30.103       16.490       11.571      906.211      271.916      133.896        0.148        0.066       40.228       14.362        0.127      341.117       15.607      859.655
06/12/2013  03:55:00        0.817      -31.036        1.073       14.297       22.531       13.448      204.410      507.638      180.841        0.093        0.045       31.046       13.613        0.192      341.139       15.644      859.645
06/12/2013  03:56:00      -15.266       -7.767      -11.181       15.975       15.083       11.294      255.190      227.509      127.556        0.051        0.031       17.128       11.115        0.421      341.102       15.583      859.658
06/12/2013  03:57:00       -7.098       -5.449       -5.480       13.980        7.164        6.179      195.445       51.324       38.174        0.020        0.014        8.948        2.531        0.080      341.035       15.470      859.686
06/12/2013  03:58:00      -59.784      -18.565      -11.039       17.712       11.456        8.730      313.705      131.251       76.207        0.228        0.026       62.600        2.234        0.001      341.087       15.556      859.714
06/12/2013  03:59:00     -124.731      -46.187       -9.362       27.237       30.076       13.073      741.862      904.570      170.894        0.980        0.091      133.007       10.589        0.006      340.999       15.407      859.742
06/12/2013  04:00:00     -120.640      -66.354      -12.894       40.410       23.965       14.715     1632.988      574.341      216.527        1.077        0.121      137.684       13.828        0.010      340.930       15.291      859.766
06/12/2013  04:01:00      -33.123      -26.526       -2.100       17.633       20.736       12.205      310.924      430.000      148.967        0.135        0.044       42.436       10.212        0.058      340.925       15.281      859.749
06/12/2013  04:02:00       -7.807        2.779       -4.890       17.984       16.279        6.592      323.420      265.013       43.453        0.036        0.032        8.287        9.632        1.351      341.042       15.479      859.675
06/12/2013  04:03:00       28.917       59.587       -0.044       16.273       14.118       14.113      264.804      199.318      199.177        0.252        0.033       66.233       11.137        0.028      341.096       15.572      859.595
06/12/2013  04:04:00      -10.102       95.908      -17.316       29.778       26.410       11.510      886.732      697.471      132.470        0.566        0.086       96.438        9.078        0.009      341.289       15.898      859.566
06/12/2013  04:05:00      -44.692       -4.762       -7.857       17.498       29.066       12.063      306.166      844.858      145.522        0.169        0.065       44.945        3.843        0.007      341.178       15.710      859.609
06/12/2013  04:06:00      -58.454      -37.403      -11.751       19.908       16.464       12.946      396.347      271.061      167.597        0.289        0.042       69.396        8.719        0.016      341.097       15.574      859.689
06/12/2013  04:07:00      -49.446      -39.652       -3.848       14.325       11.300       15.919      205.215      127.686      253.406        0.231        0.029       63.381       11.407        0.032      341.073       15.533      859.721
06/12/2013  04:08:00      -86.736      -79.050       -3.747       35.885       36.025       17.381     1287.726     1297.816      302.108        0.834        0.144      117.354       19.134        0.027      341.114       15.602      859.726
06/12/2013  04:09:00     -125.733      -73.234       -0.678       36.118       24.375       22.115     1304.485      594.143      489.053        1.178        0.119      145.506       20.605        0.020      341.076       15.537      859.717
06/12/2013  04:10:00     -142.295      -75.312       -3.403       40.364       32.258       22.121     1629.283     1040.569      489.323        1.454        0.158      160.996       16.831        0.011      341.083       15.551      859.717
06/12/2013  04:11:00     -155.276      -70.671       -6.114       35.840       29.193       20.919     1284.472      852.228      437.594        1.586        0.129      170.602       18.147        0.011      341.003       15.415      859.737
06/12/2013  04:12:00      -83.824      -46.321       -3.126       48.465       28.698       17.102     2348.868      823.588      292.485        0.632        0.173       95.771       14.727        0.024      340.820       15.104      859.714
06/12/2013  04:13:00      -26.869       33.847       -5.970       20.549       44.224       15.423      422.244     1955.802      237.869        0.226        0.131       43.215       21.128        0.239      340.808       15.084      859.660
06/12/2013  04:14:00      -25.647       47.064       -4.145       11.230       20.561        7.201      126.104      422.752       51.857        0.175        0.030       53.598        2.209        0.002      341.149       15.661      859.634
06/12/2013  04:15:00      -72.114      -11.486       -7.669       17.858       23.044       15.613      318.921      531.034      243.780        0.324        0.055       73.023       10.599        0.021      341.016       15.436      859.661
06/12/2013  04:16:00      -61.658      -27.761       -4.553       43.427       32.058       22.678     1885.867     1027.733      514.288        0.401        0.171       67.619       20.067        0.088      340.855       15.163      859.699
06/12/2013  04:17:00      -81.861      -56.568        1.582       59.108       27.809       19.022     3493.782      773.333      361.850        0.727        0.231       99.505       22.860        0.053      340.742       14.973      859.722
06/12/2013  04:18:00      -24.505      -16.806       -0.737       17.659       19.629       12.959      311.850      385.296      167.928        0.087        0.043       29.714       12.616        0.180      340.744       14.975      859.715
06/12/2013  04:19:00      -44.542      -16.046       -5.593       21.259       15.193       10.499      451.966      230.832      110.225        0.153        0.040       47.345        8.560        0.033      340.783       15.039      859.699
06/12/2013  04:20:00      -67.634       -6.532      -11.408       27.720       17.449       11.697      768.400      304.455      136.810        0.298        0.060       67.949        9.446        0.019      340.822       15.108      859.687
06/12/2013  04:21:00      -64.307      -10.137       -9.273       20.835       13.328        9.308      434.117      177.629       86.645        0.251        0.035       65.101        9.784        0.023      340.862       15.175      859.674
06/12/2013  04:22:00      -15.091       -5.632        2.354       16.199        8.631        9.466      262.414       74.493       89.607        0.035        0.021       16.108       11.332        0.495      340.887       15.218      859.645
06/12/2013  04:23:00      -19.676      -16.163       -4.387       21.480        7.264        8.882      461.397       52.773       78.889        0.063        0.030       25.463       10.600        0.173      340.998       15.405      859.592
06/12/2013  04:24:00      -44.330        3.999       -9.394       11.536       17.412        9.617      133.086      303.185       92.489        0.130        0.026       44.510        6.825        0.024      340.889       15.221      859.542
06/12/2013  04:25:00      -42.931       39.044       -8.915       11.559       13.584        8.883      133.600      184.516       78.904        0.192        0.020       58.030        7.891        0.018      341.118       15.610      859.522
06/12/2013  04:26:00      -52.893       10.024      -10.858       12.618       15.555        6.792      159.226      241.972       46.129        0.173        0.022       53.835        4.120        0.006      341.027       15.454      859.536
06/12/2013  04:27:00      -67.877      -26.508       -5.948       14.047       14.366       10.171      197.312      206.371      103.450        0.293        0.025       72.869        7.436        0.010      340.905       15.250      859.567
06/12/2013  04:28:00      -51.691      -38.579       -4.024       28.578       19.675       13.074      816.717      387.098      170.932        0.278        0.069       64.501       12.017        0.035      340.828       15.117      859.595
06/12/2013  04:29:00     -116.337      -57.548      -11.903       21.191       21.982       13.324      449.078      483.209      177.521        0.905        0.055      129.792        7.982        0.004      340.722       14.937      859.627
06/12/2013  04:30:00      -94.215      -41.076       -7.364       32.389       28.828       16.890     1049.037      831.082      285.267        0.639        0.108      102.780       17.454        0.029      340.738       14.966      859.646
06/12/2013  04:31:00     -113.828      -27.044       -3.557       35.788       21.479       17.052     1280.772      461.368      290.758        0.787        0.102      116.997       15.880        0.018      340.670       14.850      859.647
06/12/2013  04:32:00     -106.577      -23.999      -11.431       28.347       25.279       12.125      803.574      639.051      147.013        0.683        0.079      109.246        8.429        0.006      340.696       14.894      859.627
06/12/2013  04:33:00      -89.919        4.303       -7.474       21.496       14.095       17.733      462.072      198.675      314.451        0.457        0.049       90.022       15.091        0.028      340.676       14.861      859.609
06/12/2013  04:34:00     -112.949       -3.659      -12.264       21.181       18.343       15.133      448.642      336.465      229.001        0.697        0.051      113.008        7.618        0.005      340.705       14.910      859.610
06/12/2013  04:35:00     -105.894      -24.675      -10.645       37.631       23.718       17.052     1416.108      562.531      290.776        0.710        0.113      108.731       15.484        0.020      340.713       14.923      859.599
06/12/2013  04:36:00      -57.847       -6.686      -23.012       14.555       20.714       12.259      211.851      429.086      150.287        0.236        0.040       58.232        4.050        0.005      340.758       15.000      859.566
06/12/2013  04:37:00      -39.850      -30.696      -13.700       19.133       27.691       14.932      366.068      766.808      222.967        0.204        0.068       50.302        9.204        0.033      340.937       15.302      859.530
06/12/2013  04:38:00      -83.331      -42.254      -13.370       36.632       26.330       21.051     1341.889      693.263      443.159        0.569        0.124       93.432        9.436        0.010      340.799       15.069      859.544
06/12/2013  04:39:00      -65.140      -54.691       -5.926       48.281       46.635       35.080     2331.007     2174.785     1230.588        0.650        0.287       85.055       28.931        0.116      340.650       14.817      859.579
06/12/2013  04:40:00      -58.876      -32.111       -6.761       41.907       35.052       17.634     1756.169     1228.667      310.954        0.392        0.165       67.063       21.293        0.101      340.615       14.759      859.577
06/12/2013  04:41:00      -42.295      -21.503       -0.984       27.715       26.283       11.399      768.140      690.816      129.928        0.192        0.079       47.447        1.712        0.001      340.625       14.775      859.544
06/12/2013  04:42:00      -55.274      -16.695       -3.450       27.679       30.225       15.414      766.110      913.560      237.606        0.263        0.096       57.740       14.980        0.067      340.596       14.726      859.504
06/12/2013  04:43:00      -99.905       -6.440      -14.340       29.871       18.833       14.635      892.259      354.669      214.170        0.584        0.073      100.113       13.612        0.018      340.593       14.721      859.506
06/12/2013  04:44:00     -126.034      -26.989       -0.662       43.917       39.566       28.711     1928.715     1565.504      824.305        1.047        0.216      128.892       26.068        0.041      340.577       14.695      859.543
06/12/2013  04:45:00      -62.233       -9.135        5.828       54.578       46.628       27.725     2978.736     2174.168      768.686        0.495        0.296       62.899       21.221        0.114      340.540       14.632      859.548
06/12/2013  04:46:00      -22.321      -25.109        8.716       21.377       29.083       23.774      456.957      845.816      565.179        0.154        0.093       33.596       17.467        0.270      340.572       14.686      859.530
06/12/2013  04:47:00      -19.665      -17.769       -2.335       27.701       17.383       11.630      767.346      302.170      135.256        0.096        0.060       26.503        6.719        0.064      340.621       14.768      859.514
06/12/2013  04:48:00      -29.540      -27.758       -0.731       30.498       14.709       14.397      930.155      216.363      207.280        0.150        0.068       40.535       10.016        0.061      340.700       14.901      859.504
06/12/2013  04:49:00      -83.185      -40.526      -21.043       29.499       34.172       18.222      870.215     1167.717      332.042        0.569        0.118       92.532        9.584        0.011      340.697       14.897      859.491
06/12/2013  04:50:00      -71.768      -34.443       -6.590       52.523       39.004       28.936     2758.666     1521.322      837.267        0.575        0.256       79.605       23.340        0.086      340.575       14.689      859.503
06/12/2013  04:51:00      -39.734      -39.701        2.210       61.103       34.274       27.570     3733.541     1174.712      760.125        0.441        0.283       56.169       22.238        0.157      340.578       14.695      859.542
06/12/2013  04:52:00     -134.791      -30.922       -2.451       50.210       38.988       23.438     2521.044     1520.044      549.354        1.186        0.230      138.292       23.732        0.029      340.563       14.670      859.569
06/12/2013  04:53:00      -86.196      -48.058       -7.291       27.384       26.685       15.474      749.857      712.106      239.451        0.575        0.085       98.688       13.918        0.020      340.552       14.652      859.567
06/12/2013  04:54:00      -91.043       -0.742      -11.698       15.921       21.613       10.346      253.488      467.141      107.038        0.463        0.041       91.046        9.771        0.012      340.628       14.778      859.543
06/12/2013  04:55:00      -99.355       29.928      -13.388       38.908       25.753       21.548     1513.805      663.192      464.331        0.679        0.132      103.765       18.745        0.033      340.593       14.720      859.498
06/12/2013  04:56:00     -151.828       27.571      -13.574       52.823       32.573       22.863     2790.316     1060.995      522.711        1.418        0.219      154.311       16.799        0.012      340.622       14.770      859.483
06/12/2013  04:57:00     -139.765       15.392      -12.534       60.937       41.882       24.319     3713.377     1754.131      591.403        1.299        0.303      140.610       20.850        0.022      340.542       14.634      859.487
06/12/2013  04:58:00       -9.119       -1.552       -2.673       35.224       22.203       17.787     1240.715      492.959      316.377        0.107        0.103        9.250       14.739        2.539      340.502       14.567      859.479
06/12/2013  04:59:00      -27.211       13.289       -6.738       29.201       30.245       16.518      852.697      914.782      272.843        0.150        0.102       30.283       11.812        0.152      340.606       14.743      859.461
06/12/2013  05:00:00       40.112       29.245        9.270       17.984       10.950       13.138      323.441      119.903      172.601        0.158        0.031       49.641       10.330        0.043      340.923       15.279      859.394
06/12/2013  05:01:00       35.882       34.248       -2.597       24.192       26.205       18.643      585.264      686.708      347.561        0.204        0.081       49.603       15.673        0.100      340.689       14.885      859.319
06/12/2013  05:02:00       -4.302       60.145      -10.706       31.392       29.056       13.697      985.434      844.239      187.604        0.288        0.101       60.298       13.078        0.047      340.629       14.782      859.322
06/12/2013  05:03:00      -85.531      -25.844      -22.802       24.491       32.844       17.786      599.794     1078.700      316.347        0.525        0.100       89.350       10.870        0.015      340.789       15.051      859.404
06/12/2013  05:04:00     -138.706      -58.921       -7.127       34.324       33.755       18.962     1178.110     1139.390      359.558        1.272        0.134      150.702       14.470        0.009      340.620       14.765      859.499
06/12/2013  05:05:00     -131.247      -36.555       -4.180       48.744       35.219       28.770     2375.999     1240.401      827.735        1.151        0.222      136.242       27.853        0.042      340.573       14.687      859.563
06/12/2013  05:06:00     -129.691        2.830       -9.295       38.079       36.002       21.054     1449.977     1296.140      443.261        1.005        0.159      129.722       22.120        0.029      340.543       14.634      859.555
06/12/2013  05:07:00      -50.682       21.902      -10.188       36.477       41.913       17.134     1330.606     1756.700      293.584        0.327        0.169       55.211       19.334        0.123      340.549       14.647      859.476
06/12/2013  05:08:00        9.584       89.368      -12.863       22.402       24.575       13.620      501.858      603.934      185.502        0.477        0.065       89.880       10.618        0.014      340.713       14.924      859.359
06/12/2013  05:09:00      -12.198      129.326      -12.639       23.874       35.820       17.636      569.950     1283.054      311.036        0.960        0.108      129.900       16.264        0.016      340.748       14.982      859.327
06/12/2013  05:10:00      -51.267        8.039      -21.290       41.020       52.418       18.512     1682.601     2747.630      342.702        0.396        0.239       51.894       14.295        0.076      340.765       15.011      859.418
06/12/2013  05:11:00      -40.029      -34.379      -11.784       34.776       19.043       14.560     1209.394      362.623      211.987        0.235        0.089       52.766       10.162        0.037      340.738       14.965      859.497
06/12/2013  05:12:00      -25.594       -6.290       -8.809       16.209        8.548       13.057      262.729       73.071      170.491        0.064        0.025       26.356       12.180        0.214      340.868       15.186      859.477
06/12/2013  05:13:00       18.297       16.929        4.517       15.612       10.536        9.622      243.726      111.002       92.574        0.054        0.022       24.928        9.151        0.135      340.960       15.341      859.416
06/12/2013  05:14:00       22.852       20.859        2.101       11.862       10.408        7.949      140.701      108.324       63.182        0.064        0.016       30.941        6.489        0.044      341.023       15.447      859.407
06/12/2013  05:15:00      -51.207      -17.883       -7.393       34.580       26.517        7.304     1195.775      703.143       53.345        0.247        0.098       54.239        5.748        0.011      341.116       15.605      859.463
06/12/2013  05:16:00      -87.678      -38.298      -11.597       42.139       17.848       12.495     1775.663      318.560      156.127        0.577        0.113       95.677        9.524        0.010      340.772       15.024      859.537
06/12/2013  05:17:00      -94.501      -54.329      -10.498       22.363       20.704       17.394      500.124      428.654      302.540        0.661        0.062      109.005       10.144        0.009      340.712       14.922      859.555
06/12/2013  05:18:00     -128.524      -53.030       -5.564       26.404       18.271       15.754      697.151      333.842      248.200        1.032        0.064      139.034        8.288        0.004      340.753       14.991      859.514
06/12/2013  05:19:00     -170.492      -30.264       -3.538       70.142       55.371       30.859     4919.872     3065.911      952.264        1.947        0.447      173.157       30.678        0.031      340.622       14.769      859.468
06/12/2013  05:20:00     -203.355      -22.581      -14.562       55.434       41.686       32.191     3072.980     1737.733     1036.251        2.396        0.292      204.604       26.088        0.016      340.315       14.249      859.436
06/12/2013  05:21:00     -137.718      -48.748       -6.673       58.925       58.663       27.752     3472.198     3441.290      770.197        1.453        0.384      146.091       11.909        0.007      340.318       14.255      859.440
06/12/2013  05:22:00     -107.766       -3.475      -14.561       31.336       40.019       27.794      981.974     1601.488      772.485        0.760        0.168      107.822       16.026        0.022      340.412       14.413      859.494
06/12/2013  05:23:00      -94.699      -51.761      -16.505       32.671       33.729       19.904     1067.404     1137.619      396.174        0.726        0.130      107.921       14.099        0.017      340.464       14.504      859.514
06/12/2013  05:24:00      -95.342      -42.137      -10.034       38.012       39.465       26.256     1444.895     1557.451      689.373        0.733        0.185      104.239       22.130        0.045      340.431       14.448      859.520
06/12/2013  05:25:00     -118.290      -42.021      -10.272       20.689       18.902       16.612      428.040      357.295      275.944        0.846        0.053      125.532        6.579        0.003      340.476       14.522      859.501
06/12/2013  05:26:00      -92.203      -13.105       -3.038       42.362       26.692       21.754     1794.522      712.471      473.220        0.583        0.149       93.130       23.924        0.066      340.405       14.402      859.460
06/12/2013  05:27:00     -129.923      -27.198      -14.820       57.320       34.556       24.775     3285.529     1194.140      613.799        1.147        0.255      132.740       23.591        0.032      340.426       14.439      859.443
06/12/2013  05:28:00     -132.134       -5.143       -6.840       65.925       33.356       24.244     4346.057     1112.603      587.780        1.179        0.302      132.234       25.835        0.038      340.519       14.594      859.458
06/12/2013  05:29:00     -104.016      -20.284       -6.517       43.084       32.923       22.989     1856.266     1083.935      528.512        0.737        0.173      105.975       23.011        0.047      340.475       14.520      859.459
06/12/2013  05:30:00      -43.558       15.491       -4.715       27.419       28.580       17.055      751.819      816.798      290.872        0.201        0.093       46.230       13.656        0.087      340.551       14.649      859.448
06/12/2013  05:31:00      -36.973      -10.710       -2.961       28.574       22.435       15.431      816.451      503.307      238.122        0.152        0.078       38.493       10.481        0.074      340.577       14.694      859.453
06/12/2013  05:32:00      -73.301      -15.469       -2.499       17.351       19.035       11.805      301.041      362.333      139.361        0.321        0.040       74.915        8.813        0.014      340.585       14.708      859.460
06/12/2013  05:33:00      -42.735      -30.626      -11.326       25.271       17.685       11.494      638.630      312.770      132.111        0.199        0.054       52.576        8.748        0.028      340.649       14.815      859.436
06/12/2013  05:34:00      -42.431       -1.470       -9.745       10.242       11.499       10.116      104.903      132.236      102.337        0.112        0.017       42.457        5.507        0.017      340.686       14.878      859.424
06/12/2013  05:35:00      -45.095      -31.337      -15.598       15.036       15.679       12.221      226.086      245.828      149.355        0.194        0.031       54.914        3.741        0.005      341.024       15.449      859.467
06/12/2013  05:36:00      -39.261      -46.049       -3.278       22.222       13.444       11.339      493.839      180.741      128.564        0.224        0.040       60.514        4.418        0.005      340.977       15.370      859.482
06/12/2013  05:37:00      -20.772      -20.772       -6.445       14.030        9.579        7.923      196.841       91.766       62.780        0.063        0.018       29.376        4.773        0.026      340.804       15.078      859.447
06/12/2013  05:38:00        0.851       -7.866       -1.842       14.205        9.730        6.065      201.774       94.675       36.783        0.020        0.017        7.912        4.917        0.386      341.177       15.709      859.418
06/12/2013  05:39:00      -57.821      -36.307       -5.910       29.815       11.163        8.732      888.937      124.607       76.244        0.289        0.054       68.275        3.563        0.003      340.858       15.168      859.432
06/12/2013  05:40:00     -102.789      -34.429       -8.752       14.336       13.502       14.190      205.527      182.308      201.367        0.621        0.029      108.402        8.331        0.006      340.542       14.635      859.448
06/12/2013  05:41:00     -127.615      -43.308      -27.553       14.795       26.079       14.474      218.894      680.137      209.499        1.001        0.055      134.763        7.019        0.003      340.516       14.589      859.445
06/12/2013  05:42:00     -122.067      -60.663      -17.646       18.096       19.166       10.241      327.454      367.334      104.869        0.985        0.040      136.310        8.596        0.004      340.446       14.474      859.448
06/12/2013  05:43:00      -89.151      -74.773      -11.730       32.133       16.534       10.813     1032.506      273.365      116.922        0.755        0.071      116.357       12.285        0.011      340.438       14.457      859.457
06/12/2013  05:44:00      -41.305       -5.577        0.765       37.832       23.232       21.853     1431.243      539.703      477.541        0.209        0.122       41.680       23.026        0.305      340.460       14.497      859.440
06/12/2013  05:45:00       -5.545      -32.570       -6.140       23.274       24.167       25.446      541.662      584.064      647.516        0.145        0.089       33.039       13.667        0.171      340.552       14.650      859.418
06/12/2013  05:46:00      -61.982      -62.068       -6.719       40.820       24.699       20.278     1666.290      610.036      411.214        0.521        0.134       87.717       20.475        0.054      340.594       14.723      859.437
06/12/2013  05:47:00     -106.320      -40.246       -0.756       28.306       36.304       22.854      801.211     1318.008      522.306        0.778        0.132      113.682       19.832        0.030      340.491       14.548      859.486
06/12/2013  05:48:00     -111.654      -45.528       -6.710       26.126       25.984       17.722      682.579      675.145      314.083        0.813        0.084      120.579       10.130        0.007      340.460       14.495      859.498
06/12/2013  05:49:00      -62.149       -7.029       10.919       43.965       49.433       27.850     1932.883     2443.579      775.606        0.459        0.258       62.545       22.946        0.135      340.497       14.558      859.461
06/12/2013  05:50:00      -49.118       -0.521       -0.295       46.568       36.843       25.582     2168.576     1357.404      654.459        0.330        0.209       49.121       28.387        0.334      340.636       14.793      859.412
06/12/2013  05:51:00      -87.685      -26.898      -11.317       30.955       25.899       17.234      958.189      670.737      297.006        0.523        0.096       91.718       13.697        0.022      340.627       14.779      859.390
06/12/2013  05:52:00      -96.945      -37.199       -3.925       67.558       41.044       25.465     4564.048     1684.570      648.472        0.885        0.345      103.837       23.613        0.052      340.490       14.546      859.391
06/12/2013  05:53:00     -117.542      -54.233      -15.685       31.467       25.607       15.250      990.154      655.735      232.557        0.944        0.094      129.450       15.482        0.014      340.437       14.456      859.391
06/12/2013  05:54:00      -84.550      -42.974       -6.285       15.750       11.190       13.038      248.062      125.222      169.992        0.479        0.027       94.844        7.975        0.007      340.468       14.509      859.383
06/12/2013  05:55:00     -110.856      -45.186       -7.430       61.610       34.826       21.467     3795.803     1212.838      460.839        0.993        0.273      119.712       19.912        0.028      340.471       14.514      859.381
06/12/2013  05:56:00     -136.435      -61.405        1.433       49.608       38.712       27.337     2460.970     1498.637      747.321        1.355        0.235      149.616       21.881        0.021      340.491       14.549      859.424
06/12/2013  05:57:00     -148.448      -28.928       -4.073       36.683       43.007       23.672     1345.678     1849.577      560.368        1.332        0.188      151.241       13.600        0.008      340.651       14.817      859.444
06/12/2013  05:58:00      -85.883       20.684       -4.635       50.224       54.543       33.899     2522.466     2974.972     1149.148        0.723        0.332       88.339       30.626        0.120      340.632       14.786      859.405
06/12/2013  05:59:00     -102.818        0.316      -11.940       52.805       41.410       33.607     2788.345     1714.800     1129.456        0.817        0.282      102.819       22.128        0.046      340.758       14.999      859.370
06/12/2013  06:00:00      -95.810      -13.599       -4.081       43.994       40.671       22.894     1935.451     1654.171      524.134        0.675        0.206       96.771       20.855        0.046      340.704       14.910      859.369
06/12/2013  06:01:00      -64.918      -47.827       -7.733       38.435       30.572       28.105     1477.286      934.621      789.906        0.488        0.160       80.633        5.860        0.005      340.535       14.623      859.415
06/12/2013  06:02:00     -133.135      -36.561      -18.114       43.817       27.273       16.478     1919.910      743.794      271.517        1.116        0.147      138.064       10.941        0.006      340.496       14.557      859.460
06/12/2013  06:03:00      -78.913      -44.836        2.444       42.534       30.972       19.000     1809.172      959.247      360.990        0.569        0.156       90.761       14.585        0.026      340.572       14.684      859.461
06/12/2013  06:04:00      -70.820      -14.125       -6.801       57.803       24.659       21.473     3341.213      608.055      461.104        0.483        0.221       72.215       29.430        0.166      340.676       14.862      859.424
06/12/2013  06:05:00      -30.340      -23.430       -0.187       34.318       28.818       17.207     1177.741      830.474      296.091        0.189        0.115       38.334       11.809        0.095      340.675       14.859      859.386
06/12/2013  06:06:00       -0.725      -56.356      -10.639       19.565       31.483       13.000      382.807      991.164      168.994        0.242        0.077       56.361        9.349        0.028      340.671       14.854      859.401
06/12/2013  06:07:00        1.763      -33.124       13.816       33.986       25.083       27.628     1155.033      629.139      763.292        0.192        0.127       33.171       23.564        0.505      340.704       14.910      859.462
06/12/2013  06:08:00      -59.144      -39.071       -1.211       11.325       15.835       13.006      128.265      250.741      169.165        0.279        0.027       70.884       11.811        0.028      340.660       14.833      859.509
06/12/2013  06:09:00      -45.437      -16.095        2.446       11.830       13.220       12.115      139.946      174.758      146.776        0.140        0.023       48.204        4.653        0.009      340.774       15.026      859.479
06/12/2013  06:10:00       -7.488        3.010        5.265       21.591       10.159       13.401      466.180      103.211      179.600        0.042        0.037        8.070       15.902        3.883      341.060       15.509      859.411
06/12/2013  06:11:00        3.771       -0.898        3.335        9.659        7.289       11.054       93.293       53.133      122.198        0.015        0.013        3.876        9.766        6.348      341.180       15.713      859.392
06/12/2013  06:12:00        1.026      -30.258        1.836       23.424       12.041       13.184      548.694      144.982      173.821        0.089        0.043       30.275        5.533        0.033      341.049       15.492      859.433
06/12/2013  06:13:00      -57.462      -27.718       -4.875       54.192       12.974       12.586     2936.789      168.328      158.400        0.368        0.163       63.798       17.949        0.079      340.828       15.120      859.461
06/12/2013  06:14:00     -118.218      -38.676      -19.695       10.754       11.840       11.125      115.659      140.191      123.766        0.812        0.019      124.384        5.917        0.002      340.828       15.119      859.457
06/12/2013  06:15:00     -131.027      -48.150      -12.473       19.448       18.207       15.468      378.238      331.502      239.251        1.030        0.047      139.594        5.478        0.002      340.741       14.970      859.465
06/12/2013  06:16:00     -141.069      -81.848      -14.276       42.881       39.811       23.646     1838.798     1584.900      559.133        1.539        0.199      163.094       20.014        0.015      340.717       14.931      859.470
06/12/2013  06:17:00     -154.740      -68.855       -3.797       40.534       30.979       24.146     1643.033      959.702      583.048        1.594        0.159      169.368       23.068        0.019      340.752       14.988      859.489
06/12/2013  06:18:00      -89.100      -74.021       -0.519       58.874       34.818       24.729     3466.203     1212.270      611.541        0.935        0.265      115.836       24.576        0.045      340.821       15.106      859.495
06/12/2013  06:19:00      -95.437      -88.696        0.634       57.671       39.306       28.939     3325.982     1544.953      837.438        1.134        0.285      130.289       33.621        0.067      340.820       15.105      859.501
06/12/2013  06:20:00     -104.084      -76.883       -2.840       44.138       32.146       26.692     1948.151     1033.348      712.444        1.022        0.185      129.400       26.137        0.041      340.791       15.057      859.498
06/12/2013  06:21:00     -110.646      -52.025       -0.495       24.877       32.243       18.933      618.843     1039.599      358.442        0.848        0.101      122.266       16.960        0.019      340.817       15.100      859.492
06/12/2013  06:22:00      -72.813      -29.727       -9.197       32.592       27.191       15.637     1062.209      739.342      244.512        0.416        0.102       78.648       13.020        0.027      340.899       15.238      859.471
06/12/2013  06:23:00       -4.532      -15.553       19.269       19.071       29.890       16.429      363.697      893.392      269.906        0.108        0.076       16.200       12.832        0.627      341.018       15.439      859.485
06/12/2013  06:24:00      -89.998      -40.596       -5.097       61.036       43.422       24.252     3725.370     1885.451      588.181        0.799        0.310       98.731       31.691        0.103      341.079       15.544      859.527
06/12/2013  06:25:00      -89.202      -58.938       -1.918       33.335       23.927       17.452     1111.217      572.488      304.586        0.671        0.099      106.914       16.334        0.023      340.986       15.384      859.554
06/12/2013  06:26:00      -65.493      -36.844        4.909       26.125       27.323       16.919      682.529      746.542      286.262        0.369        0.086       75.146       16.070        0.046      341.019       15.442      859.522
06/12/2013  06:27:00        1.085        5.431       16.611       37.543       28.402       22.776     1409.502      806.695      518.725        0.152        0.137        5.538       21.752       15.426      341.151       15.665      859.486
06/12/2013  06:28:00      -71.927       19.447       -8.422       30.849       24.444       18.086      951.685      597.532      327.121        0.375        0.094       74.510       14.427        0.037      341.466       16.198      859.452
06/12/2013  06:29:00      -63.593      -34.143       -2.076       32.551       21.119       16.364     1059.536      446.010      267.783        0.349        0.089       72.179       16.053        0.049      341.396       16.079      859.486
06/12/2013  06:30:00     -107.734      -37.289       -7.795       38.000       44.124       26.372     1444.009     1946.915      695.464        0.857        0.204      114.005       21.312        0.035      341.110       15.595      859.517
06/12/2013  06:31:00      -20.516       35.615       22.543       50.778       43.600       26.114     2578.418     1900.931      681.958        0.368        0.258       41.102       16.419        0.160      341.230       15.798      859.533
06/12/2013  06:32:00      -65.783       42.917        9.873       39.480       42.488       28.861     1558.707     1805.272      832.930        0.523        0.210       78.545       24.232        0.095      341.326       15.961      859.513
06/12/2013  06:33:00     -126.843       63.271      -13.832       46.748       38.173       30.540     2185.334     1457.185      932.716        1.243        0.229      141.747       17.745        0.016      341.349       16.000      859.463
06/12/2013  06:34:00     -138.374       43.766      -10.860       43.075       42.696       27.286     1855.459     1822.968      744.543        1.280        0.221      145.130       22.189        0.023      341.469       16.203      859.443
06/12/2013  06:35:00      -93.688      -49.303       -1.243       51.871       28.954       27.085     2690.576      838.327      733.600        0.774        0.213      105.869       22.676        0.046      341.326       15.961      859.489
06/12/2013  06:36:00     -144.732      -27.559      -17.457       25.968       29.626       18.915      674.330      877.685      357.791        1.196        0.095      147.333       15.103        0.011      341.244       15.821      859.566
06/12/2013  06:37:00      -88.641      -21.084       -4.498       41.352       31.179       19.162     1710.007      972.102      367.166        0.569        0.152       91.114       23.664        0.067      341.484       16.228      859.585
06/12/2013  06:38:00      -74.909       -3.125      -11.976       47.465       34.734       15.580     2252.930     1206.423      242.729        0.473        0.185       74.974       13.913        0.034      341.442       16.157      859.532
06/12/2013  06:39:00      -74.257       42.541      -17.129       25.288       21.953       16.437      639.459      481.932      270.162        0.450        0.070       85.580       11.077        0.017      341.829       16.814      859.455
06/12/2013  06:40:00      -52.774        1.177       -8.689       28.760       52.589       22.778      827.161     2765.632      518.815        0.349        0.206       52.787       28.297        0.287      341.997       17.099      859.442
06/12/2013  06:41:00        4.466      -20.914        2.420       15.601       17.502       16.232      243.384      306.329      263.462        0.064        0.041       21.385        4.781        0.050      341.894       16.923      859.483
06/12/2013  06:42:00      -73.867      -18.911       -9.089       51.371       23.977       16.100     2639.013      574.896      259.200        0.468        0.174       76.250       17.486        0.053      341.622       16.461      859.515
06/12/2013  06:43:00      -81.563      -15.084       -8.509       35.293       17.713       17.145     1245.614      313.735      293.940        0.440        0.093       82.947       15.657        0.036      341.650       16.510      859.513
06/12/2013  06:44:00      -61.688      -39.901       -3.667       27.001       29.292       19.147      729.061      858.044      366.616        0.368        0.098       73.468       14.800        0.041      341.788       16.744      859.505
06/12/2013  06:45:00      -46.797      -33.943        7.165       30.080       30.869       17.652      904.809      952.918      311.605        0.278        0.108       57.811       15.427        0.071      341.894       16.924      859.511
06/12/2013  06:46:00      -83.270      -26.171       -5.446       21.270       20.144       13.254      452.409      405.794      175.663        0.434        0.052       87.286        8.342        0.009      341.863       16.872      859.513
06/12/2013  06:47:00      -52.285      -32.782       -5.009       18.749       20.810       15.895      351.521      433.069      252.650        0.244        0.052       61.712       14.173        0.053      341.955       17.028      859.516
06/12/2013  06:48:00      -52.970      -22.151       -1.641       24.949       23.322       14.381      622.446      543.933      206.822        0.234        0.069       57.415       12.709        0.049      341.963       17.041      859.509
06/12/2013  06:49:00      -55.404      -25.374       -7.129       22.203        9.314       11.694      492.982       86.757      136.750        0.224        0.036       60.939        9.255        0.023      341.989       17.086      859.496
06/12/2013  06:50:00       -3.656      -21.680        9.716       20.141       17.367       16.620      405.651      301.616      276.225        0.078        0.049       21.986       15.601        0.504      342.203       17.449      859.495
06/12/2013  06:51:00      -11.968      -19.450        5.271       10.952       10.273        9.098      119.951      105.542       82.774        0.043        0.015       22.837        6.603        0.084      342.179       17.407      859.500
06/12/2013  06:52:00       -4.768      -22.711        0.254       21.930       14.563       17.098      480.945      212.085      292.331        0.076        0.049       23.206       11.916        0.264      342.205       17.452      859.540
06/12/2013  06:53:00        1.278       -2.347       17.641       30.000       20.141       16.614      899.980      405.664      276.035        0.095        0.079        2.672       17.081       40.867      342.408       17.798      859.566
06/12/2013  06:54:00       -3.791        2.892       22.984       10.190        8.491       11.031      103.828       72.100      121.675        0.042        0.015        4.768        6.063        1.617      342.942       18.704      859.562
06/12/2013  06:55:00       -9.133        5.378       16.593       13.375       13.289       12.052      178.886      176.603      145.250        0.044        0.025       10.599        8.176        0.595      342.704       18.299      859.526
06/12/2013  06:56:00      -11.592      -12.733        4.820       10.231       14.162        9.664      104.673      200.576       93.384        0.036        0.020       17.219        6.187        0.129      342.531       18.007      859.502
06/12/2013  06:57:00      -66.888      -31.506       -4.866       25.515        9.332        9.640      651.035       87.094       92.930        0.316        0.042       73.937       10.543        0.020      342.297       17.609      859.514
06/12/2013  06:58:00      -52.463      -25.995        4.898       39.322       14.663       11.435     1546.204      215.008      130.753        0.267        0.095       58.550       16.941        0.084      342.495       17.945      859.531
06/12/2013  06:59:00        0.520      -13.567       15.954       10.678       12.771       12.638      114.021      163.098      159.713        0.044        0.022       13.577        7.925        0.341      342.787       18.443      859.541
06/12/2013  07:00:00      -16.324       -5.695        0.097       21.761       15.370       12.332      473.543      236.236      152.080        0.058        0.043       17.289        3.583        0.043      342.566       18.067      859.522
06/12/2013  07:01:00      -19.497      -28.200       -3.236       18.133       20.603       17.785      328.808      424.473      316.307        0.113        0.053       34.284        3.571        0.011      342.407       17.794      859.488
06/12/2013  07:02:00        8.425      -53.574      -13.830       22.533       26.519       16.961      507.758      703.252      287.669        0.232        0.075       54.233        8.934        0.027      342.403       17.788      859.486
06/12/2013  07:03:00       26.604      -29.824       10.732       27.324       25.173       20.672      746.574      633.686      427.334        0.176        0.090       39.965       21.663        0.294      342.551       18.041      859.499
06/12/2013  07:04:00       14.755      -12.459        0.470       21.338       20.032       19.573      455.289      401.273      383.117        0.081        0.062       19.311        8.891        0.212      342.604       18.128      859.514
06/12/2013  07:05:00       56.431      -25.827       12.580       44.380       32.619       23.373     1969.580     1063.968      546.319        0.379        0.179       62.060       14.423        0.054      342.458       17.882      859.532
06/12/2013  07:06:00       26.676      -11.666        5.638       30.484       23.788       26.490      929.272      565.872      701.725        0.154        0.110       29.116       14.598        0.251      342.485       17.930      859.517
06/12/2013  07:07:00       26.944       16.192       17.744       28.589       23.128       22.705      817.323      534.888      515.512        0.158        0.093       31.435       13.098        0.174      342.668       18.240      859.459
06/12/2013  07:08:00       30.162        8.602       10.065       16.571       23.195       15.516      274.599      538.018      240.762        0.107        0.053       31.365        8.929        0.081      342.692       18.280      859.414
06/12/2013  07:09:00       25.904       -0.545       13.343       20.577       16.903       14.865      423.400      285.699      220.960        0.089        0.047       25.910        8.790        0.115      343.085       18.948      859.423
06/12/2013  07:10:00       -6.136        7.842       14.390       13.380       20.596       14.841      179.036      424.179      220.246        0.056        0.041        9.957       12.653        1.615      343.131       19.027      859.473
06/12/2013  07:11:00       38.769      -24.585        9.329       37.722       28.197       25.806     1422.956      795.086      665.927        0.254        0.144       45.907       21.116        0.212      342.658       18.222      859.495
06/12/2013  07:12:00       -6.348      -14.793       14.110       35.283       28.829       24.507     1244.857      831.121      600.617        0.157        0.134       16.098       10.385        0.416      342.676       18.252      859.470
06/12/2013  07:13:00        6.424       -2.716       27.944       29.753       26.298       19.870      885.226      691.564      394.818        0.140        0.099        6.974       15.164        4.727      343.019       18.837      859.428
06/12/2013  07:14:00       40.366       -6.036       12.899       27.147       25.782       23.080      736.945      664.734      532.669        0.188        0.097       40.815       15.899        0.152      342.723       18.332      859.417
06/12/2013  07:15:00       26.129      -26.230       19.514       30.133       29.601       28.791      907.988      876.203      828.938        0.218        0.131       37.023       15.877        0.184      342.802       18.467      859.442
06/12/2013  07:16:00       48.631      -21.994        6.698       15.510       18.814       22.894      240.562      353.949      524.133        0.201        0.056       53.373        9.061        0.029      342.589       18.105      859.454
06/12/2013  07:17:00       38.317      -19.254       21.180       34.662       25.661       26.585     1201.432      658.510      706.753        0.243        0.128       42.883       18.157        0.179      342.803       18.470      859.448
06/12/2013  07:18:00       11.778      -30.078        5.322       27.417       23.691       27.098      751.687      561.247      734.288        0.156        0.102       32.302       22.276        0.476      342.944       18.710      859.451
06/12/2013  07:19:00       -0.530      -26.151       11.193       17.030       19.114       16.994      290.025      365.341      288.796        0.088        0.047       26.156        6.173        0.056      342.931       18.685      859.446
06/12/2013  07:20:00       -3.044      -21.508        3.494       14.685       23.155       25.903      215.656      536.131      670.986        0.095        0.071       21.722       18.501        0.725      342.977       18.766      859.416
06/12/2013  07:21:00       32.396        9.324       14.088       21.645       25.701       21.061      468.488      660.535      443.572        0.145        0.079       33.711       16.977        0.254      342.937       18.696      859.353
06/12/2013  07:22:00       10.376      -11.877       25.644       18.702       26.057       17.683      349.783      678.965      312.674        0.112        0.067       15.771       13.539        0.737      343.057       18.901      859.347
06/12/2013  07:23:00       54.074      -66.365       -3.998       32.695       37.719       35.475     1068.984     1422.736     1258.481        0.555        0.188       85.606       29.046        0.115      342.697       18.288      859.390
06/12/2013  07:24:00        9.257       -7.282        4.205       19.584       28.034       27.204      383.539      785.893      740.079        0.103        0.095       11.778       20.310        2.974      343.200       19.145      859.413
06/12/2013  07:25:00        0.937        1.173       23.380       18.302       16.464       18.312      334.971      271.076      335.317        0.074        0.047        1.501       11.524       58.956      343.788       20.147      859.402
06/12/2013  07:26:00       16.743       -3.171       17.762       24.849       25.498       17.015      617.479      650.143      289.503        0.108        0.078       17.041       16.680        0.958      343.646       19.905      859.408
06/12/2013  07:27:00       21.226      -12.535        4.303       17.669       28.943       19.127      312.199      837.672      365.824        0.107        0.076       24.650        7.361        0.089      343.033       18.859      859.427
06/12/2013  07:28:00      -14.228        8.044       26.925       13.413       17.508       15.769      179.916      306.542      248.663        0.086        0.037       16.345        7.398        0.205      343.779       20.132      859.402
06/12/2013  07:29:00        6.142       20.401       12.457       15.033       17.664       16.504      226.002      312.004      272.372        0.071        0.041       21.305        5.577        0.069      343.515       19.681      859.368
06/12/2013  07:30:00       13.493       -5.277       23.285       26.007       18.826       19.166      676.384      354.431      367.323        0.107        0.070       14.488        7.403        0.261      343.652       19.915      859.368
06/12/2013  07:31:00       39.452      -41.108       10.266       30.399       23.459       32.578      924.107      550.327     1061.302        0.294        0.127       56.976       21.576        0.143      342.903       18.639      859.380
06/12/2013  07:32:00       25.866      -21.184       18.096       29.466       22.532       27.141      868.252      507.705      736.642        0.178        0.106       33.433       14.259        0.182      343.258       19.244      859.401
06/12/2013  07:33:00       23.002       -4.838       34.870       25.940       19.789       17.993      672.877      391.620      323.734        0.158        0.069       23.505       14.538        0.383      343.968       20.457      859.433
06/12/2013  07:34:00       -5.257        8.884       40.406       27.769       29.512       16.230      771.103      870.940      263.412        0.182        0.095       10.322       11.101        1.156      343.832       20.221      859.447
06/12/2013  07:35:00       37.564       -3.262       34.436       38.149       27.496       29.149     1455.329      756.038      849.671        0.283        0.153       37.705       25.762        0.467      343.503       19.663      859.438
06/12/2013  07:36:00       57.754      -22.756       13.310       31.410       19.341       28.508      986.617      374.093      812.720        0.310        0.109       62.076       21.249        0.117      343.453       19.576      859.416
06/12/2013  07:37:00       13.391        0.315       19.482       32.304       19.312       28.122     1043.542      372.962      790.868        0.138        0.110       13.395       14.708        1.206      343.649       19.908      859.401
06/12/2013  07:38:00       24.344      -13.609       15.215       30.771       30.446       29.464      946.827      926.963      868.149        0.188        0.137       27.889       19.550        0.491      343.501       19.658      859.398
06/12/2013  07:39:00       -0.355        4.793       37.104       20.235       29.303       22.251      409.442      858.671      495.124        0.158        0.088        4.806       16.802       12.224      344.002       20.513      859.386
06/12/2013  07:40:00       -8.372        8.264       11.981       17.291       24.571       17.779      298.981      603.740      316.088        0.075        0.061       11.764       10.931        0.863      343.603       19.830      859.397
06/12/2013  07:41:00       -7.351       17.377       27.891       19.748       27.442       15.294      389.983      753.065      233.893        0.126        0.069       18.868       15.494        0.674      343.955       20.432      859.402
06/12/2013  07:42:00        7.501       -3.024       41.883       19.609       28.381       16.639      384.529      805.464      276.843        0.164        0.073        8.088        9.518        1.385      344.169       20.798      859.389
06/12/2013  07:43:00       12.704       27.741       56.575       29.168       32.205       23.753      850.776     1037.137      564.227        0.329        0.123       30.512       18.573        0.371      343.884       20.311      859.377
06/12/2013  07:44:00       63.947       53.384       35.870       49.837       41.104       36.118     2483.769     1689.572     1304.517        0.685        0.274       83.301       24.825        0.089      343.826       20.211      859.380
06/12/2013  07:45:00      133.829       75.312       22.194       31.793       18.208       26.370     1010.771      331.537      695.365        1.306        0.102      153.565        5.683        0.001      343.472       19.607      859.376
06/12/2013  07:46:00       43.218       31.694       12.312       49.230       39.345       23.293     2423.636     1548.002      542.551        0.377        0.226       53.594       21.847        0.166      343.840       20.236      859.380
06/12/2013  07:47:00       36.941       40.130       16.995       36.405       24.078       24.312     1325.342      579.744      591.071        0.288        0.125       54.544       18.417        0.114      344.019       20.542      859.378
06/12/2013  07:48:00       33.170       39.422       36.318       36.274       28.805       25.126     1315.800      829.756      631.323        0.337        0.139       51.520        9.407        0.033      344.152       20.767      859.341
06/12/2013  07:49:00       36.022       49.086       49.830       37.883       24.579       29.512     1435.108      604.104      870.957        0.455        0.146       60.885       27.569        0.205      343.961       20.441      859.310
06/12/2013  07:50:00       37.952       22.158       32.019       28.831       42.736       26.934      831.246     1826.352      725.459        0.317        0.169       43.947       27.367        0.388      343.646       19.904      859.310
06/12/2013  07:51:00       28.289       14.093       -0.318       30.837       16.965       21.479      950.926      287.800      461.356        0.135        0.085       31.605       16.983        0.289      344.061       20.614      859.320
06/12/2013  07:52:00       78.695       61.524        3.962       31.317       28.551       23.505      980.762      815.140      552.469        0.617        0.117       99.891       13.844        0.019      343.627       19.874      859.313
06/12/2013  07:53:00       93.798       72.380       10.458       17.918       15.331       16.523      321.038      235.034      273.009        0.749        0.041      118.477        9.810        0.007      343.443       19.558      859.319
06/12/2013  07:54:00       48.760       51.796       21.669       25.033       25.106       32.579      626.675      630.295     1061.387        0.392        0.116       71.137       20.092        0.080      343.669       19.945      859.339
06/12/2013  07:55:00       84.048       65.896       48.685       54.554       28.815       32.372     2976.141      830.332     1047.976        0.931        0.243      106.801       34.796        0.106      343.809       20.183      859.325
06/12/2013  07:56:00       98.492       77.931       39.559       51.877       43.118       44.023     2691.242     1859.123     1937.983        1.191        0.324      125.595       35.962        0.082      343.730       20.048      859.289
06/12/2013  07:57:00       79.631       35.399        8.569       73.067       34.001       35.361     5338.766     1156.052     1250.430        0.770        0.387       87.145       38.506        0.195      343.862       20.273      859.297
06/12/2013  07:58:00      102.781       73.603       33.260       55.300       40.870       41.494     3058.102     1670.359     1721.775        1.177        0.323      126.417       31.515        0.062      343.865       20.278      859.302
06/12/2013  07:59:00       49.027       53.180       36.258       45.531       53.667       31.997     2073.055     2880.143     1023.821        0.626        0.299       72.330       16.689        0.053      344.078       20.641      859.312
06/12/2013  08:00:00       20.720      -15.227       37.015       28.361       38.936       17.387      804.334     1515.992      302.309        0.233        0.131       25.714       14.462        0.316      344.057       20.606      859.321
06/12/2013  08:01:00      -10.572       -3.216       35.750       16.193       24.856       18.424      262.228      617.796      339.438        0.131        0.061       11.050       15.973        2.090      344.273       20.977      859.330
06/12/2013  08:02:00       38.562       35.799       31.848       35.803       23.038       27.571     1281.846      530.740      760.180        0.318        0.129       52.618       26.731        0.258      344.014       20.533      859.327
06/12/2013  08:03:00       61.403       43.839       15.626       26.534       24.879       28.751      704.065      618.948      826.639        0.404        0.107       75.446       12.056        0.026      343.907       20.350      859.284
06/12/2013  08:04:00      102.499       63.062        7.183       23.060       18.619       29.820      531.759      346.656      889.226        0.815        0.088      120.345       18.708        0.024      343.652       19.916      859.261
06/12/2013  08:05:00       91.799       47.845       12.751       28.204       28.723       32.244      795.463      825.002     1039.684        0.677        0.133      103.519       19.868        0.037      343.793       20.155      859.266
06/12/2013  08:06:00       75.291       65.330        8.563       31.903       27.433       28.397     1017.781      752.569      806.397        0.629        0.129       99.684       12.509        0.016      343.791       20.151      859.268
06/12/2013  08:07:00       62.242       37.401        2.182       17.540       17.506       19.156      307.654      306.451      366.936        0.313        0.049       72.615       12.746        0.031      343.848       20.248      859.280
06/12/2013  08:08:00       44.942       22.834        0.743       23.265       20.016       18.766      541.279      400.649      352.151        0.192        0.065       50.410       13.058        0.067      343.828       20.215      859.301
06/12/2013  08:09:00       12.278       12.132       35.321       25.442       14.951       19.486      647.272      223.546      379.702        0.140        0.063       17.260       13.477        0.610      344.893       22.036      859.355
06/12/2013  08:10:00       45.063       34.600       31.358       57.980       39.097       25.610     3361.635     1528.596      655.893        0.488        0.277       56.814       24.142        0.181      344.645       21.612      859.365
06/12/2013  08:11:00      142.453      110.729       16.586       19.401       16.031       18.704      376.390      256.983      349.856        1.691        0.049      180.427        5.915        0.001      343.561       19.761      859.301
06/12/2013  08:12:00       44.680       37.666       17.259       50.839       27.504       27.111     2584.616      756.446      735.018        0.389        0.204       58.438       30.010        0.264      344.073       20.632      859.263
06/12/2013  08:13:00       26.216       35.908        8.477       17.274       21.628       19.383      298.406      467.753      375.694        0.159        0.057       44.460       10.680        0.058      344.243       20.924      859.293
06/12/2013  08:14:00        5.635        3.492       25.745       21.566       33.601       23.805      465.073     1129.027      566.672        0.143        0.108        6.630       18.435        7.732      344.962       22.155      859.297
06/12/2013  08:15:00       77.098       78.353       55.944       58.563       36.422       42.762     3429.603     1326.539     1828.569        1.090        0.329      109.924       33.022        0.090      344.388       21.172      859.274
06/12/2013  08:16:00      136.998       81.350       17.145       32.739       35.468       33.644     1071.819     1257.984     1131.925        1.457        0.173      159.331       15.964        0.010      343.911       20.355      859.290
06/12/2013  08:17:00      113.086       77.590       32.787       40.695       27.103       29.165     1656.049      734.595      850.600        1.156        0.162      137.145       12.519        0.008      343.912       20.358      859.294
06/12/2013  08:18:00      134.537       77.271       19.275       32.778       25.147       22.550     1074.393      632.358      508.520        1.333        0.111      155.149       19.002        0.015      343.844       20.242      859.262
06/12/2013  08:19:00      112.625       70.146        1.658       34.461       31.088       31.422     1187.536      966.449      987.338        1.037        0.157      132.683       22.880        0.030      343.917       20.367      859.218
06/12/2013  08:20:00       63.631       46.576       -3.024       34.921       28.055       28.789     1219.446      787.070      828.823        0.453        0.142       78.856       15.611        0.039      344.085       20.656      859.189
06/12/2013  08:21:00      114.411       70.672       25.209       40.449       30.750       37.148     1636.128      945.560     1379.974        1.134        0.198      134.478       32.121        0.057      344.066       20.620      859.241
06/12/2013  08:22:00       58.146       66.634       -6.660       39.280       21.688       26.782     1542.937      470.366      717.301        0.530        0.137       88.437       16.915        0.037      344.038       20.574      859.306
06/12/2013  08:23:00       15.272       59.156        5.978       33.541       35.263       31.664     1124.979     1243.448     1002.628        0.357        0.169       61.096       29.583        0.234      344.377       21.153      859.321
06/12/2013  08:24:00       21.585       77.317        3.355       40.584       49.266       35.230     1647.065     2427.155     1241.160        0.588        0.266       80.274       31.788        0.157      344.493       21.351      859.276
06/12/2013  08:25:00      103.413       80.868        5.056       62.399       42.774       36.266     3893.650     1829.622     1315.242        1.215        0.352      131.278       24.871        0.036      344.317       21.050      859.224
06/12/2013  08:26:00      131.549       85.050       25.718       44.965       28.544       30.282     2021.825      814.747      916.970        1.448        0.188      156.648       21.270        0.018      344.132       20.733      859.217
06/12/2013  08:27:00      128.805       46.630       17.246       41.227       35.768       39.286     1699.671     1279.322     1543.429        1.179        0.226      136.986       23.762        0.030      344.135       20.741      859.271
06/12/2013  08:28:00       32.593       20.946       24.738       31.259       31.841       39.687      977.121     1013.871     1575.024        0.284        0.178       38.743       23.325        0.362      344.751       21.793      859.317
06/12/2013  08:29:00       14.520       25.623       53.705       30.746       42.703       25.113      945.304     1823.504      630.686        0.357        0.170       29.451       24.588        0.697      344.935       22.106      859.301
06/12/2013  08:30:00       42.587       48.139       54.725       46.508       39.093       30.399     2163.021     1528.234      924.116        0.587        0.231       64.273       26.282        0.167      344.643       21.609      859.242
06/12/2013  08:31:00       27.972       61.830       52.786       37.629       38.277       30.525     1415.938     1465.124      931.757        0.560        0.191       67.863       26.644        0.154      344.671       21.653      859.200
06/12/2013  08:32:00       44.450       35.971       36.842       61.861       46.511       42.534     3826.724     2163.236     1809.178        0.621        0.390       57.182       20.766        0.132      344.843       21.951      859.224
06/12/2013  08:33:00       27.544       81.645       10.932       49.243       44.267       33.465     2424.920     1959.611     1119.935        0.652        0.275       86.166       27.629        0.103      344.740       21.773      859.258
06/12/2013  08:34:00       83.316       61.429       -2.205       34.857       36.736       28.613     1214.986     1349.500      818.728        0.705        0.169      103.514       23.148        0.050      344.350       21.107      859.274
06/12/2013  08:35:00       45.245       38.462        9.254       32.222       37.776       28.442     1038.229     1426.994      808.950        0.344        0.164       59.384       25.918        0.190      344.605       21.542      859.277
06/12/2013  08:36:00       68.971       33.332        6.176       31.258       24.532       25.161      977.049      601.840      633.092        0.406        0.111       76.603       11.115        0.021      344.426       21.235      859.275
06/12/2013  08:37:00       80.806       42.709       32.552       64.175       40.658       39.953     4118.431     1653.093     1596.213        0.839        0.368       91.399       40.657        0.198      344.592       21.521      859.277
06/12/2013  08:38:00      112.742       68.091       20.161       34.956       41.744       30.640     1221.955     1742.587      938.798        1.083        0.195      131.708       14.941        0.013      344.424       21.233      859.271
06/12/2013  08:39:00       82.386       40.520       10.654       40.953       29.828       22.806     1677.143      889.715      520.123        0.581        0.154       91.812       21.250        0.054      344.485       21.338      859.243
06/12/2013  08:40:00      140.852       99.107       26.596       67.876       45.609       35.020     4607.189     2080.203     1226.367        1.914        0.396      172.225       15.926        0.009      344.562       21.468      859.203
06/12/2013  08:41:00      103.262       91.950       21.144       70.536       37.185       38.439     4975.368     1382.725     1477.546        1.370        0.392      138.267       21.423        0.024      344.626       21.577      859.202
06/12/2013  08:42:00       43.229       81.437       60.592       47.813       56.785       53.750     2286.115     3224.485     2889.104        1.028        0.420       92.199       43.378        0.221      344.658       21.634      859.215
06/12/2013  08:43:00        1.416      -24.545       30.826       26.400       34.839       23.128      696.941     1213.739      534.921        0.200        0.122       24.586       18.679        0.577      345.038       22.284      859.232
06/12/2013  08:44:00       78.966       71.154       23.637       42.926       32.048       30.992     1842.631     1027.056      960.530        0.784        0.192      106.295       19.890        0.035      344.776       21.836      859.230
06/12/2013  08:45:00       64.379        6.597       56.416       64.992       67.447       49.901     4223.979     4549.122     2490.138        0.931        0.563       64.716       50.275        0.604      344.898       22.043      859.235
06/12/2013  08:46:00      207.350      108.139       57.468       96.714       62.190       74.117     9353.579     3867.591     5493.357        3.835        0.936      233.855       57.283        0.060      344.575       21.487      859.194
06/12/2013  08:47:00      149.088       96.225       32.092       77.067       63.731       51.384     5939.306     4061.693     2640.326        2.258        0.632      177.445       48.437        0.075      344.794       21.863      859.156
06/12/2013  08:48:00       20.669       42.633       65.167       46.183       49.410       33.048     2132.894     2441.349     1092.199        0.608        0.283       47.379       34.684        0.536      345.101       22.390      859.188
06/12/2013  08:49:00       39.435      -46.447       33.684       47.021       63.512       46.037     2210.963     4033.801     2119.439        0.660        0.418       60.930       28.884        0.225      345.057       22.315      859.225
06/12/2013  08:50:00       39.206       36.088       60.136       33.616       51.340       26.685     1130.066     2635.745      712.090        0.547        0.224       53.287       18.094        0.115      345.020       22.252      859.248
06/12/2013  08:51:00       15.830       -5.115       48.261       38.218       58.426       32.373     1460.580     3413.650     1048.012        0.426        0.296       16.636       25.555        2.360      345.421       22.937      859.223
06/12/2013  08:52:00       45.900       59.183       69.434       47.573       36.467       33.392     2263.143     1329.852     1115.010        0.757        0.235       74.897       26.703        0.127      345.131       22.443      859.211
06/12/2013  08:53:00       39.484       27.453       12.213       32.361       32.250       21.108     1047.226     1040.061      445.535        0.250        0.127       48.090       18.881        0.154      345.008       22.232      859.225
06/12/2013  08:54:00       15.213       38.083        0.963       23.340       31.564       31.326      544.757      996.261      981.346        0.210        0.126       41.009       24.258        0.350      345.106       22.400      859.225
06/12/2013  08:55:00       20.123       88.295       -3.805       46.373       59.031       24.991     2150.476     3484.688      624.545        0.724        0.313       90.559       22.783        0.063      344.798       21.873      859.176
06/12/2013  08:56:00       38.768       15.961       -9.089       36.229       28.947       29.109     1312.520      837.936      847.354        0.242        0.150       41.926       28.105        0.449      344.792       21.865      859.155
06/12/2013  08:57:00        3.141      -12.408       18.439       17.366       25.063       21.148      301.575      628.154      447.250        0.094        0.069       12.799       18.648        2.123      345.578       23.210      859.175
06/12/2013  08:58:00      -20.568      -18.737       10.265       20.514       25.175       21.238      420.836      633.756      451.046        0.119        0.075       27.823       14.921        0.288      345.289       22.716      859.181
06/12/2013  08:59:00      -33.961       -1.290        3.022       19.159       27.071       22.625      367.082      732.856      511.884        0.139        0.081       33.985       16.430        0.234      345.225       22.604      859.177
06/12/2013  09:00:00      -11.490        4.582       56.734       31.723       57.989       33.354     1006.335     3362.743     1112.467        0.443        0.274       12.370       26.189        4.482      345.425       22.946      859.154
06/12/2013  09:01:00       30.060      -61.985       29.523       40.200       66.389       42.492     1616.002     4407.493     1805.561        0.672        0.391       68.889       41.232        0.358      345.260       22.664      859.158
06/12/2013  09:02:00       32.860        3.424       37.003       34.691       25.484       33.985     1203.475      649.424     1155.004        0.273        0.150       33.038       17.201        0.271      345.365       22.845      859.172
06/12/2013  09:03:00      -21.089        3.842       17.185       15.408       14.623       18.181      237.395      213.844      330.555        0.077        0.039       21.436       13.160        0.377      345.295       22.724      859.175
06/12/2013  09:04:00      -18.455       28.292       24.654       29.396       34.147       24.847      864.128     1165.999      617.383        0.220        0.132       33.779       18.352        0.295      345.392       22.890      859.160
06/12/2013  09:05:00        6.361      -15.962       52.551       44.163       71.238       38.650     1950.407     5074.855     1493.810        0.579        0.426       17.183       35.216        4.200      345.591       23.233      859.170
06/12/2013  09:06:00       12.067       26.242       63.060       38.251       48.228       28.211     1463.148     2325.952      795.844        0.470        0.229       28.883       25.628        0.787      345.449       22.988      859.195
06/12/2013  09:07:00       15.030       27.405       50.200       39.534       28.719       29.572     1562.898      824.769      874.497        0.338        0.163       31.256       27.875        0.795      345.409       22.919      859.241
06/12/2013  09:08:00      -33.575       23.729       -0.007       32.302       20.467       31.145     1043.407      418.907      970.029        0.206        0.122       41.114       28.770        0.490      345.195       22.555      859.236
06/12/2013  09:09:00       39.500       51.529       12.045       30.968       26.495       27.048      958.997      701.975      731.594        0.338        0.120       64.927       14.005        0.047      344.935       22.107      859.210
06/12/2013  09:10:00       51.982       80.525        7.580       47.433       63.369       34.960     2249.867     4015.628     1222.184        0.836        0.374       95.846       33.727        0.124      345.202       22.565      859.178
06/12/2013  09:11:00       23.508      105.713       -7.400       38.577       48.696       29.789     1488.205     2371.308      887.396        0.826        0.237      108.295       18.418        0.029      345.074       22.344      859.164
06/12/2013  09:12:00       34.906       78.748       10.704       41.191       62.371       39.288     1696.738     3890.102     1543.571        0.733        0.357       86.137       35.749        0.172      345.372       22.855      859.157
06/12/2013  09:13:00       55.677       32.489        8.025       25.723       30.263       33.801      661.668      915.857     1142.480        0.347        0.136       64.463       22.418        0.121      345.077       22.351      859.178
06/12/2013  09:14:00       48.191       62.346       -0.207       35.281       31.205       22.644     1244.741      973.756      512.739        0.447        0.137       78.799       16.787        0.045      345.267       22.677      859.198
06/12/2013  09:15:00        7.823       72.137        8.735       38.847       53.137       30.404     1509.077     2823.551      924.400        0.530        0.263       72.560       23.626        0.106      345.505       23.084      859.199
06/12/2013  09:16:00       51.087       61.711       12.451       51.804       47.032       33.853     2683.668     2212.053     1146.033        0.631        0.302       80.114       25.336        0.100      345.239       22.627      859.177
06/12/2013  09:17:00       60.428       60.313       -2.927       35.730       46.635       34.680     1276.650     2174.810     1202.701        0.598        0.233       85.377       33.037        0.150      345.316       22.760      859.179
06/12/2013  09:18:00       32.157       -8.274       12.942       36.196       30.142       31.908     1310.184      908.521     1018.120        0.225        0.162       33.205       21.577        0.422      345.393       22.892      859.192
06/12/2013  09:19:00       14.210       19.646       34.476       27.635       32.342       26.434      763.716     1045.977      698.749        0.214        0.125       24.246       19.614        0.654      345.656       23.343      859.190
06/12/2013  09:20:00       39.789       28.121       34.226       30.130       25.300       28.306      907.840      640.105      801.208        0.295        0.117       48.724       13.079        0.072      345.487       23.054      859.169
06/12/2013  09:21:00       -4.045       -1.806       29.331       46.645       27.391       24.423     2175.771      750.272      596.476        0.220        0.176        4.430       19.673       19.722      345.466       23.019      859.157
06/12/2013  09:22:00      -41.896      -18.897       15.336       54.812       41.287       29.172     3004.388     1704.620      851.025        0.395        0.278       45.960       29.912        0.424      345.283       22.704      859.165
06/12/2013  09:23:00      -45.752       -5.560       12.732       28.474       30.773       21.184      810.743      946.993      448.753        0.225        0.110       46.089       18.172        0.155      345.147       22.471      859.139
06/12/2013  09:24:00      -35.095       -1.267       -1.905       30.555       24.949       16.331      933.591      622.452      266.708        0.153        0.091       35.118       12.025        0.117      344.970       22.168      859.111
06/12/2013  09:25:00      -81.108      -42.816        8.132       44.924       36.253       24.028     2018.174     1314.293      577.358        0.619        0.195       91.715       23.380        0.065      345.160       22.493      859.085
06/12/2013  09:26:00      -84.007      -61.137        3.349       56.275       39.646       30.428     3166.890     1571.813      925.872        0.823        0.283      103.898       34.104        0.108      345.207       22.574      859.105
06/12/2013  09:27:00     -138.193      -53.176        1.004       55.818       46.919       32.543     3115.644     2201.377     1059.078        1.415        0.319      148.071       32.052        0.047      344.974       22.172      859.100
06/12/2013  09:28:00      -40.166      -57.875       17.140       63.745       41.269       35.997     4063.368     1703.123     1295.761        0.616        0.353       70.447       37.516        0.284      345.416       22.933      859.097
06/12/2013  09:29:00      -83.261       -3.468      -17.691       36.725       27.716       33.248     1348.714      768.174     1105.423        0.524        0.161       83.333       22.773        0.075      344.979       22.181      859.091
06/12/2013  09:30:00      -47.172       27.744        1.212       43.500       45.074       29.134     1892.262     2031.702      848.776        0.388        0.239       54.726       34.171        0.390      345.528       23.124      859.060
06/12/2013  09:31:00        3.566      -23.950        4.704       54.248       45.820       32.827     2942.854     2099.510     1077.612        0.336        0.306       24.214        9.905        0.167      345.477       23.035      859.022
06/12/2013  09:32:00       -9.880       14.932       20.602       19.870       40.638       28.796      394.832     1651.450      829.220        0.181        0.144       17.905       26.215        2.144      345.926       23.807      859.034
06/12/2013  09:33:00      -20.300       30.761       25.683       42.823       24.527       21.321     1833.785      601.558      454.602        0.245        0.144       36.855        9.429        0.065      345.792       23.577      859.105
06/12/2013  09:34:00      -20.000       44.745       -3.874       30.527       28.992       23.087      931.900      840.510      533.026        0.236        0.115       49.012       20.114        0.168      345.702       23.421      859.117
06/12/2013  09:35:00      -19.883       53.427        2.043       28.663       35.587       24.582      821.595     1266.431      604.279        0.297        0.135       57.007       19.021        0.111      345.747       23.499      859.105
06/12/2013  09:36:00      -75.332       22.976        2.502       39.740       30.851       22.973     1579.255      951.791      527.747        0.463        0.153       78.758       19.393        0.061      345.558       23.176      859.050
06/12/2013  09:37:00      -77.917       37.668        5.037       34.112       22.417       24.752     1163.632      502.524      612.658        0.490        0.114       86.545       15.496        0.032      345.293       22.720      859.045
06/12/2013  09:38:00      -56.438        4.358      -17.719       28.452       24.041       20.296      809.532      577.992      411.933        0.266        0.090       56.606       14.589        0.066      345.167       22.505      859.066
06/12/2013  09:39:00       -6.733        4.789       25.942       28.501       44.976       26.209      812.284     2022.797      686.918        0.213        0.176        8.262       22.272        7.266      346.107       24.118      859.074
06/12/2013  09:40:00       71.473      -27.714       27.510       48.161      122.021       66.351     2319.438    14889.021     4402.470        1.412        1.081       76.658       72.683        0.899      345.783       23.560      859.045
06/12/2013  09:41:00        9.582       12.915       37.606       74.874       62.236       38.148     5606.159     3873.335     1455.307        0.630        0.547       16.081       56.333       12.271      345.695       23.409      859.021
06/12/2013  09:42:00      -50.825      -16.096       -5.192       32.404       21.149       14.613     1050.006      447.286      213.532        0.229        0.086       53.313       14.197        0.071      345.637       23.310      859.039
06/12/2013  09:43:00       36.292       52.020       33.376       38.401       49.543       25.592     1474.657     2454.530      654.975        0.486        0.229       63.429       18.088        0.081      346.249       24.360      859.040
06/12/2013  09:44:00       27.423       41.186       36.282       27.850       31.054       26.908      775.648      964.373      724.061        0.311        0.123       49.481       16.281        0.108      346.354       24.542      859.033
06/12/2013  09:45:00       24.578       35.366       64.466       34.233       31.904       26.535     1171.924     1017.874      704.111        0.445        0.145       43.068       13.866        0.104      346.528       24.841      859.028
06/12/2013  09:46:00       70.042       77.835       83.171       51.564       60.353       43.649     2658.882     3642.524     1905.205        1.304        0.410      104.710       41.196        0.155      345.899       23.759      859.006
06/12/2013  09:47:00       -0.367       13.135       60.481       26.589       59.880       27.995      706.984     3585.650      783.727        0.445        0.254       13.140       35.430        7.270      346.457       24.719      858.992
06/12/2013  09:48:00       58.367       -3.287       84.008       98.473       94.929       56.428     9696.976     9011.553     3184.122        1.618        1.095       58.459       72.327        1.531      346.438       24.683      858.986
06/12/2013  09:49:00      -54.809      -56.226       38.093       88.487       77.750       54.673     7830.030     6044.998     2989.137        1.224        0.843       78.520       56.616        0.520      346.181       24.242      858.997
06/12/2013  09:50:00     -105.534      -70.643        6.626       85.922       72.031       50.531     7382.546     5188.404     2553.367        1.564        0.756      126.996       40.530        0.102      345.916       23.787      859.038
06/12/2013  09:51:00      -66.389       -1.732       29.087       63.275       44.875       39.032     4003.759     2013.790     1523.527        0.640        0.377       66.411       38.316        0.333      346.392       24.607      859.040
06/12/2013  09:52:00       19.026     -131.766       15.433      108.573       90.096       59.209    11788.068     8117.238     3505.748        2.068        1.171      133.132       53.603        0.162      346.117       24.132      859.024
06/12/2013  09:53:00       63.122     -104.540       -4.856       80.114       50.320       41.213     6418.247     2532.104     1698.530        1.279        0.532      122.119       30.092        0.061      346.002       23.936      858.959
06/12/2013  09:54:00       26.077      -82.437       11.919       54.579       83.053       43.884     2978.852     6897.843     1925.808        0.971        0.590       86.463       46.657        0.291      346.268       24.393      858.938
06/12/2013  09:55:00      -36.745     -152.731      -17.475       50.821       74.865       27.507     2582.753     5604.790      756.643        1.696        0.447      157.089       19.823        0.016      345.715       23.441      858.932
06/12/2013  09:56:00        2.626      -33.934       23.790       42.482       62.434       45.230     1804.721     3898.007     2045.722        0.473        0.387       34.035       39.360        1.337      346.311       24.468      858.936
06/12/2013  09:57:00     -148.849     -148.386       -7.107       87.178       84.994       35.422     7599.926     7223.944     1254.725        3.015        0.804      210.177       37.050        0.031      345.834       23.645      858.956
06/12/2013  09:58:00     -167.239     -139.336       13.501       87.273       84.557       49.019     7616.600     7149.827     2402.840        3.236        0.858      217.677       50.523        0.054      345.888       23.738      858.958
06/12/2013  09:59:00     -182.664     -154.654      -14.101       84.076       65.467       34.626     7068.704     4285.955     1198.937        3.502        0.628      239.341       28.127        0.014      345.757       23.513      858.960
06/12/2013  10:00:00     -121.643      -96.747       -1.214       96.202       55.912       38.153     9254.765     3126.113     1455.689        1.899        0.692      155.425       51.339        0.109      345.909       23.774      858.958
06/12/2013  10:01:00      -67.866      -98.265        7.533       59.062       72.200       28.731     3488.294     5212.866      825.448        1.192        0.476      119.423       18.835        0.025      345.973       23.887      858.959
06/12/2013  10:02:00       -0.126      -93.657       12.950       75.285      112.007       34.453     5667.875    12545.649     1187.020        1.417        0.970       93.657       43.322        0.214      346.254       24.371      858.977
06/12/2013  10:03:00        8.778     -119.578       14.369      144.959      105.786       52.413    21013.005    11190.620     2747.085        2.476        1.748      119.900       33.209        0.077      346.133       24.160      858.961
06/12/2013  10:04:00     -258.560      -92.076      -17.001       94.705       92.830       44.434     8969.097     8617.381     1974.414        4.759        0.978      274.466       49.076        0.032      345.662       23.351      858.936
06/12/2013  10:05:00     -150.097      -55.810       -4.599       70.551       77.819       29.909     4977.394     6055.751      894.558        1.879        0.596      160.137       30.625        0.037      345.811       23.609      858.906
06/12/2013  10:06:00     -120.247      -97.518        5.340       81.227       84.096       38.950     6597.853     7072.164     1517.124        1.959        0.759      154.820       37.616        0.059      346.061       24.036      858.885
06/12/2013  10:07:00     -117.282     -118.735       24.321      152.350       78.987       60.819    23210.624     6238.999     3698.958        3.079        1.657      166.893       69.124        0.172      346.139       24.170      858.915
06/12/2013  10:08:00     -145.705     -123.417       -6.216       89.235       87.737       45.837     7962.849     7697.840     2101.056        2.713        0.888      190.949       39.709        0.043      346.055       24.026      858.938
06/12/2013  10:09:00       -8.919      -44.193      -11.878       84.999      101.006       40.173     7224.755    10202.201     1613.885        1.060        0.952       45.084       34.020        0.569      346.101       24.107      858.910
06/12/2013  10:10:00       17.971       62.164       65.526       50.475       63.064       66.392     2547.682     3977.028     4407.917        0.970        0.547       64.709       43.715        0.456      346.211       24.295      858.836
06/12/2013  10:11:00      -19.051     -175.384       12.287       68.963      152.809       57.276     4755.934    23350.619     3280.495        3.132        1.569      176.416       69.406        0.155      346.229       24.326      858.828
06/12/2013  10:12:00      -96.789     -140.923      -11.769       53.944       86.492       34.448     2909.992     7480.952     1186.683        2.047        0.579      170.960       22.318        0.017      345.836       23.649      858.845
06/12/2013  10:13:00      -23.354       28.174       55.655       47.050       45.178       39.629     2213.747     2041.084     1570.488        0.513        0.291       36.595       34.799        0.904      346.745       25.215      858.806
06/12/2013  10:14:00      -35.930      -25.643       43.408       48.161       66.580       53.546     2319.460     4432.918     2867.189        0.672        0.481       44.143       50.282        1.298      346.754       25.230      858.830
06/12/2013  10:15:00     -101.614      -88.363        8.883       86.176       76.047       48.506     7426.241     5783.203     2352.808        1.688        0.778      134.661       48.126        0.128      346.519       24.824      858.834
06/12/2013  10:16:00     -108.874      -47.198       16.538      107.219       70.518       56.444    11495.883     4972.822     3185.915        1.700        0.983      118.664       63.497        0.286      346.843       25.383      858.799
06/12/2013  10:17:00      -58.090      -76.710        2.379       76.143       65.126       35.322     5797.811     4241.350     1247.610        1.027        0.564       96.222       35.159        0.134      346.412       24.641      858.777
06/12/2013  10:18:00      -96.973      -72.581        6.935       73.769       62.148       34.447     5441.794     3862.416     1186.624        1.260        0.525      121.127       38.203        0.099      346.473       24.747      858.765
06/12/2013  10:19:00      -12.493      -66.633        5.252       57.619       75.277       32.228     3319.985     5666.625     1038.634        0.732        0.501       67.794       35.387        0.272      346.919       25.513      858.774
06/12/2013  10:20:00      -98.379      -19.297       28.050      121.562       98.407       59.755    14777.432     9683.958     3570.634        1.943        1.402      100.254       58.398        0.339      346.808       25.321      858.782
06/12/2013  10:21:00     -100.408     -209.345      -14.231      100.668      137.300       56.339    10133.946    18851.388     3174.094        4.313        1.608      232.179       46.531        0.040      346.489       24.770      858.788
06/12/2013  10:22:00     -123.561       -0.040        1.473      110.166       64.255       39.952    12136.478     4128.668     1596.158        1.656        0.893      123.561       45.198        0.134      346.475       24.748      858.748
06/12/2013  10:23:00        0.412      -78.446       31.356       64.408       44.816       55.653     4148.423     2008.497     3097.294        0.819        0.463       78.447       45.428        0.335      346.551       24.880      858.724
06/12/2013  10:24:00     -149.901     -129.884        4.305      159.599       88.085       51.054    25471.758     7758.948     2606.537        3.759        1.792      198.344       44.121        0.049      346.602       24.967      858.788
06/12/2013  10:25:00     -218.185     -142.087      -10.304      136.423      104.892       55.184    18611.188    11002.265     3045.315        5.027        1.633      260.372       68.098        0.068      346.464       24.727      858.759
06/12/2013  10:26:00     -236.676     -152.626       -4.249      130.384      108.402       55.274    17000.063    11750.932     3055.240        5.556        1.590      281.621       59.090        0.044      346.453       24.708      858.699
06/12/2013  10:27:00     -241.038     -186.251       -0.862      119.324       88.921       58.440    14238.118     7906.878     3415.186        5.917        1.278      304.613       66.165        0.047      346.536       24.852      858.675
06/12/2013  10:28:00     -106.504     -205.644        5.949       80.625      130.109       53.818     6500.420    16928.400     2896.366        3.999        1.316      231.587       49.739        0.046      346.326       24.490      858.676
06/12/2013  10:29:00      -54.761     -115.695       -9.249       69.334       85.718       50.255     4807.206     7347.525     2525.609        1.557        0.734      128.000       43.508        0.116      346.691       25.121      858.640
06/12/2013  10:30:00      -94.754     -202.785       10.198      136.339      155.882       77.912    18588.340    24299.076     6070.318        4.957        2.448      223.830       74.064        0.109      346.644       25.038      858.694
06/12/2013  10:31:00     -360.853      -69.441       -4.882      187.692      187.799       89.818    35228.382    35268.621     8067.305       10.680        3.928      367.474       99.767        0.074      346.487       24.767      858.657
06/12/2013  10:32:00     -306.132     -235.771       -9.491      156.592      160.701       73.639    24520.924    25824.662     5422.724       10.257        2.788      386.399       66.551        0.030      346.365       24.557      858.684
06/12/2013  10:33:00     -157.891     -274.981       17.324      146.570      126.522       74.692    21482.837    16007.769     5578.893        7.195        2.153      317.087       64.815        0.042      346.258       24.372      858.716
06/12/2013  10:34:00     -169.646     -151.949        1.421      112.692      136.982       62.187    12699.577    18764.003     3867.219        4.359        1.767      227.746       60.620        0.071      346.292       24.433      858.719
06/12/2013  10:35:00     -106.921     -239.152      -11.671      140.327      139.275       70.694    19691.740    19397.558     4997.582        5.642        2.204      261.966       69.883        0.071      346.327       24.492      858.789
06/12/2013  10:36:00     -104.113     -202.486       -3.669      193.459      194.816       85.684    37426.197    37953.284     7341.747        6.727        4.136      227.685       95.230        0.175      346.369       24.565      858.787
06/12/2013  10:37:00       95.739        7.430       73.886      123.217      186.927      112.637    15182.494    34941.824    12687.151        3.873        3.141       96.027      131.100        1.864      346.550       24.875      858.617
06/12/2013  10:38:00     -102.845     -170.640        6.061      174.301      142.553       93.105    30380.742    20321.375     8668.475        4.954        2.969      199.236       59.847        0.090      346.679       25.098      858.597
06/12/2013  10:39:00     -218.354     -205.052       -2.097      193.431      138.065       85.697    37415.394    19061.920     7343.995        7.676        3.191      299.541       97.847        0.107      346.730       25.185      858.636
06/12/2013  10:40:00     -443.056     -298.548       -5.485      220.882      194.456      105.681    48788.997    37812.983    11168.407       19.160        4.889      534.256      110.527        0.043      346.613       24.985      858.576
06/12/2013  10:41:00     -371.499     -299.533      -19.380      213.988      157.774      103.781    45790.695    24892.767    10770.522       15.476        4.073      477.213      101.266        0.045      346.637       25.024      858.562
06/12/2013  10:42:00     -256.503     -175.043        7.587      239.341      197.581      112.877    57284.106    39038.367    12741.297       10.276        5.453      310.538      148.648        0.229      346.677       25.095      858.613
06/12/2013  10:43:00     -254.646     -222.645       16.353      184.967      153.361       87.448    34212.688    23519.682     7647.180        9.002        3.269      338.254       91.294        0.073      346.378       24.579      858.672
06/12/2013  10:44:00     -100.196     -216.230       14.107       96.945      136.208       52.599     9398.386    18552.580     2766.679        4.385        1.536      238.316       48.363        0.041      346.450       24.705      858.628
06/12/2013  10:45:00     -135.144     -339.539        0.407      104.109      153.944       55.048    10838.785    23698.627     3030.246        8.555        1.878      365.445       57.929        0.025      346.262       24.380      858.595
06/12/2013  10:46:00     -113.570     -144.253       -6.372      109.780       91.998       55.948    12051.725     8463.699     3130.173        2.869        1.182      183.595       42.356        0.053      346.546       24.866      858.564
06/12/2013  10:47:00     -182.924     -164.167       -3.675      113.314      125.694       51.461    12840.072    15798.905     2648.222        4.585        1.564      245.789       49.262        0.040      346.631       25.012      858.540
06/12/2013  10:48:00     -364.553      -40.879      -20.319      169.389      116.010       53.981    28692.467    13458.233     2913.989        9.001        2.253      366.838       48.243        0.017      346.734       25.192      858.519
06/12/2013  10:49:00     -366.640     -107.121      -22.550      187.088      195.347       83.772    35001.841    38160.442     7017.714       11.328        4.009      381.969       96.467        0.064      346.627       25.007      858.518
06/12/2013  10:50:00     -353.463      -41.933        0.479      221.619      141.453       92.772    49115.169    20008.837     8606.718       10.220        3.887      355.941       97.189        0.075      346.867       25.419      858.547
06/12/2013  10:51:00     -374.606     -186.760      -12.996      218.365      159.722      104.216    47683.203    25510.992    10860.944       12.970        4.203      418.580       95.115        0.052      346.780       25.271      858.581
06/12/2013  10:52:00     -266.968     -211.156       10.133      188.806      124.998       91.788    35647.590    15624.551     8425.016        8.782        2.985      340.380       92.879        0.074      346.769       25.253      858.602
06/12/2013  10:53:00     -130.991     -155.199       19.222      125.410      116.868       77.685    15727.678    13658.151     6034.996        3.851        1.771      203.089       80.562        0.157      347.031       25.705      858.587
06/12/2013  10:54:00     -241.571     -188.465        7.992      154.544      161.191       99.900    23883.802    25982.462     9979.951        7.688        2.992      306.391       90.568        0.087      346.900       25.477      858.581
06/12/2013  10:55:00     -283.980     -255.550      -13.519      182.687      187.234       82.944    33374.399    35056.497     6879.789       11.071        3.766      382.034      100.072        0.069      346.927       25.524      858.564
06/12/2013  10:56:00     -179.468     -117.427       25.124      207.528      134.357       75.713    43068.043    18051.876     5732.441        5.673        3.343      214.472       86.663        0.163      346.990       25.633      858.590
06/12/2013  10:57:00     -127.655     -175.925        6.262      107.160      121.666       68.129    11483.337    14802.597     4641.600        3.910        1.546      217.360       57.864        0.071      346.704       25.139      858.619
06/12/2013  10:58:00     -127.750     -150.882      -14.603      116.122      151.885       57.727    13484.217    23069.031     3332.436        3.958        1.994      197.700       64.080        0.105      346.554       24.884      858.565
06/12/2013  10:59:00     -264.574      -72.640       -1.908      207.683      131.678       69.033    43132.081    17339.214     4765.555        7.025        3.262      274.365       81.095        0.087      346.993       25.638      858.562
06/12/2013  11:00:00     -317.831     -124.933       14.593      190.325      186.253       79.699    36223.674    34690.143     6351.923        9.704        3.863      341.503       87.827        0.066      346.668       25.078      858.562
06/12/2013  11:01:00     -192.681     -154.399        6.723      137.047      102.068       83.039    18781.746    10417.877     6895.432        4.855        1.805      246.911       85.919        0.121      346.893       25.465      858.551
06/12/2013  11:02:00     -298.730     -169.326       -1.071      234.723      171.368       95.551    55094.800    29366.971     9130.019       10.573        4.680      343.382      114.582        0.111      346.893       25.465      858.538
06/12/2013  11:03:00     -304.964     -127.429        8.593      209.434      184.436       88.859    43862.475    34016.612     7895.850        9.753        4.289      330.516       80.524        0.059      346.971       25.600      858.542
06/12/2013  11:04:00     -306.163     -138.592      -11.037      203.951      136.570       70.040    41596.180    18651.498     4905.577        8.910        3.258      336.070       66.070        0.039      346.812       25.326      858.543
06/12/2013  11:05:00     -375.258     -267.188      -12.158      185.682      201.878       90.482    34477.941    40754.797     8186.961       14.787        4.171      460.660       91.609        0.040      346.683       25.104      858.551
06/12/2013  11:06:00     -327.433     -137.117       -1.065      172.651      188.008       88.412    29808.430    35347.143     7816.657        9.948        3.649      354.983       81.613        0.053      346.689       25.112      858.556
06/12/2013  11:07:00     -300.348     -205.956        0.478      165.566      109.637       70.038    27412.216    12020.322     4905.305        8.847        2.217      364.180       78.701        0.047      346.804       25.312      858.641
06/12/2013  11:08:00     -333.723     -251.550      -16.660      122.135      124.444       69.496    14916.981    15486.421     4829.642       10.507        1.762      417.909       57.575        0.019      346.927       25.524      858.703
06/12/2013  11:09:00     -153.117     -162.109       -0.747      108.609       85.440       57.333    11795.994     7300.013     3287.079        3.605        1.119      222.989       43.990        0.039      346.872       25.431      858.720
06/12/2013  11:10:00     -325.018     -250.732       15.990      206.856      130.003       90.695    42789.309    16900.710     8225.644       11.832        3.396      410.491       97.023        0.056      346.785       25.279      858.703
06/12/2013  11:11:00     -290.413     -285.188       -6.642      175.488      178.669       77.074    30796.156    31922.743     5940.436       11.717        3.433      407.028       78.055        0.037      346.800       25.304      858.697
06/12/2013  11:12:00     -272.366     -177.437        0.569      200.417      143.694       82.973    40166.943    20647.848     6884.484        8.667        3.385      325.065       91.899        0.080      346.953       25.568      858.630
06/12/2013  11:13:00     -384.359      -44.833       -0.117      249.524      221.520       95.301    62262.255    49071.151     9082.307       13.505        6.021      386.965      106.051        0.075      347.262       26.100      858.553
06/12/2013  11:14:00     -290.797     -282.282       -6.095      193.161      175.229       91.940    37311.224    30705.064     8452.984       12.036        3.823      405.272       83.512        0.042      347.295       26.157      858.574
06/12/2013  11:15:00     -205.619     -264.564      -21.378      165.008      217.712       98.893    27227.520    47398.717     9779.733        9.855        4.220      335.072       79.883        0.057      347.028       25.698      858.583
06/12/2013  11:16:00     -323.570     -392.889       -8.119      207.254      218.112       89.603    42954.015    47573.022     8028.766       17.882        4.928      508.978       79.355        0.024      346.967       25.592      858.619
06/12/2013  11:17:00     -255.740     -177.469       -4.116      199.094      155.415       75.755    39638.256    24153.936     5738.840        8.321        3.477      311.285       82.161        0.070      347.182       25.962      858.613
06/12/2013  11:18:00     -429.167     -252.967       -3.093      248.321      178.179       93.972    61663.150    31747.689     8830.811       17.519        5.112      498.173      103.070        0.043      346.993       25.637      858.627
06/12/2013  11:19:00     -439.299     -317.857        5.546      271.199      256.939      119.012    73548.849    66017.613    14163.956       22.386        7.687      542.233      142.750        0.069      346.753       25.224      858.612
06/12/2013  11:20:00     -420.125     -275.053       -3.486      288.853      231.365      108.899    83436.231    53529.729    11858.941       20.047        7.441      502.154      131.831        0.069      346.765       25.244      858.565
06/12/2013  11:21:00     -428.382     -197.034       11.957      254.845      244.451      120.463    64946.184    59756.249    14511.373       18.082        6.961      471.523      146.128        0.096      347.005       25.658      858.577
06/12/2013  11:22:00     -471.542     -152.233        1.436      284.187      209.781      105.084    80762.276    44008.208    11042.596       19.064        6.791      495.507      133.547        0.073      347.000       25.650      858.578
06/12/2013  11:23:00     -473.542     -301.781      -29.135      199.985      222.809       96.036    39994.020    49643.826     9222.960       20.749        4.943      561.528       94.931        0.029      346.918       25.507      858.612
06/12/2013  11:24:00     -297.024      -27.770       10.320      172.625      112.861       68.414    29799.373    12737.640     4680.425        6.815        2.361      298.319       74.982        0.063      347.128       25.870      858.665
06/12/2013  11:25:00     -246.757     -225.010        8.820      161.228      146.310       70.291    25994.578    21406.749     4940.815        8.196        2.617      333.944       72.190        0.047      347.007       25.660      858.690
06/12/2013  11:26:00     -342.030     -168.397      -16.905      171.498      115.794       68.948    29411.608    13408.197     4753.831        9.659        2.379      381.237       64.674        0.029      347.044       25.726      858.676
06/12/2013  11:27:00     -299.854     -182.222        0.628      244.582      162.461       82.840    59820.437    26393.421     6862.466       10.808        4.654      350.880       82.568        0.055      347.057       25.748      858.668
06/12/2013  11:28:00     -395.308     -339.606       25.778      284.541      259.352      133.336    80963.566    67263.483    17778.519       21.910        8.300      521.153      138.625        0.071      346.885       25.452      858.592
06/12/2013  11:29:00     -379.121     -222.231        0.206      260.949      244.297      101.972    68094.547    59681.216    10398.359       16.562        6.909      439.453      108.424        0.061      346.980       25.615      858.629
06/12/2013  11:30:00     -385.346     -264.360        7.016      287.041      213.760       97.667    82392.254    45693.203     9538.896       17.800        6.881      467.309      114.297        0.060      347.043       25.723      858.667
06/12/2013  11:31:00     -347.392     -285.191       -8.897      186.999      175.097       71.402    34968.645    30659.054     5098.242       13.640        3.536      449.461       66.808        0.022      346.881       25.445      858.694
06/12/2013  11:32:00     -290.502     -161.817       -7.465      180.984      143.938       78.543    32755.097    20718.121     6168.972        8.512        2.982      332.530       83.881        0.064      346.947       25.559      858.686
06/12/2013  11:33:00     -249.120     -126.826       -3.533      185.984      165.679       80.557    34590.231    27449.690     6489.450        7.333        3.426      279.545      102.699        0.135      347.090       25.804      858.658
06/12/2013  11:34:00     -480.037     -224.712       -3.615      234.295      177.098      104.922    54894.240    31363.632    11008.612       18.909        4.863      530.029      108.447        0.042      346.882       25.445      858.654
06/12/2013  11:35:00     -216.125     -184.086        6.343      156.397      139.319       68.573    24459.874    19409.863     4702.322        6.460        2.429      283.897       78.739        0.077      347.102       25.823      858.749
06/12/2013  11:36:00     -256.421     -232.828       21.275      225.449      182.675      111.691    50827.433    33370.159    12474.838       10.852        4.834      346.353      122.612        0.125      347.092       25.808      858.740
06/12/2013  11:37:00      -73.787     -154.692       20.616      124.625      171.318       83.595    15531.283    29349.911     6988.124        4.082        2.593      171.388       83.102        0.235      347.405       26.348      858.672
06/12/2013  11:38:00      -85.687     -282.778       10.563      180.927      127.865       69.078    32734.563    16349.477     4771.737        7.063        2.693      295.476       33.959        0.013      347.092       25.806      858.682
06/12/2013  11:39:00     -182.432     -122.365       15.784      180.409      164.033       78.502    32547.424    26906.881     6162.615        5.705        3.281      219.669      101.045        0.212      347.298       26.162      858.754
06/12/2013  11:40:00     -322.582     -243.867       -8.597      181.896      202.756       97.593    33086.058    41109.860     9524.326       12.365        4.186      404.389       97.921        0.059      347.013       25.671      858.684
06/12/2013  11:41:00     -178.230     -126.084       17.213      197.640      111.874       74.820    39061.707    12515.774     5598.077        5.256        2.859      218.319       73.596        0.114      347.332       26.221      858.688
06/12/2013  11:42:00     -295.862     -431.875       -6.652      208.294      236.147       97.736    43386.566    55765.215     9552.274       19.138        5.435      523.498      116.303        0.049      346.696       25.126      858.724
06/12/2013  11:43:00     -320.845     -372.082      -10.000      223.029      179.097       99.461    49741.840    32075.800     9892.497       16.658        4.586      491.311       97.211        0.039      346.991       25.633      858.647
06/12/2013  11:44:00     -235.342     -239.963       14.983      163.879      158.035       80.070    26856.443    24975.164     6411.219        8.571        2.912      336.107       80.710        0.058      347.080       25.785      858.776
06/12/2013  11:45:00     -294.349     -356.855      -15.252      192.447      242.602       86.971    37035.891    58855.696     7563.994       15.882        5.173      462.587       65.809        0.020      346.602       24.963      858.777
06/12/2013  11:46:00     -183.922     -174.720        1.505      131.657      137.759       71.283    17333.444    18977.454     5081.214        5.287        2.070      253.682       69.546        0.075      346.863       25.414      858.708
06/12/2013  11:47:00     -226.367     -289.791        1.480      156.253      267.083       80.029    24415.076    71333.351     6404.620       11.867        5.108      367.724       84.790        0.053      346.934       25.536      858.690
06/12/2013  11:48:00     -317.517     -131.796        7.335      213.865      172.502       89.398    45738.204    29756.993     7991.963       10.085        4.174      343.784      103.286        0.090      347.043       25.724      858.611
06/12/2013  11:49:00     -459.091     -169.317      -21.682      241.192      181.994       98.168    58173.789    33121.701     9636.859       17.040        5.047      489.318      107.146        0.048      346.989       25.629      858.576
06/12/2013  11:50:00     -301.311     -302.615       -2.603      195.575      209.642       97.760    38249.698    43949.725     9557.068       13.705        4.588      427.042       99.221        0.054      346.833       25.362      858.681
06/12/2013  11:51:00     -314.391     -175.898        5.279      217.703      189.480       88.124    47394.591    35902.848     7765.818       11.042        4.553      360.253      108.407        0.091      347.019       25.683      858.669
06/12/2013  11:52:00     -632.836     -240.098      -10.777      263.408      280.293      116.548    69383.999    78564.182    13583.337       30.986        8.077      676.852      122.636        0.033      346.755       25.228      858.669
06/12/2013  11:53:00     -282.957     -205.442        6.773      243.980      259.779       97.853    59526.250    67484.951     9575.220       12.942        6.829      349.672      123.490        0.125      347.067       25.765      858.727
06/12/2013  11:54:00     -149.518     -236.940      -29.377      177.142      154.273       83.110    31379.162    23800.035     6907.337        7.071        3.104      280.172       48.571        0.030      347.026       25.695      858.720
06/12/2013  11:55:00     -369.799     -313.869      -13.176      147.259      149.503       88.438    21685.239    22351.194     7821.249       14.364        2.593      485.041       86.965        0.032      346.836       25.367      858.692
06/12/2013  11:56:00     -362.527     -229.414        0.240      258.697      185.745       97.549    66923.896    34501.091     9515.727       14.748        5.547      429.018      101.961        0.056      347.107       25.834      858.674
06/12/2013  11:57:00     -502.624     -116.368       -7.905      201.912      182.665       98.898    40768.337    33366.498     9780.832       17.506        4.196      515.919       94.687        0.034      347.037       25.714      858.708
06/12/2013  11:58:00     -344.935      -71.199      -23.757      131.861      129.573       66.532    17387.341    16789.118     4426.532        8.160        1.930      352.206       52.191        0.022      346.972       25.600      858.719
06/12/2013  11:59:00     -279.201     -114.613        4.570      159.180      157.850       77.612    25338.359    24916.714     6023.664        7.368        2.814      301.810       81.947        0.074      346.956       25.574      858.685
06/12/2013  12:00:00     -391.179     -350.421      -23.347      186.474      193.021       81.124    34772.367    37257.179     6581.122       17.747        3.931      525.182       60.194        0.013      347.000       25.651      858.699
06/12/2013  12:01:00     -316.734     -279.217      -24.185      170.504      173.839       84.606    29071.581    30219.897     7158.116       12.265        3.322      422.235       82.687        0.038      347.135       25.882      858.699
06/12/2013  12:02:00     -174.150     -265.372      -10.592      259.435      150.285       95.262    67306.738    22585.692     9074.939        9.990        4.948      317.413      106.910        0.113      347.103       25.826      858.692
06/12/2013  12:03:00      -65.989     -100.555        1.137      102.245       96.055       62.509    10454.083     9226.606     3907.380        1.902        1.179      120.274       37.252        0.096      347.340       26.238      858.683
06/12/2013  12:04:00      -46.013     -180.822        7.749      117.066      131.768       74.839    13704.359    17362.918     5600.928        3.576        1.833      186.584       60.670        0.106      347.322       26.205      858.663
06/12/2013  12:05:00     -363.467     -198.209       -2.330      247.307      176.351       82.921    61160.976    31099.558     6875.843       13.525        4.957      413.999       96.034        0.054      347.251       26.082      858.629
06/12/2013  12:06:00     -386.459     -190.290        2.906      199.377      146.414       93.830    39751.326    21437.011     8804.010       12.777        3.500      430.768       89.768        0.043      347.064       25.760      858.691
06/12/2013  12:07:00     -329.476     -210.112      -13.004      197.449      151.002       84.810    38986.058    22801.461     7192.727       11.091        3.449      390.771       83.990        0.046      346.662       25.067      858.737
06/12/2013  12:08:00     -370.718     -138.138       -8.872      251.874      195.994       92.742    63440.509    38413.771     8601.052       13.350        5.523      395.618      113.816        0.083      346.832       25.361      858.683
06/12/2013  12:09:00     -263.864      -83.591       -9.929      145.474      102.306       62.651    21162.827    10466.574     3925.097        5.613        1.778      276.788       55.391        0.040      346.975       25.606      858.669
06/12/2013  12:10:00     -416.394     -144.665       -2.591      180.878      159.615       73.341    32716.890    25477.037     5378.877       12.893        3.179      440.808       82.669        0.035      346.575       24.918      858.654
06/12/2013  12:11:00     -237.314      -46.907        2.077      129.546      122.647       58.626    16782.095    15042.354     3437.060        4.689        1.763      241.906       44.718        0.034      346.745       25.211      858.637
06/12/2013  12:12:00     -204.549     -140.269       -2.033      106.852      118.473       58.064    11417.281    14035.768     3371.396        4.517        1.441      248.024       52.889        0.045      347.053       25.741      858.631
06/12/2013  12:13:00     -416.986     -254.271      -12.692      263.311      152.625       67.521    69332.819    23294.336     4559.073       16.792        4.859      488.396       85.221        0.030      346.884       25.450      858.625
06/12/2013  12:14:00     -247.089     -182.271      -16.652       97.136      125.007       46.519     9435.392    15626.789     2164.020        6.088        1.361      307.044       34.424        0.013      346.697       25.126      858.617
06/12/2013  12:15:00     -178.205     -218.355       17.090      189.095      135.007       86.268    35757.065    18226.897     7442.171        7.056        3.071      281.844       92.034        0.107      346.983       25.620      858.612
06/12/2013  12:16:00     -251.945     -122.222        4.383      156.105      192.133       79.838    24368.630    36915.179     6374.153        7.303        3.383      280.026       80.327        0.082      347.113       25.843      858.629
06/12/2013  12:17:00     -366.525     -323.498        1.150      248.668      193.373      109.932    61836.012    37392.998    12085.034       17.513        5.566      488.868      135.742        0.077      346.741       25.203      858.635
06/12/2013  12:18:00     -397.057     -200.828        0.667      218.628      144.390       92.039    47798.053    20848.587     8471.170       13.754        3.856      444.956       94.743        0.045      346.728       25.180      858.610
06/12/2013  12:19:00     -466.663     -331.485       -8.294      247.257      193.596      111.604    61135.929    37479.537    12455.343       21.938        5.554      572.414      139.258        0.059      346.784       25.278      858.603
06/12/2013  12:20:00     -375.590     -181.380       -3.467      256.035      178.019       91.253    65554.007    31690.902     8327.106       13.975        5.279      417.093      110.611        0.070      346.927       25.524      858.656
06/12/2013  12:21:00     -261.675     -132.518       15.292      203.967      122.123       83.561    41602.677    14914.005     6982.373        7.487        3.175      293.317       92.338        0.099      347.202       25.999      858.671
06/12/2013  12:22:00     -297.708     -177.346       16.906      210.041      128.533       69.778    44117.168    16520.817     4868.995        9.292        3.275      346.528       86.601        0.062      347.229       26.045      858.685
06/12/2013  12:23:00     -303.281     -172.586        4.102      187.501      149.261       88.919    35156.637    22278.719     7906.578        9.355        3.267      348.949      104.369        0.089      347.023       25.689      858.652
06/12/2013  12:24:00     -266.419     -245.975        2.686      233.671      147.858       90.013    54602.195    21862.037     8102.299       10.801        4.228      362.606      100.030        0.076      347.052       25.739      858.630
06/12/2013  12:25:00     -355.398     -270.408      -12.781      200.087      153.455       84.768    40034.673    23548.522     7185.698       13.517        3.538      446.574       90.945        0.041      346.775       25.260      858.629
06/12/2013  12:26:00     -298.263     -109.369       10.186      205.886      130.841       88.500    42389.192    17119.329     7832.308        8.417        3.367      317.683      101.636        0.102      347.064       25.758      858.674
06/12/2013  12:27:00     -315.852     -244.860        0.466      235.245      178.763       96.622    55340.394    31956.077     9335.813       12.816        4.832      399.649      117.631        0.087      346.888       25.455      858.654
06/12/2013  12:28:00     -356.186     -328.069       -3.504      183.049      168.634       90.937    33506.989    28437.559     8269.466       15.235        3.511      484.249       77.886        0.026      346.514       24.813      858.643
06/12/2013  12:29:00     -163.874     -149.576        3.830      124.318      146.855       69.597    15455.063    21566.260     4843.685        4.555        2.093      221.873       68.471        0.095      346.742       25.207      858.611
06/12/2013  12:30:00     -350.042     -313.788      -24.059      212.386      201.359       97.967    45107.640    40545.269     9597.629       15.839        4.763      470.098      107.879        0.053      346.707       25.144      858.598
06/12/2013  12:31:00     -434.858     -179.348       -9.663      191.713      222.745      102.337    36753.786    49615.289    10472.827       15.908        4.842      470.390      101.716        0.047      346.724       25.175      858.573
06/12/2013  12:32:00     -281.700     -259.359       -9.005      197.659      148.038       91.191    39069.214    21915.118     8315.829       10.799        3.465      382.913       74.489        0.038      346.723       25.174      858.535
06/12/2013  12:33:00     -335.907     -166.466        5.252      190.690      127.183       86.966    36362.497    16175.619     7563.122       10.032        3.005      374.893       98.542        0.069      347.001       25.651      858.480
06/12/2013  12:34:00     -212.827     -123.098        9.713      208.834      101.528       75.872    43611.531    10307.979     5756.512        6.010        2.984      245.863       88.988        0.131      347.316       26.194      858.469
06/12/2013  12:35:00     -275.560     -186.767      -12.606      199.538      122.881       83.099    39815.582    15099.634     6905.463        8.639        3.091      332.890       98.339        0.087      347.191       25.978      858.469
06/12/2013  12:36:00     -339.619      -81.117        0.174      196.679      205.443       82.006    38682.579    42206.719     6725.052       10.475        4.381      349.172       94.006        0.072      347.324       26.206      858.451
06/12/2013  12:37:00     -454.418     -377.085      -31.032      214.653      156.178       85.370    46075.927    24391.480     7288.022       21.369        3.888      590.499       82.347        0.019      347.160       25.923      858.514
06/12/2013  12:38:00     -224.831     -180.835       -6.784      168.099      154.785       72.905    28257.339    23958.504     5315.138        7.040        2.877      288.531       68.100        0.056      347.420       26.374      858.586
06/12/2013  12:39:00      -72.933     -119.459       16.061      121.065      126.856       58.604    14656.838    16092.446     3434.409        2.701        1.709      139.963       33.237        0.056      347.541       26.583      858.621
06/12/2013  12:40:00     -154.647     -237.339        4.863      139.978      168.426       66.635    19593.857    28367.440     4440.198        6.632        2.620      283.276       75.473        0.071      347.477       26.473      858.623
06/12/2013  12:41:00     -220.189     -130.273        2.971      141.156      113.038       73.409    19925.118    12777.639     5388.832        5.177        1.905      255.840       79.369        0.096      347.267       26.110      858.615
06/12/2013  12:42:00     -112.085     -169.135        9.332      120.155      101.053       50.913    14437.234    10211.678     2592.169        3.424        1.362      202.903       40.193        0.039      347.346       26.245      858.632
06/12/2013  12:43:00     -236.856     -120.329        3.722      113.629       89.605       57.474    12911.551     8029.140     3303.247        4.741        1.212      265.669       52.068        0.038      347.240       26.063      858.622
06/12/2013  12:44:00     -157.398     -148.927       -3.082      128.996       99.963       69.117    16639.920     9992.513     4777.210        3.918        1.570      216.687       72.424        0.112      347.317       26.195      858.597
06/12/2013  12:45:00     -109.205     -113.802       10.166       85.019       85.678       43.322     7228.313     7340.754     1876.794        2.071        0.822      157.723       35.114        0.050      347.301       26.170      858.543
06/12/2013  12:46:00      -37.503     -100.230       17.540       88.521       77.704       53.500     7836.004     6037.838     2862.201        1.424        0.837      107.017       50.730        0.225      347.576       26.645      858.538
06/12/2013  12:47:00      -70.848     -221.194      -27.323      161.275      126.064       73.265    26009.465    15892.191     5367.727        5.097        2.363      232.264       56.556        0.059      347.274       26.121      858.538
06/12/2013  12:48:00     -197.185     -183.781       -5.003      108.998      106.973       54.489    11880.564    11443.161     2969.004        4.948        1.315      269.551       50.754        0.035      347.203       26.000      858.562
06/12/2013  12:49:00     -378.665     -137.380       -6.151      170.190      127.029       71.325    28964.802    16136.342     5087.298       10.623        2.509      402.816       72.899        0.033      347.133       25.877      858.525
06/12/2013  12:50:00     -223.338      -84.557        4.257      168.572      109.613       72.446    28416.394    12015.025     5248.380        5.135        2.284      238.809       82.237        0.119      347.475       26.468      858.497
06/12/2013  12:51:00     -246.358     -159.288       -5.589      210.774      139.218       76.040    44425.504    19381.591     5782.129        7.783        3.479      293.368      102.928        0.123      347.331       26.221      858.475
06/12/2013  12:52:00     -196.528     -161.225      -11.797      118.991      131.768       61.822    14158.961    17362.794     3821.950        5.004        1.767      254.198       56.180        0.049      347.294       26.155      858.487
06/12/2013  12:53:00     -250.343     -178.326        0.278      212.985      106.658       71.889    45362.536    11375.840     5168.004        7.818        3.095      307.363       91.884        0.089      347.397       26.333      858.474
06/12/2013  12:54:00     -435.564     -265.796        0.359      234.111      146.865       89.573    54808.083    21569.239     8023.302       17.236        4.220      510.258       88.906        0.030      347.184       25.966      858.480
06/12/2013  12:55:00     -322.166     -110.201        5.574      276.342      149.144       93.322    76365.049    22243.882     8709.089       11.162        5.366      340.493      129.521        0.145      347.280       26.132      858.511
06/12/2013  12:56:00     -326.907      -60.583       -0.721      216.101      132.880       95.485    46699.472    17657.159     9117.473        9.199        3.674      332.473      112.497        0.114      347.166       25.935      858.498
06/12/2013  12:57:00     -242.277      -62.450        7.932      188.337      128.321       70.613    35470.694    16466.279     4986.165        5.978        2.846      250.196       66.761        0.071      346.921       25.513      858.480
06/12/2013  12:58:00     -280.436     -108.561      -13.426      151.148      200.625       78.989    22845.772    40250.284     6239.227        7.996        3.467      300.715       70.968        0.056      347.056       25.745      858.473
06/12/2013  12:59:00     -269.993      -24.217       -1.753      141.503      118.286       58.443    20022.974    13991.554     3415.545        5.545        1.872      271.077       50.177        0.034      346.885       25.450      858.469
06/12/2013  13:00:00     -337.967     -113.387      -17.340      134.432      118.455       67.937    18072.086    14031.632     4615.492        8.204        1.836      356.481       55.122        0.024      346.919       25.508      858.409
06/12/2013  13:01:00     -337.101      -93.810      -28.308      153.258      159.068       67.052    23488.055    25302.739     4496.030        8.825        2.664      349.910       49.956        0.020      347.072       25.773      858.402
06/12/2013  13:02:00     -272.647     -144.104        0.267      146.992      146.940       58.890    21606.566    21591.400     3467.981        7.087        2.333      308.386       65.936        0.046      347.227       26.040      858.379
06/12/2013  13:03:00     -263.894     -150.646       -6.159      225.049      137.189       93.176    50647.179    18820.950     8681.794        8.525        3.907      303.865      112.552        0.137      347.366       26.280      858.381
06/12/2013  13:04:00     -295.932      -71.682       10.028      199.084      124.268       75.682    39634.332    15442.470     5727.787        7.680        3.040      304.489       75.859        0.062      347.251       26.080      858.376
06/12/2013  13:05:00     -201.330      -94.307       15.135      136.245      111.847       68.422    18562.691    12509.817     4681.596        4.270        1.788      222.323       71.115        0.102      347.448       26.421      858.387
06/12/2013  13:06:00     -314.548     -251.611      -13.327      153.115      148.287       67.980    23444.179    21989.068     4621.322       10.623        2.503      402.801       71.126        0.031      347.059       25.750      858.332
06/12/2013  13:07:00     -229.196     -309.466        5.345      170.294      152.125       76.118    29000.202    23142.081     5793.931       10.312        2.897      385.098       76.330        0.039      347.010       25.665      858.312
06/12/2013  13:08:00     -203.866     -248.945       -6.637      159.410      101.935       73.506    25411.520    10390.835     5403.170        7.238        2.060      321.768       66.388        0.043      347.015       25.674      858.327
06/12/2013  13:09:00     -312.355     -237.584      -10.805      191.530      141.088       80.712    36683.789    19905.795     6514.381       10.860        3.155      392.443       81.703        0.043      347.123       25.860      858.349
06/12/2013  13:10:00     -351.107     -311.111       -3.394      188.722      170.836      103.278    35615.837    29184.909    10666.245       14.776        3.773      469.112      102.651        0.048      346.922       25.516      858.373
06/12/2013  13:11:00     -285.132     -300.700       -1.721      171.904      146.021       87.284    29551.022    21322.051     7618.558       11.510        2.925      414.392       94.939        0.052      346.854       25.397      858.395
06/12/2013  13:12:00     -383.284     -268.148       -2.274      177.872      127.139       90.119    31638.354    16164.376     8121.414       13.736        2.796      467.772       89.515        0.037      346.726       25.178      858.374
06/12/2013  13:13:00     -254.308     -235.752       -8.725      131.709      117.512       61.516    17347.310    13808.996     3784.260        7.763        1.747      346.773       55.227        0.025      346.705       25.139      858.381
06/12/2013  13:14:00     -285.124     -209.335       -6.733      108.327      103.425       68.025    11734.724    10696.743     4627.405        7.610        1.353      353.718       68.981        0.038      346.740       25.201      858.369
06/12/2013  13:15:00     -319.563     -226.277       -3.754      143.401      117.349       74.931    20563.908    13770.758     5614.654        9.663        1.997      391.564       79.405        0.041      346.746       25.211      858.343
06/12/2013  13:16:00     -227.529     -276.249       -8.878      192.387      116.363       67.682    37012.827    13540.367     4580.800        9.164        2.757      357.887       74.671        0.044      346.949       25.562      858.353
06/12/2013  13:17:00     -189.069     -299.918      -12.744      108.866      121.313       56.953    11851.907    14716.887     3243.695        7.783        1.491      354.539       52.078        0.022      346.855       25.399      858.361
06/12/2013  13:18:00     -112.092     -230.117       13.366      154.559      136.582       63.112    23888.629    18654.732     3983.103        5.610        2.326      255.965       67.081        0.069      346.863       25.414      858.339
06/12/2013  13:19:00     -212.641     -198.825        1.589      142.377      112.371       66.555    20271.090    12627.167     4429.585        6.103        1.866      291.114       49.448        0.029      346.808       25.318      858.329
06/12/2013  13:20:00     -137.413     -132.305        3.840       82.566       85.189       49.244     6817.090     7257.181     2424.977        2.645        0.825      190.754       50.519        0.070      346.846       25.384      858.306
06/12/2013  13:21:00     -368.008     -166.958        0.430      199.365      130.530       78.043    39746.340    17038.062     6090.770       11.308        3.144      404.110       96.552        0.057      346.917       25.507      858.320
06/12/2013  13:22:00     -334.464     -157.759       -3.420      149.238      132.622       73.042    22271.929    17588.504     5335.074        9.097        2.260      369.803       53.078        0.021      346.998       25.645      858.297
06/12/2013  13:23:00     -331.581     -194.346      -16.819      130.506      121.876       69.924    17031.720    14853.713     4889.408        9.238        1.839      384.339       60.720        0.025      347.149       25.906      858.299
06/12/2013  13:24:00     -399.931      -80.440      -31.897      211.512      120.026       83.323    44737.347    14406.231     6942.661       11.675        3.304      407.941       96.241        0.056      347.011       25.668      858.275
06/12/2013  13:25:00     -267.589      -95.521       -1.341      145.432      121.254       68.529    21150.536    14702.490     4696.203        6.063        2.027      284.127       78.690        0.077      347.003       25.655      858.246
06/12/2013  13:26:00     -248.170     -183.329       -9.634      159.106       94.605       64.281    25314.869     8950.079     4131.983        6.684        1.920      308.541       66.409        0.046      346.892       25.462      858.254
06/12/2013  13:27:00     -286.723     -135.420        4.276      177.635      113.264       55.780    31554.049    12828.661     3111.362        7.402        2.375      317.094       50.750        0.026      346.828       25.352      858.263
06/12/2013  13:28:00      -71.705     -119.607        7.286      121.470      107.550       71.427    14754.921    11567.042     5101.863        2.546        1.571      139.454       69.287        0.247      346.900       25.479      858.278
06/12/2013  13:29:00     -209.896     -128.072      -12.192      106.022       67.159       41.497    11240.583     4510.321     1722.036        3.904        0.874      245.884       35.545        0.021      346.644       25.038      858.256
06/12/2013  13:30:00     -224.216     -132.156       -3.372      103.569       81.309       50.600    10726.438     6611.213     2560.368        4.382        0.995      260.265       47.407        0.033      346.842       25.377      858.293
06/12/2013  13:31:00     -142.541     -114.948        7.976      103.563       88.214       54.324    10725.275     7781.721     2951.078        2.752        1.073      183.115       44.348        0.059      347.056       25.747      858.323
06/12/2013  13:32:00     -279.373     -135.220        2.457      130.977       99.515       58.358    17155.087     9903.226     3405.612        6.340        1.523      310.377       59.230        0.036      347.032       25.704      858.320
06/12/2013  13:33:00     -262.555     -172.647       17.062      184.821      156.064       80.231    34158.725    24356.124     6436.959        8.198        3.248      314.233       74.931        0.057      346.946       25.555      858.303
06/12/2013  13:34:00     -123.913     -333.898       -1.264      133.035      127.152       75.270    17698.282    16167.562     5665.592        8.318        1.977      356.149       81.618        0.053      346.910       25.494      858.261
06/12/2013  13:35:00     -348.910     -274.186       -9.729      194.176      144.061       84.029    37704.476    20753.540     7060.892       13.125        3.276      443.752       97.678        0.048      346.900       25.478      858.235
06/12/2013  13:36:00     -282.334     -204.889        3.454      217.846      200.697       89.191    47456.965    40279.402     7955.064       10.868        4.785      348.844      107.970        0.096      346.994       25.638      858.243
06/12/2013  13:37:00     -506.953     -157.784        2.107      260.421      152.718       96.135    67819.032    23322.717     9241.894       19.112        5.019      530.940      104.530        0.039      347.026       25.694      858.187
06/12/2013  13:38:00     -248.963     -186.915        8.988      163.850      127.806       77.353    26846.976    16334.500     5983.498        7.307        2.458      311.320       83.849        0.073      347.023       25.689      858.259
06/12/2013  13:39:00     -296.760     -203.369        6.722      196.273      161.291       81.416    38523.214    26014.898     6628.633       10.030        3.558      359.758      102.048        0.080      347.015       25.674      858.227
06/12/2013  13:40:00     -259.429       11.250        5.445      221.210      121.345       77.673    48934.084    14724.709     6033.038        6.856        3.485      259.673       92.945        0.128      347.203       26.000      858.141
06/12/2013  13:41:00     -304.144      -99.962       12.603      281.485      140.418       80.713    79233.743    19717.226     6514.535       10.404        5.273      320.149       96.788        0.091      347.383       26.310      858.136
06/12/2013  13:42:00      -77.014     -207.368      -24.710       87.971      120.723       52.383     7738.845    14574.156     2743.990        3.729        1.253      221.207       59.877        0.073      347.458       26.439      858.161
06/12/2013  13:43:00     -230.062     -134.841        3.063      141.691      129.582       65.111    20076.430    16791.383     4239.491        5.611        2.055      266.666       64.260        0.058      347.510       26.527      858.159
06/12/2013  13:44:00     -534.361     -402.618      -25.945      261.581      227.157      120.296    68424.743    51600.434    14471.093       29.138        6.725      669.061      129.099        0.037      347.035       25.709      858.161
06/12/2013  13:45:00     -496.273     -362.849      -12.998      251.297      237.248      116.541    63150.360    56286.490    13581.722       25.554        6.651      614.773      135.293        0.048      346.758       25.231      858.160
06/12/2013  13:46:00     -431.325     -249.740      -22.418      179.853      182.095      106.072    32347.036    33158.614    11251.226       16.282        3.838      498.409      100.883        0.041      346.706       25.143      858.174
06/12/2013  13:47:00     -407.508     -100.778      -20.898      143.188      109.302       69.147    20502.736    11946.917     4781.294       10.694        1.862      419.784       75.480        0.032      346.847       25.386      858.126
06/12/2013  13:48:00     -375.557      -55.202       -9.708      198.194      118.134       81.870    39280.735    13955.636     6702.693       10.205        2.997      379.592       99.869        0.069      346.882       25.445      858.116
06/12/2013  13:49:00     -164.274      -68.412       22.434      138.821      109.743       71.381    19271.265    12043.507     5095.185        3.428        1.820      177.950       80.621        0.205      347.222       26.033      858.137
06/12/2013  13:50:00     -382.482     -100.129      -10.465      243.019      191.888       97.432    59058.259    36821.055     9492.988       13.088        5.269      395.371      125.409        0.101      347.062       25.757      858.118
06/12/2013  13:51:00     -453.824     -213.567        7.043      265.593      194.004       96.764    70539.805    37637.596     9363.180       18.456        5.877      501.565      116.954        0.054      347.023       25.688      858.104
06/12/2013  13:52:00     -547.527     -395.226       -8.706      227.104      165.942      117.922    51576.294    27536.787    13905.706       27.452        4.651      675.270      114.414        0.029      346.985       25.623      858.092
06/12/2013  13:53:00     -527.197     -371.539      -17.595      229.196      193.092      101.738    52530.834    37284.614    10350.701       25.821        5.008      644.963       96.680        0.022      347.054       25.740      858.106
06/12/2013  13:54:00     -492.981     -321.973      -15.086      226.279      198.533       99.480    51202.222    39415.290     9896.340       22.370        5.026      588.810      107.610        0.033      347.048       25.732      858.126
06/12/2013  13:55:00     -218.298     -175.303       13.329      150.881      145.276       61.049    22765.063    21105.219     3726.929        6.307        2.380      279.974       72.008        0.066      347.216       26.022      858.131
06/12/2013  13:56:00     -225.647     -178.736       -8.248      155.899      112.831       61.005    24304.376    12730.781     3721.637        6.184        2.038      287.859       77.260        0.072      347.290       26.148      858.084
06/12/2013  13:57:00     -280.875     -197.487        9.443      199.541      134.797       67.494    39816.632    18170.313     4555.496        9.025        3.127      343.354       84.110        0.060      347.089       25.803      858.045
06/12/2013  13:58:00     -116.105     -201.336        8.019      160.041      134.806       71.419    25613.140    18172.695     5100.734        5.147        2.444      232.415       67.919        0.085      347.155       25.917      858.050
06/12/2013  13:59:00     -232.319     -203.060      -19.405      125.747      119.830       62.746    15812.187    14359.247     3937.087        6.484        1.705      308.554       63.607        0.042      347.030       25.701      858.042
06/12/2013  14:00:00     -364.789     -237.797       -6.325      235.131      148.115       84.129    55286.428    21937.933     7077.691       13.696        4.215      435.452       93.132        0.046      346.982       25.618      858.053
06/12/2013  14:01:00     -309.717     -203.818      -10.202      176.591      158.118       73.953    31184.347    25001.232     5468.982        9.960        3.083      370.765       87.612        0.056      347.036       25.710      858.063
06/12/2013  14:02:00     -234.085     -196.876        1.681      154.264       93.210       57.171    23797.477     8688.158     3268.546        6.465        1.788      305.870       41.660        0.019      347.028       25.697      858.051
06/12/2013  14:03:00     -117.701     -285.483      -12.705      183.473      167.125       68.506    33662.163    27930.817     4693.078        8.089        3.314      308.794       60.686        0.039      346.995       25.639      858.022
06/12/2013  14:04:00     -461.587     -345.221      -21.122      189.569      173.392       82.574    35936.416    30064.758     6818.489       20.274        3.641      576.403       78.402        0.019      346.953       25.568      858.005
06/12/2013  14:05:00     -420.619     -294.651      -15.505      211.278      191.140       87.580    44638.585    36534.645     7670.292       17.639        4.442      513.556       92.320        0.032      346.947       25.559      858.009
06/12/2013  14:06:00     -329.876     -247.270       -9.593      147.949      186.131       70.769    21888.952    34644.866     5008.293       11.578        3.077      412.262       60.435        0.021      346.964       25.585      857.989
06/12/2013  14:07:00     -394.453     -326.184      -13.528      261.161      221.880      131.372    68205.112    49230.720    17258.732       19.841        6.735      511.849      124.443        0.059      347.063       25.758      857.974
06/12/2013  14:08:00     -141.817     -104.189       19.070      267.738      213.514      103.791    71683.603    45588.097    10772.576        7.966        6.402      175.975      132.579        0.568      347.216       26.022      857.921
06/12/2013  14:09:00     -254.820     -125.288       14.416      237.861      159.487       93.558    56578.024    25436.026     8753.057        8.578        4.538      283.955      101.567        0.128      347.150       25.908      857.978
06/12/2013  14:10:00     -330.521      -82.462      -14.025      162.075      147.902       78.930    26268.330    21875.064     6229.952        8.530        2.719      340.653       90.184        0.070      346.949       25.560      857.967
06/12/2013  14:11:00     -328.380      -29.051      -22.119      247.954      147.986       88.011    61481.326    21899.952     7745.990       10.013        4.556      329.663      122.749        0.139      346.947       25.558      857.955
06/12/2013  14:12:00     -244.090     -152.601       -5.204      138.144      133.939       77.212    19083.725    17939.643     5961.616        6.293        2.149      287.867       82.094        0.081      347.144       25.896      857.913
06/12/2013  14:13:00     -373.804     -117.880      -15.509      167.692      130.880       80.567    28120.507    17129.673     6490.991       10.279        2.587      391.950       74.749        0.036      347.211       26.013      857.927
06/12/2013  14:14:00     -454.825      -86.195      -11.891      253.810      243.119      109.792    64419.761    59106.749    12054.381       17.498        6.779      462.920      121.201        0.069      347.122       25.860      857.896
06/12/2013  14:15:00     -257.709     -159.238       10.727      166.859      159.126       92.549    27841.763    25321.086     8565.308        7.679        3.086      302.937       96.481        0.101      347.225       26.039      857.915
06/12/2013  14:16:00     -199.802     -184.878        8.176      147.054      136.472       70.582    21624.807    18624.648     4981.752        5.969        2.262      272.214       67.918        0.062      347.160       25.925      857.971
06/12/2013  14:17:00     -235.595     -183.942       25.526      253.185      207.737      118.513    64102.634    43154.676    14045.327       10.562        6.065      298.897      143.710        0.231      346.988       25.627      857.966
06/12/2013  14:18:00     -358.250     -246.496        6.945      205.663      183.223      100.321    42297.425    33570.760    10064.292       13.752        4.297      434.861      105.467        0.059      347.102       25.825      857.930
06/12/2013  14:19:00     -537.844     -405.143      -23.954      258.050      213.325      125.724    66589.639    45507.434    15806.446       29.092        6.395      673.362      141.056        0.044      347.036       25.712      857.906
06/12/2013  14:20:00     -495.865     -304.701      -21.823      290.749      222.301      124.234    84534.907    49417.565    15434.174       24.426        7.469      582.001      134.010        0.053      347.049       25.734      857.878
06/12/2013  14:21:00     -228.029     -116.756       23.904      267.121      192.170      123.564    71353.800    36929.423    15268.015        9.485        6.178      256.182      145.582        0.323      347.234       26.053      857.874
06/12/2013  14:22:00     -301.802      -32.853       -1.078      196.878      111.426       77.451    38760.897    12415.689     5998.629        7.466        2.859      303.585       86.784        0.082      347.274       26.121      857.856
06/12/2013  14:23:00     -398.205      -81.494      -19.389      235.067      203.140      110.460    55256.620    41265.831    12201.422       13.713        5.436      406.459      120.775        0.088      347.311       26.184      857.814
06/12/2013  14:24:00     -490.850     -250.998       -9.818      254.409      224.899      118.741    64724.126    50579.355    14099.438       21.669        6.470      551.302      116.557        0.045      347.175       25.951      857.849
06/12/2013  14:25:00     -714.491     -259.022      -39.430      313.137      252.568      119.782    98055.076    63790.353    14347.682       37.763        8.810      759.993      138.609        0.033      346.866       25.419      857.793
06/12/2013  14:26:00     -628.482     -106.276      -24.058      268.631      213.885      119.730    72162.599    45746.811    14335.361       26.953        6.612      637.405      132.362        0.043      346.954       25.571      857.811
06/12/2013  14:27:00     -571.102     -187.293       -2.323      230.502      237.058      112.387    53131.106    56196.599    12630.767       24.158        6.098      601.029      133.564        0.049      346.819       25.337      857.832
06/12/2013  14:28:00     -468.942     -259.345      -24.324      260.577      233.082      104.236    67900.564    54327.358    10865.167       21.040        6.655      535.879      109.965        0.042      346.835       25.364      857.836
06/12/2013  14:29:00     -360.231     -215.079      -21.309      154.399      134.635       72.529    23839.083    18126.461     5260.439       11.184        2.361      419.554       71.650        0.029      347.017       25.678      857.855
06/12/2013  14:30:00     -254.229     -128.641      -14.572      215.653      171.247       94.079    46506.344    29325.702     8850.842        8.302        4.234      284.923      109.461        0.148      347.175       25.952      857.857
06/12/2013  14:31:00     -592.375      -78.085      -39.546      278.954      210.983      108.488    77815.442    44513.749    11769.679       24.631        6.705      597.499      113.735        0.036      347.115       25.846      857.831
06/12/2013  14:32:00     -429.099     -103.673        1.971      253.857      176.720       95.450    64443.607    31229.963     9110.712       14.981        5.239      441.445      118.536        0.072      347.300       26.165      857.719
06/12/2013  14:33:00     -345.515     -216.240       -0.224      228.306      181.024      106.373    52123.479    32769.717    11315.140       13.115        4.810      407.603      116.595        0.082      347.364       26.277      857.830
06/12/2013  14:34:00     -270.514     -171.815       18.914      254.928      161.267      112.400    64988.334    26007.112    12633.807       10.332        5.181      320.465      129.466        0.163      347.366       26.282      857.848
06/12/2013  14:35:00     -409.330     -189.605        6.830      319.445      244.899      131.413   102045.042    59975.508    17269.398       19.138        8.964      451.111      140.234        0.097      347.042       25.722      857.864
06/12/2013  14:36:00     -239.502     -111.774       14.310      204.312      190.776       97.833    41743.267    36395.397     9571.308        7.887        4.385      264.300      109.863        0.173      346.975       25.606      857.878
06/12/2013  14:37:00     -256.479      -42.560        0.612      207.500      134.541       90.412    43056.307    18101.213     8174.411        6.845        3.467      259.986      102.188        0.154      347.028       25.697      857.884
06/12/2013  14:38:00     -376.209     -173.382       17.302      232.566      200.485      105.133    54086.827    40194.163    11053.052       13.859        5.267      414.240      120.903        0.085      347.057       25.746      857.857
06/12/2013  14:39:00     -568.915     -378.291      -18.252      273.791      245.693      124.514    74961.366    60364.825    15503.635       30.894        7.541      683.205      131.569        0.037      346.869       25.422      857.831
06/12/2013  14:40:00     -503.531     -211.830      -11.508      301.963      223.877      139.526    91181.699    50120.747    19467.395       22.963        8.038      546.274      155.005        0.081      346.979       25.613      857.790
06/12/2013  14:41:00     -376.968     -281.372       -4.593      198.141      197.810      111.446    39259.961    39128.923    12420.263       15.604        4.540      470.399      106.634        0.051      347.019       25.682      857.820
06/12/2013  14:42:00     -457.241     -212.909      -18.237      236.071      154.834       90.635    55729.500    23973.423     8214.695       17.131        4.396      504.380      112.595        0.050      347.227       26.039      857.812
06/12/2013  14:43:00     -539.594     -335.780      -17.773      295.780      238.771      117.966    87485.657    57011.399    13916.026       28.129        7.921      635.539      119.531        0.035      347.150       25.907      857.832
06/12/2013  14:44:00     -514.719     -213.092      -29.945      268.117      296.227      111.174    71886.670    87750.170    12359.580       24.158        8.600      557.085      129.677        0.054      347.257       26.092      857.882
06/12/2013  14:45:00     -298.181     -220.802      -18.094      192.776      127.475       85.757    37162.691    16249.932     7354.321        9.937        3.038      371.033       80.498        0.047      347.391       26.322      857.903
06/12/2013  14:46:00     -405.950     -324.224       -0.132      282.454      195.839      135.655    79780.124    38352.841    18402.180       20.320        6.827      519.536      146.667        0.080      347.217       26.023      857.854
06/12/2013  14:47:00     -826.120     -178.100      -45.869      268.379      221.621      102.390    72027.538    49115.910    10483.799       42.394        6.581      845.100       95.317        0.013      347.018       25.680      857.839
06/12/2013  14:48:00     -301.914     -137.207       28.941      258.363      150.470      104.114    66751.665    22641.137    10839.626       10.550        5.012      331.629      115.238        0.121      347.156       25.918      857.799
06/12/2013  14:49:00     -357.219     -123.506       -5.013      278.703      146.020       96.006    77675.331    21321.774     9217.071       12.553        5.411      377.967      125.760        0.111      347.210       26.009      857.800
06/12/2013  14:50:00     -578.454      -82.418      -28.048      241.886      250.469       94.596    58508.782    62734.588     8948.471       23.616        6.510      584.296      111.706        0.037      347.155       25.915      857.808
06/12/2013  14:51:00     -407.500     -127.599      -30.582      173.412      139.677       65.185    30071.830    19509.660     4249.031       11.854        2.692      427.010       71.865        0.028      347.123       25.861      857.787
06/12/2013  14:52:00     -398.466       96.725       -6.633      326.441      173.229      120.133   106563.665    30008.263    14431.868       15.956        7.550      410.037      140.848        0.118      347.438       26.403      857.759
06/12/2013  14:53:00     -313.035      -25.698       -6.496      262.537      173.106       84.901    68925.610    29965.684     7208.205       10.238        5.305      314.088      109.673        0.122      347.422       26.376      857.749
06/12/2013  14:54:00     -469.129     -118.377       -9.942      227.612      191.223       99.299    51807.045    36566.090     9860.293       16.619        4.912      483.834       95.462        0.039      347.481       26.479      857.772
06/12/2013  14:55:00     -322.753     -111.034       15.869      239.917      199.302      107.736    57560.360    39721.155    11607.127       11.280        5.444      341.318      117.882        0.119      347.603       26.688      857.796
06/12/2013  14:56:00     -584.073     -276.548      -25.508      226.634      176.694      107.541    51362.753    31220.808    11565.045       25.619        4.707      646.235      111.063        0.030      347.448       26.420      857.800
06/12/2013  14:57:00     -459.865      -94.416      -11.418      297.847      192.041      104.632    88713.081    36879.930    10947.788       17.850        6.827      469.458      118.741        0.064      347.428       26.386      857.818
06/12/2013  14:58:00     -380.525      -30.341      -10.588      223.435      193.631       94.324    49923.027    37492.798     8897.094       12.105        4.816      381.733      113.538        0.088      347.265       26.105      857.804
06/12/2013  14:59:00     -691.062     -189.935      -40.209      302.351      202.045      111.676    91415.937    40822.379    12471.486       32.995        7.235      716.688      141.174        0.039      347.133       25.878      857.769
06/12/2013  15:00:00     -534.926     -341.387       -3.722      262.050      247.002      132.941    68670.371    61009.956    17673.273       27.500        7.368      634.580      132.220        0.043      347.044       25.722      857.792
06/12/2013  15:01:00     -475.999     -175.030       -5.920      298.545      216.320      110.150    89129.130    46794.261    12133.128       20.262        7.403      507.159      137.847        0.074      347.045       25.727      857.781
06/12/2013  15:02:00     -572.072     -170.217      -19.327      290.760      190.279      100.181    84541.537    36206.134    10036.311       24.367        6.539      596.859      123.326        0.043      346.877       25.437      857.807
06/12/2013  15:03:00     -310.763      -83.834       -0.595      184.722      129.284       88.287    34122.098    16714.478     7794.600        8.110        2.932      321.873       86.447        0.072      347.142       25.893      857.820
06/12/2013  15:04:00     -276.670     -160.127       -2.278      198.188      165.512       89.229    39278.467    27394.186     7961.836        8.840        3.732      319.667       98.740        0.095      347.134       25.880      857.808
06/12/2013  15:05:00     -528.477     -367.558      -31.216      281.638      190.598      102.483    79320.032    36327.665    10502.739       27.073        6.308      643.729      101.854        0.025      347.133       25.879      857.788
06/12/2013  15:06:00     -361.734     -274.156       26.016      293.609      220.509      139.100    86206.447    48624.356    19348.687       18.040        7.709      453.887      155.052        0.117      347.308       26.180      857.741
06/12/2013  15:07:00     -502.357     -274.707      -10.109      260.391      300.099      121.119    67803.641    90059.392    14669.758       25.020        8.627      572.562      139.265        0.059      347.325       26.209      857.771
06/12/2013  15:08:00     -512.334     -226.061      -21.007      280.268      183.935       92.593    78550.062    33832.071     8573.406       21.747        6.048      559.991      117.919        0.044      347.063       25.757      857.844
06/12/2013  15:09:00     -421.424     -343.670       -2.968      236.502      202.765      111.798    55933.376    41113.846    12498.732       20.261        5.477      543.790      111.201        0.042      346.905       25.485      857.832
06/12/2013  15:10:00     -451.022     -267.792       -9.212      331.822      191.462      114.193   110106.045    36657.863    13040.065       21.748        7.990      524.532      132.998        0.064      346.837       25.367      857.824
06/12/2013  15:11:00     -372.357     -312.611       11.797      236.771      184.736      121.815    56060.441    34127.249    14838.932       17.075        5.251      486.185      121.435        0.062      347.089       25.801      857.760
06/12/2013  15:12:00     -289.211     -219.549        8.546      188.017      130.597       72.763    35350.542    17055.481     5294.510        9.480        2.885      363.104       64.868        0.032      347.126       25.866      857.782
06/12/2013  15:13:00     -164.970      -92.254       19.455      169.755       99.277       55.161    28816.786     9856.009     3042.776        3.890        2.086      189.013       60.987        0.104      347.337       26.230      857.756
06/12/2013  15:14:00     -214.284     -308.893        6.683      169.828      167.141      108.091    28841.496    27935.988    11683.576       10.491        3.423      375.942      103.212        0.075      347.347       26.246      857.747
06/12/2013  15:15:00     -315.374     -207.334       11.623      180.318      170.469       86.751    32514.480    29059.626     7525.757       10.583        3.455      377.423       70.510        0.035      347.407       26.351      857.785
06/12/2013  15:16:00     -394.005     -188.700        2.614      248.170      159.048       95.358    61588.357    25296.391     9093.119       14.340        4.799      436.861       84.449        0.037      347.269       26.113      857.810
06/12/2013  15:17:00     -327.892     -162.038      -17.278      193.678      170.325       88.004    37511.227    29010.509     7744.730       10.415        3.713      365.745       98.287        0.072      347.268       26.110      857.873
06/12/2013  15:18:00     -270.798        9.592       -6.885      229.355      148.850       91.999    52603.765    22156.454     8463.833        7.833        4.161      270.967       95.934        0.125      347.356       26.263      857.850
06/12/2013  15:19:00     -436.853      -54.772       -1.099      254.924      220.337      104.054    64986.334    48548.535    10827.211       15.908        6.218      440.273       97.253        0.049      347.255       26.089      857.852
06/12/2013  15:20:00     -625.296     -184.452      -33.546      216.899      265.545      102.499    47045.059    70513.980    10506.008       27.708        6.403      651.934      105.850        0.026      346.902       25.482      857.882
06/12/2013  15:21:00     -382.395     -113.687      -11.623      240.753      172.175       99.314    57961.874    29644.384     9863.176       12.836        4.873      398.937      108.797        0.074      346.956       25.573      857.856
06/12/2013  15:22:00     -344.168     -141.809       15.640      309.836      165.739      101.009    95998.512    27469.396    10202.887       13.621        6.684      372.239      128.030        0.118      346.906       25.488      857.783
06/12/2013  15:23:00     -347.259      -81.298      -10.397      233.869      159.714       86.764    54694.485    25508.517     7528.017       10.750        4.387      356.648      103.356        0.084      347.058       25.750      857.744
06/12/2013  15:24:00     -373.682     -145.881       19.360      290.238      205.660      136.844    84238.020    42295.964    18726.182       15.325        7.263      401.147      160.066        0.159      347.218       26.024      857.797
06/12/2013  15:25:00     -504.896     -129.874      -24.112      282.770      208.135      109.209    79959.062    43320.270    11926.532       20.376        6.760      521.332      132.365        0.064      346.978       25.610      857.790
06/12/2013  15:26:00     -444.612      -53.562      -11.930      240.184      200.597       93.590    57688.436    40238.976     8759.061       15.367        5.334      447.827      102.240        0.052      347.163       25.930      857.771
06/12/2013  15:27:00     -536.535     -117.753      -24.107      269.531      206.973      101.904    72646.940    42837.642    10384.392       21.407        6.293      549.305      110.440        0.040      347.167       25.936      857.777
06/12/2013  15:28:00     -281.456     -217.446       -4.612      240.312      144.048       91.202    57749.976    20749.890     8317.717       10.665        4.341      355.668      101.107        0.081      347.163       25.930      857.834
06/12/2013  15:29:00     -492.792     -448.570        2.085      287.727      224.183      137.453    82787.041    50258.113    18893.338       29.797        7.597      666.377      158.224        0.056      346.888       25.458      857.753
06/12/2013  15:30:00     -373.004     -218.219      -15.235      223.094      181.885       87.008    49770.832    33082.292     7570.324       13.869        4.521      432.147      101.516        0.055      347.020       25.683      857.731
06/12/2013  15:31:00     -393.896      -76.141       -0.764      247.844      185.058      101.803    61426.421    34246.315    10363.778       13.347        5.302      401.188      105.643        0.069      347.230       26.047      857.655
06/12/2013  15:32:00     -540.177     -326.255        0.091      321.012      264.887      132.832   103048.520    70165.222    17644.318       29.451        9.543      631.057      144.546        0.052      347.073       25.774      857.724
06/12/2013  15:33:00     -739.155     -490.518      -55.950      295.547      236.494      133.675    87348.087    55929.435    17868.948       47.559        8.057      887.107      133.156        0.023      346.702       25.136      857.739
06/12/2013  15:34:00     -529.698     -364.025      -24.228      292.124      179.041      120.882    85336.346    32055.802    14612.344       27.282        6.600      642.724      146.179        0.052      346.773       25.260      857.771
06/12/2013  15:35:00     -389.587     -258.384        2.890      244.747      236.273      108.293    59901.060    55824.892    11727.364       17.298        6.373      467.483      109.335        0.055      346.836       25.368      857.760
06/12/2013  15:36:00     -578.570     -167.261      -10.300      354.620      245.218      132.499   125755.054    60131.774    17556.037       28.309       10.172      602.262      181.072        0.090      347.051       25.737      857.700
06/12/2013  15:37:00     -624.004     -285.886        4.733      334.044      253.235      124.538   111585.716    64128.140    15509.595       33.114        9.561      686.376      146.560        0.046      346.774       25.260      857.718
06/12/2013  15:38:00     -453.724     -187.274       -3.520      289.893      224.364      114.793    84038.094    50339.190    13177.371       19.422        7.378      490.854      144.497        0.087      346.936       25.539      857.723
06/12/2013  15:39:00     -340.358     -278.212        9.822      203.804      221.242      114.171    41536.134    48947.982    13035.110       14.841        5.176      439.597      108.397        0.061      347.026       25.694      857.773
06/12/2013  15:40:00     -399.319     -351.338        6.964      259.469      220.965      137.324    67324.328    48825.359    18857.896       20.895        6.750      531.878      163.299        0.094      346.925       25.520      857.754
06/12/2013  15:41:00     -509.785     -307.573      -36.194      296.507      244.716      142.048    87916.688    59886.135    20177.620       26.185        8.399      595.384      156.887        0.069      346.876       25.436      857.758
06/12/2013  15:42:00     -533.870     -203.232        1.989      302.417      284.201      132.810    91456.003    80770.435    17638.383       25.806        9.493      571.245      142.994        0.063      346.930       25.527      857.718
06/12/2013  15:43:00     -471.053     -144.079       -5.820      258.087      209.262      125.020    66608.679    43790.469    15629.964       18.433        6.301      492.595      138.897        0.080      347.007       25.661      857.699
06/12/2013  15:44:00     -551.749     -312.736      -10.323      340.118      239.125      154.376   115680.473    57180.914    23831.994       29.948        9.835      634.217      168.058        0.070      346.751       25.221      857.676
06/12/2013  15:45:00     -518.648     -289.359       11.743      342.517      226.503      149.608   117318.140    51303.400    22382.632       27.189        9.550      593.906      174.991        0.087      346.831       25.358      857.628
06/12/2013  15:46:00     -273.010     -113.113        0.053      286.392      158.151       91.021    82020.439    25011.605     8284.825       10.130        5.766      295.515       97.860        0.110      347.046       25.729      857.695
06/12/2013  15:47:00     -400.301     -297.082        0.977      240.360      183.652      113.763    57772.923    33728.091    12941.969       17.645        5.222      498.497      114.506        0.053      347.016       25.676      857.681
06/12/2013  15:48:00     -479.929     -117.489        0.777      338.454      242.784      125.725   114551.439    58943.918    15806.722       21.668        9.465      494.101      158.977        0.104      347.039       25.716      857.697
06/12/2013  15:49:00     -594.040     -303.272       -8.305      357.288      182.673      130.094   127654.462    33369.548    16924.458       31.140        8.897      666.977      161.205        0.058      346.734       25.192      857.647
06/12/2013  15:50:00     -520.194     -111.828        0.083      247.259      196.373       84.631    61137.183    38562.416     7162.485       19.496        5.343      532.078       99.658        0.035      346.631       25.014      857.685
06/12/2013  15:51:00     -281.925     -125.285        4.777      201.350      166.005       86.133    40541.951    27557.574     7418.924        8.534        3.776      308.510       98.165        0.101      346.906       25.488      857.685
06/12/2013  15:52:00     -492.834     -276.821      -12.279      212.206      157.801      107.754    45031.511    24901.085    11610.878       20.059        4.077      565.256      115.225        0.042      346.972       25.599      857.676
06/12/2013  15:53:00     -694.194     -197.204      -33.667      168.979      168.238       98.547    28554.009    28303.909     9711.506       29.424        3.328      721.661       78.623        0.012      346.800       25.305      857.683
06/12/2013  15:54:00     -543.586      -47.975      -42.427      224.822      170.740       89.350    50545.145    29152.279     7983.507       19.362        4.384      545.699       95.383        0.031      346.940       25.544      857.688
06/12/2013  15:55:00     -676.124     -104.179      -37.211      265.694      189.497      106.537    70593.340    35908.929    11350.219       29.359        5.893      684.103      118.279        0.030      346.837       25.368      857.659
06/12/2013  15:56:00     -804.870     -239.131      -32.557      333.329      243.266      139.524   111108.318    59178.449    19466.827       44.787        9.488      839.642      162.734        0.038      346.647       25.042      857.613
06/12/2013  15:57:00     -579.784     -242.645        0.116      362.063      220.081      145.751   131089.968    48435.510    21243.313       29.786       10.038      628.511      181.385        0.083      346.739       25.198      857.664
06/12/2013  15:58:00     -764.068      -74.749      -49.424      328.745      267.995      124.070   108073.555    71821.511    15393.378       39.352        9.764      767.716      154.005        0.040      346.789       25.285      857.661
06/12/2013  15:59:00     -537.966     -195.425      -13.211      302.026      213.651      119.582    91219.945    45646.778    14299.917       23.944        7.558      572.362      132.758        0.054      346.918       25.507      857.677
06/12/2013  16:00:00     -261.249      -53.471        4.036      215.183      153.681       78.712    46303.592    23617.906     6195.534        7.361        3.806      266.665       83.895        0.099      347.177       25.955      857.775
06/12/2013  16:01:00     -598.698     -108.868      -30.442      237.362      169.762      100.171    56340.902    28819.017    10034.206       23.319        4.760      608.516      119.580        0.039      346.501       24.790      857.789
06/12/2013  16:02:00     -480.779     -234.873       -8.177      258.274      216.840      104.754    66705.553    47019.545    10973.474       20.551        6.235      535.083      130.974        0.060      346.664       25.071      857.784
06/12/2013  16:03:00     -652.106     -295.146      -19.413      328.957      228.755      119.570   108212.684    52328.923    14296.874       34.375        8.742      715.789      127.918        0.032      346.746       25.213      857.699
06/12/2013  16:04:00     -288.524     -167.076       14.366      291.452      193.615      107.400    84944.020    37486.867    11534.693       12.264        6.698      333.408      135.202        0.164      346.890       25.461      857.726
06/12/2013  16:05:00     -507.572     -198.809      -23.221      202.097      198.881       95.359    40843.015    39553.753     9093.410       19.357        4.475      545.119       99.632        0.033      346.799       25.302      857.740
06/12/2013  16:06:00     -392.362     -249.502       -2.654      241.934      163.273       97.236    58532.119    26658.195     9454.770       15.541        4.732      464.972      113.682        0.060      346.694       25.123      857.759
06/12/2013  16:07:00     -236.544     -208.269        6.949      178.019      133.799       80.500    31690.740    17902.205     6480.299        7.771        2.804      315.165       89.482        0.081      346.880       25.441      857.743
06/12/2013  16:08:00     -454.373     -120.161       -7.466      224.022      147.667       91.415    50185.670    21805.518     8356.718       15.063        4.017      469.993       98.807        0.044      346.840       25.373      857.740
06/12/2013  16:09:00     -415.318     -195.379      -15.708      190.024      154.930       92.383    36109.185    24003.184     8534.608       13.976        3.432      458.979      104.201        0.052      346.591       24.945      857.716
06/12/2013  16:10:00     -341.593       -0.145       -8.115      169.625      129.207       87.271    28772.559    16694.460     7616.295        8.491        2.654      341.593       95.793        0.079      346.912       25.497      857.762
06/12/2013  16:11:00     -323.494      -91.723       -6.710      188.667      158.933       82.985    35595.332    25259.822     6886.485        9.041        3.387      336.246       83.712        0.062      346.830       25.355      857.746
06/12/2013  16:12:00     -727.489     -174.836      -49.457      384.426      264.658      136.652   147783.128    70043.669    18673.693       39.933       11.825      748.204      169.560        0.051      346.605       24.970      857.674
06/12/2013  16:13:00     -574.701     -116.307      -16.943      347.076      239.517      142.479   120461.856    57368.609    20300.200       27.107        9.907      586.352      180.350        0.095      346.669       25.079      857.691
06/12/2013  16:14:00     -422.203     -175.639        1.259      235.603      185.085       92.550    55508.579    34256.527     8565.520       15.370        4.917      457.279      101.449        0.049      346.663       25.070      857.726
06/12/2013  16:15:00     -338.289     -184.377       -2.206      215.209      167.638      103.189    46314.935    28102.341    10647.879       11.674        4.253      385.272      107.071        0.077      346.775       25.261      857.733
06/12/2013  16:16:00     -344.727     -119.671       16.290      262.330      190.562       95.964    68817.120    36313.964     9209.176       12.386        5.717      364.908      115.907        0.101      346.941       25.547      857.744
06/12/2013  16:17:00     -521.494     -115.571      -17.730      274.573      218.481      107.565    75390.323    47734.106    11570.273       21.013        6.735      534.147      127.723        0.057      346.778       25.267      857.720
06/12/2013  16:18:00     -566.886     -168.878      -16.497      237.228      239.674      114.871    56276.944    57443.846    13195.356       23.851        6.346      591.506      119.431        0.041      346.775       25.263      857.798
06/12/2013  16:19:00     -263.537      -40.772       -1.585      258.475      167.123      113.685    66809.492    27930.170    12924.326        8.937        5.383      266.673      128.011        0.230      346.846       25.384      857.780
06/12/2013  16:20:00     -620.444      -62.096      -19.936      284.344      183.826      118.540    80851.734    33791.867    14051.722       25.892        6.435      623.544      132.569        0.045      346.642       25.031      857.768
06/12/2013  16:21:00     -608.250     -106.743      -26.161      249.847      149.799       92.239    62423.499    22439.665     8507.990       23.769        4.669      617.545      109.709        0.032      346.517       24.818      857.753
06/12/2013  16:22:00     -786.277     -238.434      -25.465      297.629      204.063      112.927    88583.120    41641.711    12752.520       40.933        7.149      821.634      125.348        0.023      346.370       24.565      857.739
06/12/2013  16:23:00     -590.457     -198.427      -21.946      226.284      202.117       96.981    51204.225    40851.390     9405.387       24.496        5.073      622.907      110.220        0.031      346.444       24.693      857.786
06/12/2013  16:24:00     -483.512     -169.649      -22.634      219.507      154.471       84.188    48183.112    23861.199     7087.701       17.109        3.957      512.410       97.309        0.036      346.604       24.969      857.805
06/12/2013  16:25:00     -343.319     -164.455      -11.624      207.123      193.580      110.140    42900.110    37473.218    12130.823       11.876        4.625      380.675      111.961        0.087      346.776       25.263      857.796
06/12/2013  16:26:00     -466.624     -209.821      -29.397      225.157      171.336       97.442    50695.735    29356.050     9494.876       17.607        4.477      511.628       98.241        0.037      346.616       24.988      857.818
06/12/2013  16:27:00     -439.956     -117.930      -13.814      194.827      157.737       72.278    37957.366    24881.011     5224.055       13.785        3.403      455.487       82.837        0.033      346.780       25.272      857.851
06/12/2013  16:28:00     -462.450      -67.669      -26.237      223.793      148.636       79.101    50083.092    22092.654     6257.018       14.876        3.922      467.374       81.146        0.030      346.587       24.940      857.794
06/12/2013  16:29:00     -355.650     -181.080        3.222      209.257      183.942       95.789    43788.682    33834.824     9175.551       12.303        4.340      399.095      109.754        0.076      346.563       24.898      857.756
06/12/2013  16:30:00     -474.545     -114.200      -13.455      281.709      218.975      125.398    79359.930    47950.023    15724.546       19.070        7.152      488.093      147.075        0.091      346.676       25.091      857.747
06/12/2013  16:31:00     -404.379      -88.672       -1.962      256.122      174.439      107.105    65598.439    30428.958    11471.515       13.942        5.375      413.987      125.354        0.092      346.593       24.948      857.772
06/12/2013  16:32:00     -636.307     -135.225      -17.562      392.781      222.830      128.972   154277.175    49653.206    16633.826       32.198       11.028      650.517      142.767        0.048      346.351       24.533      857.750
06/12/2013  16:33:00     -492.439     -169.233       -7.946      213.818      166.946       99.281    45718.133    27870.871     9856.706       17.731        4.172      520.707      120.035        0.053      346.406       24.625      857.821
06/12/2013  16:34:00     -450.640     -154.977      -10.279      205.474      161.627       90.396    42219.694    26123.224     8171.363       15.184        3.826      476.544       79.701        0.028      346.545       24.866      857.835
06/12/2013  16:35:00     -417.117     -124.073       -6.231      253.441      188.245      106.536    64232.508    35436.261    11349.903       15.020        5.551      435.179      123.090        0.080      346.589       24.943      857.871
06/12/2013  16:36:00     -459.230     -177.154       -1.001      237.865      186.963       97.776    56579.625    34955.254     9560.239       17.167        5.055      492.215      112.123        0.052      346.438       24.682      857.896
06/12/2013  16:37:00     -354.322     -208.145      -12.621      251.891      160.194      104.081    63449.024    25662.094    10832.788       13.447        4.997      410.937      121.950        0.088      346.595       24.952      857.891
06/12/2013  16:38:00     -372.024     -115.450       -9.974      195.723      203.131       94.979    38307.682    41262.354     9021.066       12.019        4.430      389.526       93.327        0.057      346.523       24.827      857.916
06/12/2013  16:39:00     -538.130     -166.166      -35.975      261.980      225.950      109.688    68633.713    51053.219    12031.489       22.508        6.586      563.201      122.080        0.047      346.549       24.872      857.904
06/12/2013  16:40:00     -484.570     -105.833      -11.990      264.796      183.354      105.439    70116.916    33618.580    11117.380       18.048        5.743      495.992      127.947        0.067      346.739       25.201      857.947
06/12/2013  16:41:00     -367.846     -257.829       -3.208      216.427      138.293      102.981    46840.579    19124.912    10605.109       13.917        3.829      449.206      113.378        0.064      346.399       24.615      857.982
06/12/2013  16:42:00     -322.865      -64.482      -13.792      208.926      213.524       78.326    43650.024    45592.314     6134.895       10.196        4.769      329.241       87.298        0.070      346.365       24.555      857.947
06/12/2013  16:43:00     -388.872        7.725      -28.972      263.936      170.683      100.211    69662.307    29132.519    10042.183       13.046        5.442      388.949      110.031        0.080      346.582       24.930      857.907
06/12/2013  16:44:00     -366.750      -35.857      -25.106      201.436      146.495       81.145    40576.630    21460.831     6584.446       10.251        3.431      368.498       75.427        0.042      346.865       25.417      857.926
06/12/2013  16:45:00     -273.465     -210.044       22.578      263.743      172.320      109.407    69560.447    29694.192    11969.967       11.530        5.561      344.821      130.555        0.143      346.790       25.288      857.915
06/12/2013  16:46:00     -445.680     -126.170      -13.326      271.222      235.150      114.456    73561.341    55295.712    13100.156       17.831        7.098      463.195      125.586        0.074      346.596       24.953      857.926
06/12/2013  16:47:00     -376.458     -134.166        1.723      266.877      215.157      128.618    71223.292    46292.406    16542.525       14.686        6.703      399.652      140.070        0.123      346.597       24.955      857.942
06/12/2013  16:48:00     -474.874     -137.619      -21.855      271.023      165.222       99.441    73453.651    27298.287     9888.558       17.776        5.532      494.413      127.724        0.067      346.469       24.736      857.972
06/12/2013  16:49:00     -324.331     -183.158        8.736      195.182      203.253       97.684    38096.130    41311.724     9542.172       11.386        4.448      372.475      114.917        0.095      346.556       24.885      858.013
06/12/2013  16:50:00     -140.570      -45.371       20.008      218.018      146.062      103.079    47531.854    21333.994    10625.233        5.084        3.975      147.711      113.500        0.590      346.538       24.854      857.999
06/12/2013  16:51:00     -546.277     -149.160      -15.901      242.608      199.855       94.275    58858.751    39942.009     8887.811       21.428        5.384      566.275       98.464        0.030      346.355       24.539      858.005
06/12/2013  16:52:00     -568.499     -182.540      -24.876      220.834      161.983       89.629    48767.454    26238.599     8033.286       22.007        4.152      597.086       90.391        0.023      346.190       24.256      858.035
06/12/2013  16:53:00     -495.791     -129.262       -8.746      226.273      129.533       82.560    51199.529    16778.845     6816.089       16.868        3.740      512.364      100.017        0.038      346.351       24.533      858.012
06/12/2013  16:54:00     -599.983     -135.786      -32.698      202.286      201.095       79.492    40919.431    40439.379     6319.030       23.356        4.384      615.156       74.243        0.015      346.117       24.129      858.006
06/12/2013  16:55:00     -357.136       22.828      -15.513      207.912      172.257       98.920    43227.231    29672.424     9785.232       10.548        4.134      357.864       97.058        0.074      346.503       24.794      857.972
06/12/2013  16:56:00     -486.176     -170.292       -4.003      168.592      142.841       80.151    28423.107    20403.462     6424.236       16.031        2.763      515.137       88.643        0.030      346.440       24.684      858.015
06/12/2013  16:57:00     -131.477     -263.880       12.414      142.161      169.791       68.272    20209.704    28828.902     4661.111        7.038        2.685      294.820       62.510        0.045      346.382       24.585      858.012
06/12/2013  16:58:00     -320.940       47.944      -19.233      210.057       94.589       65.701    44123.920     8947.093     4316.639        8.152        2.869      324.502       91.157        0.079      346.502       24.793      858.007
06/12/2013  16:59:00     -444.861      -92.226      -28.931      160.469      133.776       77.922    25750.394    17896.009     6071.793       12.847        2.486      454.321       64.830        0.020      346.415       24.641      858.018
06/12/2013  17:00:00     -405.103     -154.279      -24.744      137.138      114.706       67.500    18806.887    13157.363     4556.200       11.251        1.826      433.487       61.402        0.020      346.305       24.455      857.988
06/12/2013  17:01:00     -420.987     -176.632      -12.776      142.403      133.313       68.072    20278.518    17772.280     4633.747       12.563        2.134      456.540       54.451        0.014      346.568       24.906      858.042
06/12/2013  17:02:00     -305.454     -110.429        1.254      166.250      129.388       71.312    27639.149    16741.342     5085.385        7.747        2.473      324.802       71.088        0.048      346.499       24.787      858.060
06/12/2013  17:03:00     -175.382     -102.635        8.077      164.681      120.383       72.090    27119.684    14492.044     5196.960        4.407        2.340      203.206       79.351        0.152      346.536       24.851      858.053
06/12/2013  17:04:00     -382.413     -126.365      -15.349      195.408      121.917       70.555    38184.106    14863.847     4977.995       11.022        2.901      402.750       69.185        0.030      346.340       24.514      858.020
06/12/2013  17:05:00     -466.312     -129.812      -17.036      187.236      117.746       76.724    35057.306    13864.224     5886.562       14.469        2.740      484.043       89.122        0.034      346.237       24.336      858.029
06/12/2013  17:06:00     -322.686     -158.967       -7.083      160.628      150.244       77.356    25801.470    22573.146     5983.926        9.189        2.718      359.718       83.591        0.054      346.321       24.479      858.072
06/12/2013  17:07:00     -173.928     -163.275       14.373      199.555      154.416       61.643    39822.365    23844.186     3799.896        6.228        3.373      238.558       82.160        0.119      346.393       24.606      858.058
06/12/2013  17:08:00     -275.236     -232.277        5.020      157.576      101.551       74.433    24830.343    10312.603     5540.318        8.520        2.034      360.150       77.530        0.046      346.134       24.158      858.014
06/12/2013  17:09:00     -169.105       -0.257        0.794      161.999       88.960       47.944    26243.590     7913.851     2298.599        3.252        1.823      169.105       66.313        0.154      346.510       24.807      858.003
06/12/2013  17:10:00     -442.265      117.448      -44.915      271.813      118.890       85.833    73882.325    14134.725     7367.357       15.338        4.769      457.594      116.225        0.065      346.478       24.752      857.974
06/12/2013  17:11:00     -295.268      -88.921      -38.491      146.023       84.662       67.385    21322.609     7167.734     4540.719        6.479        1.652      308.367       68.737        0.050      346.488       24.768      857.924
06/12/2013  17:12:00     -293.217      -42.482      -12.091      166.670      136.975       66.241    27778.853    18762.031     4387.926        6.942        2.546      296.279       78.640        0.070      346.429       24.667      857.922
06/12/2013  17:13:00     -349.607      -23.552      -31.275      119.651       96.686       70.365    14316.364     9348.124     4951.202        7.618        1.431      350.399       60.247        0.030      346.665       25.071      857.934
06/12/2013  17:14:00     -391.813      -96.116      -15.085      126.217      136.114       64.100    15930.637    18527.005     4108.758       10.077        1.928      403.430       62.300        0.024      346.337       24.508      857.932
06/12/2013  17:15:00     -337.240     -103.928       -8.576      139.578      134.489       65.286    19482.064    18087.354     4262.319        8.321        2.092      352.891       58.497        0.027      346.420       24.652      857.915
06/12/2013  17:16:00     -245.765     -128.768       16.099      154.003      125.400       59.650    23716.849    15725.257     3558.136        6.011        2.150      277.456       63.870        0.053      346.608       24.976      857.939
06/12/2013  17:17:00     -337.395     -184.329       -9.682      168.325      103.316       65.552    28333.283    10674.247     4297.027        9.560        2.165      384.464       68.086        0.031      346.182       24.242      857.948
06/12/2013  17:18:00     -310.171     -182.177      -10.184      180.692      130.625       79.040    32649.665    17062.837     6247.389        9.272        2.798      359.714       89.310        0.062      346.305       24.453      857.952
06/12/2013  17:19:00     -351.029     -179.982       -4.905      147.908      117.610       68.928    21876.703    13832.137     4751.002        9.804        2.023      394.481       57.869        0.022      346.311       24.465      857.938
06/12/2013  17:20:00     -354.055     -100.875        6.666      211.473      148.432       80.032    44720.965    22031.973     6405.118       10.435        3.658      368.145       85.284        0.054      346.409       24.632      857.934
06/12/2013  17:21:00     -416.808      -87.940      -10.169      157.003       88.962       65.194    24649.964     7914.246     4250.222       10.918        1.841      425.984       70.185        0.027      346.138       24.166      857.936
06/12/2013  17:22:00     -313.373       -6.115       -5.308      136.669      126.370       57.494    18678.360    15969.417     3305.600        6.810        1.898      313.433       64.761        0.043      346.226       24.317      857.933
06/12/2013  17:23:00     -319.888      -17.480      -20.879      162.393      119.489       62.022    26371.591    14277.733     3846.698        7.377        2.225      320.365       69.031        0.046      346.400       24.616      857.982
06/12/2013  17:24:00     -174.652     -254.298        1.029      140.588      189.210       65.374    19764.991    35800.344     4273.736        7.749        2.992      308.498       68.876        0.050      346.404       24.623      858.065
06/12/2013  17:25:00      -94.221      -97.049      -12.397      194.856      162.705       85.122    37969.038    26473.057     7245.835        4.505        3.584      135.263       87.955        0.423      346.369       24.565      857.962
06/12/2013  17:26:00      -41.299     -149.134       16.890       91.216      118.371       64.702     8320.405    14011.760     4186.331        2.537        1.326      154.747       67.473        0.190      346.338       24.513      857.873
06/12/2013  17:27:00     -183.810     -144.707       21.096      183.658      139.699       76.459    33730.329    19515.831     5845.933        5.712        2.955      233.937       93.436        0.160      346.482       24.760      857.873
06/12/2013  17:28:00     -369.618     -135.795      -23.075      189.931      165.914       85.279    36073.820    27527.487     7272.446       11.322        3.544      393.774       97.310        0.061      346.218       24.302      857.936
06/12/2013  17:29:00     -442.254      -40.333      -12.388      172.525      166.658       81.242    29764.948    27774.726     6600.263       13.074        3.207      444.089       75.428        0.029      346.222       24.311      857.932
06/12/2013  17:30:00     -333.371     -119.269      -11.263      233.993      142.335       85.758    54752.572    20259.177     7354.454       10.391        4.118      354.064       84.117        0.056      346.218       24.304      857.953
06/12/2013  17:31:00     -211.804     -242.440       -2.043      146.507      119.861       76.067    21464.351    14366.775     5786.176        7.262        2.081      321.929       79.552        0.061      346.135       24.159      857.969
06/12/2013  17:32:00     -216.016     -110.015       -1.451      144.784       94.742       62.966    20962.338     8976.025     3964.727        4.633        1.695      242.417       67.681        0.078      346.247       24.354      857.972
06/12/2013  17:33:00     -109.487      -25.416        9.093      163.636      110.379       44.813    26776.795    12183.584     2008.184        2.683        2.048      112.398       62.052        0.305      346.425       24.662      857.932
06/12/2013  17:34:00     -273.375      -29.007      -14.474      207.255      196.716       84.889    42954.752    38697.286     7206.090        8.230        4.443      274.909       75.822        0.076      346.107       24.114      857.865
06/12/2013  17:35:00     -375.940       13.771      -13.372      185.777      170.699       96.146    34512.953    29138.277     9243.985       10.728        3.645      376.192       97.172        0.067      346.386       24.593      857.861
06/12/2013  17:36:00     -256.990     -199.462        1.540      156.558      135.003       76.812    24510.487    18225.824     5900.011        7.722        2.432      325.313       83.566        0.066      346.347       24.526      858.018
06/12/2013  17:37:00     -265.358     -195.172      -21.435      136.392      123.774       56.570    18602.792    15320.033     3200.118        7.304        1.856      329.404       67.852        0.042      346.043       24.003      858.024
06/12/2013  17:38:00     -154.162      -23.568        3.575       94.315       92.818       50.763     8895.290     8615.119     2576.900        2.221        1.004      155.953       47.064        0.091      346.117       24.132      857.932
06/12/2013  17:39:00     -185.817      -25.892       -3.245       95.265       87.184       57.261     9075.329     7601.106     3278.765        2.758        0.998      187.613       57.123        0.093      346.262       24.379      857.947
06/12/2013  17:40:00     -237.562      -35.970      -19.410       87.445       74.603       36.937     7646.578     5565.580     1364.330        3.634        0.729      240.270       29.389        0.015      346.020       23.965      857.957
06/12/2013  17:41:00     -268.930      -92.772       -4.498      137.535      101.953       56.935    18915.847    10394.443     3241.586        5.674        1.628      284.482       54.586        0.037      346.330       24.497      857.972
06/12/2013  17:42:00     -259.134      -44.440       -4.286      137.739      115.037       63.334    18972.081    13233.477     4011.199        5.267        1.811      262.917       62.446        0.056      346.345       24.523      858.010
06/12/2013  17:43:00     -415.449      -34.983      -38.663      175.336      119.250       75.746    30742.717    14220.646     5737.489       11.300        2.535      416.919       92.771        0.050      346.055       24.023      857.963
06/12/2013  17:44:00     -354.866     -219.001      -21.442      191.115      106.457       65.395    36525.093    11333.068     4276.539       11.323        2.607      417.003       60.145        0.021      345.866       23.699      857.946
06/12/2013  17:45:00     -198.283     -120.676       -5.074      115.815      102.200       49.564    13413.080    10444.878     2456.575        4.010        1.316      232.119       46.333        0.040      345.946       23.837      857.931
06/12/2013  17:46:00     -127.089      -33.831       -4.405       77.154       91.049       52.643     5952.756     8289.832     2771.271        1.716        0.851      131.515       47.904        0.133      346.293       24.435      857.929
06/12/2013  17:47:00     -147.749     -108.475       10.415       87.682      119.530       61.436     7688.091    14287.438     3774.347        2.972        1.287      183.294       48.384        0.070      346.277       24.405      857.967
06/12/2013  17:48:00     -295.064     -234.925        1.984      157.171      148.397       78.660    24702.864    22021.775     6187.408        9.757        2.646      377.164       81.662        0.047      345.978       23.892      857.967
06/12/2013  17:49:00     -419.954     -184.188      -11.641      199.954      143.128       71.804    39981.520    20485.678     5155.837       13.801        3.281      458.570       83.407        0.033      345.830       23.638      857.976
06/12/2013  17:50:00     -542.755     -132.893      -23.239      223.450      183.956       69.320    49929.989    33839.666     4805.194       20.066        4.429      558.787       82.708        0.022      345.825       23.630      857.950
06/12/2013  17:51:00     -579.518     -168.421      -18.247      210.642      150.043       88.041    44369.933    22512.823     7751.301       21.957        3.732      603.495       98.469        0.027      345.872       23.709      857.949
06/12/2013  17:52:00     -454.312     -122.087      -20.194      200.875      154.528       87.998    40350.876    23878.783     7743.730       14.683        3.599      470.430       99.781        0.045      345.939       23.825      858.010
06/12/2013  17:53:00     -420.717      -44.867       -1.220      199.022      144.092       81.427    39609.784    20762.370     6630.425       12.300        3.350      423.102       83.420        0.039      345.916       23.785      858.029
06/12/2013  17:54:00     -467.823      -80.900       -8.162      237.356      174.242       84.794    56337.659    30360.134     7190.032       15.966        4.694      474.767       77.264        0.026      345.824       23.627      857.995
06/12/2013  17:55:00     -418.365      -68.352      -10.122      179.637      143.125       83.393    32269.463    20484.689     6954.361       11.974        2.985      423.912       92.366        0.047      345.864       23.695      857.987
06/12/2013  17:56:00     -266.409     -127.335      -22.828      218.176      105.766       69.499    47600.973    11186.525     4830.074        7.565        3.181      295.276       89.612        0.092      345.799       23.584      857.958
06/12/2013  17:57:00     -284.739      -75.004       -7.961      264.649      122.724       80.472    70039.277    15061.076     6475.823        8.915        4.579      294.452      111.081        0.142      345.851       23.674      857.991
06/12/2013  17:58:00     -214.734      -59.421       -3.826      105.292      106.491       55.174    11086.407    11340.255     3044.162        3.756        1.274      222.803       51.746        0.054      346.003       23.933      858.008
06/12/2013  17:59:00     -430.816       -2.555      -51.454      176.233      122.874       61.028    31057.977    15097.908     3724.433       11.906        2.494      430.824       74.254        0.030      345.931       23.810      858.041
06/12/2013  18:00:00     -256.634      -62.654        3.748      161.297      107.379       73.375    26016.702    11530.159     5383.902        5.636        2.147      264.172       84.288        0.102      345.893       23.747      858.044
06/12/2013  18:01:00     -159.671      -75.868        3.268       88.320       86.755       45.620     7800.352     7526.413     2081.153        2.433        0.870      176.779       45.028        0.065      345.894       23.750      858.039
06/12/2013  18:02:00     -162.044        8.518       -7.676       78.665       78.340       42.781     6188.172     6137.141     1830.219        2.027        0.708      162.268       39.520        0.059      345.936       23.823      858.036
06/12/2013  18:03:00     -319.945      -94.929      -19.573      136.114       81.481       58.880    18527.152     6639.100     3466.878        7.019        1.432      333.731       65.275        0.038      345.900       23.759      858.045
06/12/2013  18:04:00     -384.155      -37.218      -32.377      137.231      110.904       69.801    18832.273    12299.716     4872.193        9.300        1.800      385.954       69.062        0.032      345.731       23.468      858.053
06/12/2013  18:05:00     -323.971      -73.625      -25.981      179.525      154.696       75.576    32229.303    23930.902     5711.791        8.645        3.094      332.232       88.391        0.071      345.870       23.706      858.022
06/12/2013  18:06:00     -240.673      -52.027        5.512      172.231      101.566       68.377    29663.415    10315.709     4675.437        5.265        2.233      246.232       88.364        0.129      345.889       23.740      858.036
06/12/2013  18:07:00     -324.245     -152.635       -2.055      214.839      157.439       75.855    46155.866    24786.966     5754.035       10.255        3.835      358.375      105.603        0.087      345.797       23.581      857.989
06/12/2013  18:08:00     -171.910      -20.666       -1.794      133.910      150.516       60.238    17931.870    22655.198     3628.560        3.709        2.211      173.148       54.494        0.099      345.989       23.913      858.023
06/12/2013  18:09:00     -181.820     -200.391       -4.060      128.387      148.924       71.975    16483.146    22178.214     5180.398        5.853        2.192      270.582       69.997        0.067      345.834       23.645      858.047
06/12/2013  18:10:00     -315.560     -242.984       -1.451      212.420      164.201       99.154    45122.068    26961.808     9831.461       12.025        4.096      398.271      126.229        0.100      345.775       23.543      857.995
06/12/2013  18:11:00     -257.042     -168.146       12.451      201.763      163.212       97.798    40708.194    26638.119     9564.496        8.569        3.846      307.154      104.747        0.116      345.641       23.314      858.010
06/12/2013  18:12:00     -380.329     -165.112      -15.671      180.277      132.635       73.301    32499.814    17591.935     5372.963       11.380        2.773      414.623       85.178        0.042      345.649       23.327      858.002
06/12/2013  18:13:00     -234.616     -174.308       21.611      183.281      173.817       97.005    33591.968    30212.482     9409.984        7.954        3.661      292.281       99.554        0.116      345.858       23.687      858.032
06/12/2013  18:14:00     -317.508     -259.477       -6.320      172.121      157.525       85.037    29625.513    24814.176     7231.315       11.491        3.084      410.048       82.940        0.041      345.783       23.557      858.088
06/12/2013  18:15:00     -463.410     -171.195      -33.337      254.822      169.663       82.508    64934.065    28785.415     6807.565       17.283        5.026      494.021       93.085        0.036      345.690       23.398      858.080
06/12/2013  18:16:00     -425.316      -94.741      -15.913      235.346      175.751       90.116    55387.723    30888.423     8120.957       14.224        4.720      435.740      112.938        0.067      345.642       23.314      858.096
06/12/2013  18:17:00     -308.167     -247.674      -11.567      195.981      137.524       74.096    38408.531    18912.900     5490.280       10.961        3.141      395.360       60.950        0.024      345.580       23.209      858.065
06/12/2013  18:18:00     -472.915     -304.916      -18.839      258.748      171.614      104.393    66950.668    29451.265    10897.837       21.212        5.365      562.692      107.899        0.037      345.567       23.186      858.066
06/12/2013  18:19:00     -319.593      -68.619      -12.335      228.222      128.214       79.693    52085.469    16438.735     6350.966        9.092        3.744      326.877       96.985        0.088      345.729       23.465      858.118
06/12/2013  18:20:00     -433.298     -137.655       -2.484      182.959      114.801       75.336    33474.037    13179.289     5675.484       12.950        2.616      454.638       79.632        0.031      345.643       23.315      858.165
06/12/2013  18:21:00     -372.754     -189.650      -15.152      181.204      160.020       75.520    32834.888    25606.515     5703.304       11.963        3.207      418.226       69.626        0.028      345.646       23.320      858.202
06/12/2013  18:22:00     -294.779     -253.244      -12.016      163.056      151.525       99.371    26587.279    22959.777     9874.501       10.528        2.971      388.622       94.867        0.060      345.602       23.246      858.202
06/12/2013  18:23:00     -279.098     -198.844       18.228      231.517      135.922       93.453    53600.004    18474.673     8733.549        9.927        4.040      342.688      112.098        0.107      345.637       23.306      858.193
06/12/2013  18:24:00     -265.359      -59.646       -5.099      121.962      148.126       63.829    14874.640    21941.338     4074.113        5.744        2.045      271.980       72.807        0.072      345.645       23.321      858.230
06/12/2013  18:25:00     -267.964     -239.559       -1.400      194.086      144.338       96.884    37669.386    20833.338     9386.577        9.853        3.394      359.435       93.075        0.067      345.700       23.414      858.226
06/12/2013  18:26:00     -326.880     -268.157        1.208      202.594      155.481       98.909    41044.133    24174.283     9783.053       12.687        3.750      422.798      122.592        0.084      345.507       23.084      858.237
06/12/2013  18:27:00     -105.825      -85.948       16.884      133.106       94.106       46.997    17717.285     8855.974     2208.703        2.382        1.439      136.331       59.186        0.188      345.698       23.414      858.253
06/12/2013  18:28:00     -124.840      -30.094       19.600       99.411       96.396       46.622     9882.603     9292.215     2173.629        1.911        1.067      128.416       43.922        0.117      345.644       23.320      858.245
06/12/2013  18:29:00     -424.168     -195.864      -21.860      154.806      131.145       66.339    23964.886    17198.998     4400.807       13.215        2.278      467.206       64.374        0.019      345.488       23.050      858.274
06/12/2013  18:30:00     -383.108      -11.836      -22.759      241.926      169.586       83.908    58528.014    28759.390     7040.561       12.086        4.716      383.291      109.702        0.082      345.615       23.268      858.300
06/12/2013  18:31:00     -356.781      -18.288      -13.021      168.915      113.821       73.679    28532.198    12955.258     5428.618        8.735        2.346      357.249       76.217        0.046      345.642       23.316      858.291
06/12/2013  18:32:00     -296.125      -74.071      -15.781      112.939       80.217       51.813    12755.253     6434.762     2684.600        5.765        1.094      305.248       46.754        0.023      345.673       23.367      858.293
06/12/2013  18:33:00     -417.648     -124.682      -11.009      184.964      119.102       67.159    34211.561    14185.185     4510.296       12.149        2.645      435.861       75.914        0.030      345.636       23.304      858.290
06/12/2013  18:34:00     -333.710      -24.232      -14.318      165.633      146.017       69.496    27434.434    21320.890     4829.665        8.286        2.679      334.589       75.280        0.051      345.582       23.212      858.318
06/12/2013  18:35:00     -267.234      -15.712        1.336      125.111       92.184       63.493    15652.841     8497.949     4031.375        4.992        1.409      267.696       69.063        0.067      345.628       23.292      858.318
06/12/2013  18:36:00     -299.343      -46.707      -22.340      164.763      116.883       77.163    27146.810    13661.527     5954.083        6.952        2.338      302.965       94.912        0.098      345.594       23.231      858.323
06/12/2013  18:37:00     -344.039      -92.886      -32.814      179.940      164.554       77.491    32378.571    27078.074     6004.784        9.675        3.273      356.358       81.802        0.053      345.551       23.158      858.306
06/12/2013  18:38:00     -385.190     -100.860      -14.873      154.867      101.642       76.807    23983.906    10331.083     5899.365        9.948        2.011      398.176       73.016        0.034      345.557       23.168      858.336
06/12/2013  18:39:00     -461.073      -36.637      -30.688      226.516      168.017       74.789    51309.675    28229.573     5593.343       14.999        4.257      462.526      105.126        0.052      345.480       23.037      858.378
06/12/2013  18:40:00     -358.371      -36.077      -17.985      159.031      135.470       69.387    25290.730    18352.029     4814.541        8.925        2.423      360.182       81.236        0.051      345.519       23.104      858.380
06/12/2013  18:41:00     -540.379     -111.640      -20.974      247.514      150.489       89.271    61263.305    22647.015     7969.375       19.838        4.594      551.790      104.453        0.036      345.323       22.766      858.390
06/12/2013  18:42:00     -277.726      -56.151       -7.304      149.308      130.944       62.607    22292.830    17146.376     3919.697        6.184        2.168      283.345       67.424        0.057      345.469       23.019      858.444
06/12/2013  18:43:00     -199.927     -147.360       -3.203      166.810      128.750       81.003    27825.413    16576.446     6561.483        5.632        2.548      248.366       95.615        0.148      345.434       22.958      858.462
06/12/2013  18:44:00     -341.105      -33.804      -14.681      195.560      116.109       68.851    38243.548    13481.415     4740.392        8.708        2.823      342.776       80.351        0.055      345.442       22.972      858.477
06/12/2013  18:45:00     -291.583     -104.870      -11.712      108.069      102.880       58.498    11678.872    10584.261     3421.990        6.092        1.284      309.868       60.581        0.038      345.461       23.002      858.481
06/12/2013  18:46:00     -248.469      -52.546        9.509      138.565      138.715       71.611    19200.369    19241.949     5128.153        5.407        2.179      253.964       75.704        0.089      345.475       23.028      858.512
06/12/2013  18:47:00     -653.026      -58.590      -45.080      204.112      166.224       87.018    41661.902    27630.465     7572.219       25.437        3.843      655.649       86.041        0.017      345.217       22.586      858.508
06/12/2013  18:48:00     -500.344     -145.235      -20.446      263.998      192.518      108.258    69694.777    37063.071    11719.888       19.514        5.924      520.996      110.673        0.045      345.234       22.614      858.514
06/12/2013  18:49:00     -412.880     -177.512        7.175      235.645      192.258       93.474    55528.509    36963.121     8737.360       15.161        5.061      449.422      105.124        0.055      345.226       22.601      858.550
06/12/2013  18:50:00     -486.778     -123.616      -14.782      227.665      168.252       98.956    51831.142    28308.734     9792.285       17.117        4.497      502.229      114.310        0.052      345.283       22.699      858.537
06/12/2013  18:51:00     -336.574     -122.376       -7.816      220.867      160.846       87.690    48782.094    25871.558     7689.553       10.531        4.117      358.131       90.580        0.064      345.260       22.660      858.530
06/12/2013  18:52:00     -293.619     -112.381       -8.781      181.355      136.975       79.655    32889.716    18762.059     6344.936        7.845        2.900      314.391       88.497        0.079      345.235       22.616      858.527
06/12/2013  18:53:00     -296.670      -79.262       -6.659      193.607      111.569       82.252    37483.676    12447.698     6765.315        7.551        2.835      307.076       89.742        0.085      345.305       22.737      858.534
06/12/2013  18:54:00     -324.847     -130.530      -11.459      241.974      215.572      106.018    58551.298    46471.326    11239.767       11.946        5.813      350.091      125.890        0.129      345.210       22.575      858.568
06/12/2013  18:55:00     -487.380     -155.287       -9.070      260.548      228.546      107.109    67885.095    52233.358    11472.423       19.664        6.580      511.521      109.837        0.046      345.109       22.402      858.584
06/12/2013  18:56:00     -256.090     -153.032        4.436      237.700      167.104       84.406    56501.220    27923.752     7124.452        9.027        4.577      298.330      110.641        0.138      345.191       22.541      858.605
06/12/2013  18:57:00     -404.661     -126.725      -12.649      183.334      162.970       85.779    33611.345    26559.243     7358.084       12.374        3.376      424.040       91.419        0.046      345.122       22.424      858.626
06/12/2013  18:58:00     -540.799     -322.886      -35.857      272.288      188.535      100.687    74140.556    35545.575    10137.799       25.889        5.991      629.857      114.627        0.033      345.045       22.292      858.618
06/12/2013  18:59:00     -392.875     -218.376       -6.690      226.142      226.536      112.680    51140.231    51318.738    12696.726       15.860        5.758      449.488      120.059        0.071      345.052       22.306      858.600
06/12/2013  19:00:00     -414.381      -75.841       -6.169      158.416      166.287       71.760    25095.611    27651.503     5149.532       11.769        2.895      421.264       73.811        0.031      345.061       22.319      858.615
06/12/2013  19:01:00     -268.158     -105.412       -1.809      162.218      114.391       57.537    26314.615    13085.387     3310.499        6.286        2.136      288.132       60.495        0.044      345.124       22.426      858.624
06/12/2013  19:02:00     -387.078        9.047      -32.697      164.142      128.511       76.958    26942.568    16515.157     5922.605       10.017        2.469      387.183       76.273        0.039      345.097       22.380      858.612
06/12/2013  19:03:00     -407.697      -80.599       -2.594      162.005      140.311       66.510    26245.499    19687.302     4423.560       11.153        2.518      415.588       63.761        0.024      345.106       22.396      858.626
06/12/2013  19:04:00     -271.410      -57.213       -2.956      152.870      110.127       65.962    23369.215    12127.876     4350.971        5.839        1.992      277.375       74.623        0.072      345.055       22.310      858.635
06/12/2013  19:05:00     -264.904       51.844       -4.804      130.408      102.084       62.453    17006.197    10421.162     3900.327        5.210        1.566      269.929       51.660        0.037      345.107       22.400      858.620
06/12/2013  19:06:00     -295.856       12.838      -20.048      123.538       98.072       58.665    15261.677     9618.055     3441.636        5.820        1.416      296.134       56.249        0.036      345.109       22.402      858.616
06/12/2013  19:07:00     -242.248       -1.927       -0.278      191.938      140.507       60.912    36840.356    19742.221     3710.323        5.948        3.015      242.256       43.959        0.033      345.155       22.480      858.633
06/12/2013  19:08:00     -310.319     -151.646       -6.109      155.014      122.525       68.856    24029.480    15012.441     4741.213        8.155        2.189      345.391       65.176        0.036      345.088       22.365      858.651
06/12/2013  19:09:00     -481.948     -289.377        3.367      208.835      174.525      108.246    43612.213    30458.984    11717.289       20.089        4.289      562.151      120.246        0.046      344.953       22.134      858.615
06/12/2013  19:10:00     -320.702     -159.398       -3.319      219.658      166.868       93.160    48249.848    27844.856     8678.712       10.650        4.239      358.131       94.161        0.069      344.985       22.190      858.625
06/12/2013  19:11:00     -511.553     -237.268        1.546      256.727      163.128       89.256    65908.647    26610.615     7966.707       20.922        5.024      563.900      101.880        0.033      344.899       22.042      858.660
06/12/2013  19:12:00     -486.936     -231.723      -28.135      244.923      186.709      111.511    59987.041    34860.117    12434.808       19.942        5.364      539.261      122.846        0.052      344.897       22.039      858.661
06/12/2013  19:13:00     -278.516     -235.653       16.742      231.486      168.021      120.543    53585.760    28231.136    14530.570       11.485        4.817      364.833      131.708        0.130      344.939       22.110      858.639
06/12/2013  19:14:00     -395.236     -204.009      -33.647      202.092      225.201       96.375    40841.246    50715.635     9288.199       14.988        5.042      444.783      105.935        0.057      344.913       22.066      858.655
06/12/2013  19:15:00     -421.877     -210.989      -29.223      172.604      152.302       75.332    29792.299    23195.926     5674.961       14.100        2.933      471.695       90.426        0.037      344.888       22.024      858.647
06/12/2013  19:16:00     -218.091      -93.489        4.159      123.931      118.046       59.880    15358.922    13934.905     3585.600        4.459        1.644      237.284       60.239        0.064      344.979       22.179      858.680
06/12/2013  19:17:00     -251.224      -81.128       -4.260      153.646       98.039       54.664    23607.222     9611.640     2988.129        5.295        1.810      263.998       54.268        0.042      344.994       22.206      858.697
06/12/2013  19:18:00     -455.228     -115.043      -38.291      182.368      183.098       82.778    33258.231    33524.803     6852.276       14.777        3.682      469.540       76.948        0.027      344.861       21.976      858.642
06/12/2013  19:19:00     -241.701      -73.562       -7.078      167.154      165.326       76.105    27940.399    27332.639     5791.984        6.246        3.053      252.647       72.326        0.082      344.947       22.125      858.672
06/12/2013  19:20:00     -319.633      -29.654      -10.205      175.049      138.260       79.988    30642.095    19115.782     6398.026        7.964        2.808      321.005       75.873        0.056      344.884       22.017      858.710
06/12/2013  19:21:00     -318.682     -145.776      -21.967      147.261      128.762       63.771    21685.911    16579.723     4066.791        8.280        2.117      350.441       53.612        0.023      344.846       21.953      858.724
06/12/2013  19:22:00     -228.648     -169.976       -5.015      238.737      174.123       89.387    56995.173    30318.682     7990.033        8.823        4.765      284.907       88.427        0.096      344.877       22.005      858.727
06/12/2013  19:23:00     -230.440     -216.610       11.111      156.315      185.304       87.166    24434.496    34337.429     7597.914        8.324        3.318      316.263       89.701        0.080      344.821       21.907      858.749
06/12/2013  19:24:00     -288.429     -139.848        9.930      189.622      137.549       97.245    35956.347    18919.726     9456.513        8.358        3.217      320.545      104.910        0.107      344.803       21.878      858.740
06/12/2013  19:25:00     -328.861      -25.441       -1.755      262.296      134.410       82.914    68799.405    18066.177     6874.750       10.125        4.687      329.843      120.999        0.135      344.781       21.841      858.757
06/12/2013  19:26:00     -440.557      -27.173      -22.575      136.850      115.147       62.646    18727.980    13258.732     3924.570       11.562        1.796      441.395       68.575        0.024      344.725       21.743      858.761
06/12/2013  19:27:00     -304.266      -53.405        2.863      176.227      163.620       85.886    31055.837    26771.419     7376.459        8.031        3.260      308.918       93.744        0.092      344.785       21.846      858.759
06/12/2013  19:28:00     -524.017     -107.313      -18.774      216.262      150.519       90.964    46769.177    22656.089     8274.439       18.207        3.885      534.893      107.306        0.040      344.685       21.674      858.763
06/12/2013  19:29:00     -531.595     -107.313      -19.130      194.577      152.693       87.654    37860.218    23315.196     7683.246       18.165        3.443      542.319       67.594        0.016      344.641       21.601      858.745
06/12/2013  19:30:00     -375.690     -311.109      -13.245      231.053      208.935      111.789    53385.313    43653.859    12496.700       17.380        5.477      487.783      110.508        0.051      344.618       21.562      858.751
06/12/2013  19:31:00     -225.276     -171.006        6.891      219.314      192.023       90.799    48098.574    36873.023     8244.457        8.661        4.661      282.829       92.117        0.106      344.604       21.539      858.741
06/12/2013  19:32:00     -261.526     -184.608       -7.677      186.939      135.570       77.296    34946.328    18379.284     5974.698        8.091        2.965      320.118       95.138        0.088      344.632       21.585      858.781
06/12/2013  19:33:00     -445.322      -66.560      -24.685      170.477      148.298       83.761    29062.531    21992.315     7015.956       13.070        2.904      450.268       77.604        0.030      344.602       21.533      858.818
06/12/2013  19:34:00     -456.400     -212.935      -15.089      214.213      235.692      108.006    45887.103    55550.531    11665.330       18.346        5.655      503.629      116.326        0.053      344.591       21.515      858.821
06/12/2013  19:35:00     -464.598      -25.691      -21.782      161.531      155.279       87.735    26092.373    24111.686     7697.419       13.743        2.895      465.308       80.800        0.030      344.541       21.430      858.839
06/12/2013  19:36:00     -367.254     -189.515      -13.614      201.885      177.292       84.429    40757.669    31432.361     7128.303       12.513        3.966      413.269       99.274        0.058      344.520       21.393      858.851
06/12/2013  19:37:00     -350.283      -74.211       -9.881      226.799      140.784       92.184    51437.675    19820.218     8497.981       10.401        3.988      358.058      105.860        0.087      344.525       21.403      858.868
06/12/2013  19:38:00     -192.482      -77.788       12.669      147.080      105.867       67.302    21632.600    11207.870     4529.624        4.031        1.869      207.606       56.175        0.073      344.569       21.478      858.884
06/12/2013  19:39:00     -375.221     -251.694      -13.296      224.413      173.064       95.536    50361.298    29951.224     9127.130       14.686        4.472      451.819      117.746        0.068      344.506       21.370      858.904
06/12/2013  19:40:00     -324.767     -211.174        0.602      192.058      167.069       92.626    36886.163    27911.957     8579.557       11.171        3.669      387.386      112.864        0.085      344.518       21.390      858.893
06/12/2013  19:41:00     -290.137      -88.084       -5.773      217.829      143.454       72.736    47449.599    20579.078     5290.463        8.263        3.666      303.213       85.248        0.079      344.512       21.383      858.954
06/12/2013  19:42:00     -430.166     -234.489      -19.312      204.008      155.654       85.702    41619.428    24228.211     7344.790       15.678        3.660      489.927       98.777        0.041      344.483       21.330      858.961
06/12/2013  19:43:00     -472.482     -294.314      -14.000      186.859      152.453       87.487    34916.337    23241.888     7653.954       18.792        3.291      556.650       89.986        0.026      344.431       21.242      858.979
06/12/2013  19:44:00     -335.206     -128.961       -6.617      177.224      182.368      102.586    31408.308    33258.133    10523.863       10.210        3.760      359.158      104.717        0.085      344.478       21.321      858.977
06/12/2013  19:45:00     -412.709     -223.671      -21.884      251.291      156.558       86.609    63146.957    24510.502     7501.179       15.798        4.758      469.423      105.333        0.050      344.425       21.231      859.008
06/12/2013  19:46:00     -453.967     -205.547      -27.083      200.737      126.258       89.497    40295.169    15941.113     8009.800       15.664        3.212      498.333      101.885        0.042      344.396       21.182      859.017
06/12/2013  19:47:00     -456.781     -304.123      -32.595      242.060      195.528      107.487    58592.835    38231.374    11553.521       20.527        5.419      548.762      120.586        0.048      344.340       21.087      858.991
06/12/2013  19:48:00     -473.575      -90.654       -8.686      213.909      160.177       93.366    45757.137    25656.558     8717.299       15.633        4.007      482.173      102.257        0.045      344.347       21.099      859.034
06/12/2013  19:49:00     -317.957     -123.487      -11.582      120.053      151.524       71.568    14412.763    22959.527     5121.920        7.948        2.125      341.095       63.264        0.034      344.333       21.073      859.049
06/12/2013  19:50:00     -347.866      -61.897      -14.800      159.452      139.806       65.326    25425.047    19545.719     4267.445        8.714        2.462      353.330       67.097        0.036      344.327       21.063      859.072
06/12/2013  19:51:00     -249.321      -92.930        5.836      138.052       95.807       57.302    19058.359     9178.890     3283.509        5.117        1.576      266.077       62.490        0.055      344.327       21.065      859.094
06/12/2013  19:52:00     -244.844     -157.198       -2.089      183.528      169.762       89.128    33682.513    28819.084     7943.842        7.754        3.522      290.963      105.277        0.131      344.272       20.969      859.089
06/12/2013  19:53:00     -242.243     -126.502       -9.677      207.832      163.215       77.466    43194.137    26639.078     6000.958        7.529        3.792      273.284       93.481        0.117      344.258       20.946      859.088
06/12/2013  19:54:00     -273.255      -11.826       -7.234      181.831      117.938       71.309    33062.347    13909.373     5084.913        6.345        2.603      273.511       83.643        0.094      344.247       20.926      859.090
06/12/2013  19:55:00     -350.844     -123.493      -19.399      163.993      137.878       66.214    26893.766    19010.468     4384.299        9.449        2.514      371.943       76.586        0.042      344.206       20.857      859.110
06/12/2013  19:56:00     -307.901      -34.039       -7.643      148.054      122.881       65.611    21919.979    15099.659     4304.825        6.866        2.066      309.777       78.705        0.065      344.176       20.806      859.138
06/12/2013  19:57:00     -269.901     -112.705       -5.166      131.010      155.588       65.786    17163.631    24207.654     4327.809        6.563        2.285      292.488       68.176        0.054      344.184       20.819      859.174
06/12/2013  19:58:00     -282.091     -166.036       -4.734      152.000      112.835       68.373    23103.861    12731.642     4674.847        7.383        2.026      327.328       61.777        0.036      344.158       20.775      859.166
06/12/2013  19:59:00     -234.216      -42.493        3.558      136.494      126.669       71.409    18630.622    16045.025     5099.255        4.822        1.989      238.039       79.834        0.112      344.155       20.769      859.204
06/12/2013  20:00:00     -262.621      -44.515      -11.620      120.190      102.727       62.426    14445.612    10552.827     3897.025        4.999        1.445      266.367       69.130        0.067      344.109       20.691      859.237
06/12/2013  20:01:00     -366.789      -39.991      -10.040      155.707      119.049       70.375    24244.594    14172.562     4952.619        8.979        2.168      368.962       75.286        0.042      344.071       20.626      859.236
06/12/2013  20:02:00     -308.958      -34.791       -0.195      139.537      137.583       65.245    19470.642    18929.216     4256.934        6.965        2.133      310.911       61.389        0.039      344.069       20.623      859.256
06/12/2013  20:03:00     -292.742      -92.887       -4.332      146.057      122.971       66.560    21332.587    15121.863     4430.289        6.761        2.044      307.125       78.662        0.066      344.049       20.589      859.271
06/12/2013  20:04:00     -239.019      -98.432       -0.779      118.435       80.528       51.910    14026.896     6484.803     2694.674        4.501        1.160      258.494       57.240        0.049      344.084       20.649      859.286
06/12/2013  20:05:00     -170.849      -76.415       14.108      122.524      105.801       64.067    15012.038    11193.774     4104.597        3.276        1.516      187.159       64.457        0.119      344.060       20.608      859.287
06/12/2013  20:06:00     -264.050      -50.768       -7.012      120.631      111.304       64.378    14551.827    12388.635     4144.552        5.171        1.554      268.886       63.071        0.055      344.030       20.557      859.281
06/12/2013  20:07:00     -217.723     -134.933      -13.623      111.512      132.375       77.448    12435.000    17523.119     5998.180        5.087        1.798      256.145       58.507        0.052      344.010       20.521      859.263
06/12/2013  20:08:00     -256.394     -110.505      -11.501      128.802       95.897       57.037    16589.841     9196.211     3253.240        5.355        1.452      279.194       64.762        0.054      343.986       20.481      859.286
06/12/2013  20:09:00     -266.621      -32.110       -0.591      123.514       71.643       54.651    15255.724     5132.710     2986.770        4.774        1.169      268.548       59.327        0.049      343.968       20.451      859.295
06/12/2013  20:10:00     -196.681        2.763      -12.938       97.309       80.298       42.532     9469.036     6447.696     1809.005        2.829        0.886      196.700       47.509        0.058      343.957       20.433      859.296
06/12/2013  20:11:00     -175.601      -25.342      -16.644      144.269       63.375       43.133    20813.477     4016.452     1860.431        2.922        1.335      177.420       58.777        0.110      343.955       20.431      859.304
06/12/2013  20:12:00     -266.932      -33.498      -24.113      146.043       72.086       46.509    21328.696     5196.407     2163.092        5.082        1.434      269.026       60.297        0.050      343.955       20.428      859.321
06/12/2013  20:13:00     -302.942      -60.671        0.946      146.786      119.088       69.671    21545.984    14181.979     4854.055        6.801        2.029      308.958       65.882        0.045      343.945       20.411      859.335
06/12/2013  20:14:00     -412.282      -18.184      -36.154      158.147      159.483       50.904    25010.607    25434.929     2591.182       11.231        2.652      412.682       53.232        0.017      343.901       20.336      859.341
06/12/2013  20:15:00     -268.758      -81.038       -0.740      177.011      138.729       76.499    31332.937    19245.686     5852.145        6.760        2.822      280.710       86.341        0.095      343.881       20.302      859.336
06/12/2013  20:16:00     -183.277      -37.931       -3.505      108.529       91.185       51.938    11778.550     8314.626     2697.564        2.891        1.140      187.161       50.673        0.073      343.911       20.353      859.359
06/12/2013  20:17:00     -310.606      -21.161      -14.151      112.024       83.582       50.458    12549.372     6985.932     2546.032        5.960        1.104      311.326       54.270        0.030      343.892       20.322      859.385
06/12/2013  20:18:00     -332.171      -10.916      -27.956      118.461       94.867       51.004    14032.977     8999.736     2601.438        6.843        1.282      332.351       53.464        0.026      343.847       20.244      859.387
06/12/2013  20:19:00     -215.679      -35.290        2.891      106.331      112.242       46.318    11306.334    12598.281     2145.398        3.691        1.303      218.547       47.529        0.047      343.838       20.228      859.399
06/12/2013  20:20:00     -365.221      -80.381      -18.101      123.738       90.716       55.056    15310.980     8229.327     3031.194        8.337        1.329      373.962       42.559        0.013      343.828       20.212      859.411
06/12/2013  20:21:00     -257.354      -77.076       -2.689      143.270      114.423       58.095    20526.238    13092.669     3375.078        5.458        1.850      268.648       54.138        0.041      343.790       20.147      859.405
06/12/2013  20:22:00     -245.104      -55.568       -2.602      129.411       83.647       58.482    16747.245     6996.860     3420.106        4.516        1.358      251.324       57.106        0.052      343.791       20.148      859.428
06/12/2013  20:23:00     -113.467      -31.827       14.772      101.944       79.460       44.655    10392.659     6313.882     1994.096        1.640        0.935      117.846       49.659        0.178      343.751       20.082      859.426
06/12/2013  20:24:00     -205.123     -105.694        9.357      153.051      146.045       76.799    23424.693    21329.254     5898.068        5.198        2.533      230.752       88.662        0.148      343.748       20.076      859.418
06/12/2013  20:25:00     -234.453      -48.367        7.070      181.228      132.889       68.616    32843.731    17659.511     4708.209        5.627        2.761      239.391       53.463        0.050      343.735       20.053      859.416
06/12/2013  20:26:00     -202.382      -39.751        5.238      177.587      119.628       60.411    31536.988    14310.780     3649.451        4.602        2.475      206.249       76.270        0.137      343.681       19.962      859.414
06/12/2013  20:27:00     -100.682      -24.847       24.614      114.191      123.331       67.392    13039.613    15210.490     4541.636        2.207        1.640      103.703       70.842        0.467      343.661       19.928      859.429
06/12/2013  20:28:00     -340.050     -148.355       -1.284      164.680      147.495       82.740    27119.587    21754.834     6845.985        9.667        2.786      371.003       69.127        0.035      343.690       19.975      859.452
06/12/2013  20:29:00     -271.909     -202.114       -6.057      160.719      114.305       62.786    25830.437    13065.558     3942.063        7.882        2.142      338.799       74.672        0.049      343.707       20.005      859.470
06/12/2013  20:30:00     -326.723       -1.458        3.013      169.115      134.451       66.975    28599.752    18077.044     4485.652        7.895        2.558      326.726       82.995        0.065      343.630       19.875      859.478
06/12/2013  20:31:00     -147.247       10.835        0.497       95.602       63.935       54.636     9139.814     4087.716     2985.047        1.900        0.811      147.645       55.283        0.140      343.629       19.873      859.507
06/12/2013  20:32:00     -229.054      -63.783       -8.536      152.064      133.832       50.399    23123.409    17910.878     2540.064        5.008        2.179      237.769       29.307        0.015      343.641       19.892      859.517
06/12/2013  20:33:00     -244.696      -86.181        9.890      144.912      118.434       69.236    20999.456    14026.531     4793.692        5.360        1.991      259.429       76.599        0.087      343.633       19.878      859.516
06/12/2013  20:34:00     -151.645      -95.959        4.479       98.767       87.510       52.551     9754.866     7657.927     2761.574        2.620        1.009      179.455       47.049        0.069      343.617       19.852      859.516
06/12/2013  20:35:00     -189.335      -98.378       -3.748      103.224       68.333       49.446    10655.213     4669.429     2444.920        3.165        0.888      213.368       49.439        0.054      343.623       19.862      859.526
06/12/2013  20:36:00     -228.022      -20.641      -11.681      106.773       94.559       49.274    11400.399     8941.341     2427.896        3.766        1.138      228.955       47.231        0.043      343.574       19.778      859.507
06/12/2013  20:37:00     -266.339      -68.585        0.635      130.445       86.990       58.638    17015.905     7567.197     3438.453        5.183        1.401      275.028       61.144        0.049      343.535       19.711      859.499
06/12/2013  20:38:00     -259.054     -114.153       -0.853      189.530      141.610       87.841    35921.604    20053.387     7715.997        7.190        3.185      283.090       97.105        0.118      343.526       19.696      859.500
06/12/2013  20:39:00     -177.454      -89.521       -4.205      140.276      102.573       53.021    19677.246    10521.122     2811.230        3.626        1.650      198.756       65.419        0.108      343.507       19.665      859.516
06/12/2013  20:40:00      -90.799      -66.171        9.538      134.408       78.692       53.723    18065.463     6192.499     2886.178        1.992        1.357      112.352       54.282        0.233      343.539       19.720      859.509
06/12/2013  20:41:00     -284.788      -84.469       -8.060      154.048      123.855       75.519    23730.797    15340.009     5703.135        6.653        2.239      297.051       77.880        0.069      343.514       19.674      859.513
06/12/2013  20:42:00     -274.254      -56.526        0.111      169.420       98.046       60.944    28703.021     9613.058     3714.197        6.021        2.102      280.018       75.685        0.073      343.480       19.619      859.513
06/12/2013  20:43:00     -330.348     -179.538        8.556      134.293      128.002       67.050    18034.636    16384.398     4495.741        9.017        1.946      375.984       67.710        0.032      343.463       19.589      859.519
06/12/2013  20:44:00     -189.939      -34.825       15.107      120.302       82.271       46.573    14472.593     6768.583     2169.038        3.046        1.171      193.106       52.362        0.074      343.440       19.552      859.523
06/12/2013  20:45:00     -168.711      -88.437        3.322      131.026       90.724       55.045    17167.745     8230.765     3029.909        3.236        1.421      190.485       63.131        0.110      343.473       19.607      859.518
06/12/2013  20:46:00     -141.874      -48.769       11.513      149.751       99.600       60.263    22425.370     9920.145     3631.597        2.930        1.799      150.023       61.600        0.169      343.441       19.553      859.551
06/12/2013  20:47:00     -342.672     -104.004      -14.976      271.276      139.768       79.569    73590.581    19535.099     6331.252       11.394        4.973      358.107      109.513        0.094      343.450       19.568      859.549
06/12/2013  20:48:00     -345.714      -94.312       -9.689      196.578      171.102       78.829    38643.037    29275.945     6214.020       10.130        3.707      358.348       79.910        0.050      343.419       19.514      859.557
06/12/2013  20:49:00     -307.260      -98.774       -8.679      162.076      170.440       85.880    26268.625    29049.874     7375.391        8.345        3.135      322.746       83.094        0.066      343.430       19.532      859.566
06/12/2013  20:50:00     -166.364      -71.955       22.202      154.790      125.794       88.412    23959.870    15824.033     7816.754        4.046        2.380      181.258       78.972        0.190      343.420       19.517      859.560
06/12/2013  20:51:00     -375.072     -104.690      -19.436      185.464      159.226       82.701    34397.040    25352.929     6839.497       10.929        3.329      389.409       95.062        0.060      343.381       19.449      859.589
06/12/2013  20:52:00     -268.583      -10.533        2.738      154.173      112.260       67.933    23769.268    12602.277     4614.873        5.661        2.049      268.790       73.283        0.074      343.326       19.357      859.603
06/12/2013  20:53:00     -177.651     -145.102        6.128      170.165      128.603       81.386    28956.277    16538.719     6623.676        5.238        2.606      229.379       90.546        0.156      343.352       19.401      859.593
06/12/2013  20:54:00     -310.361     -145.682        0.609      170.098      108.804       61.880    28933.205    11838.324     3829.178        8.107        2.230      342.852       65.067        0.036      343.347       19.392      859.588
06/12/2013  20:55:00     -219.648     -127.129        6.511      176.438      121.413       61.849    31130.397    14741.198     3825.332        5.706        2.485      253.785       84.492        0.111      343.303       19.317      859.610
06/12/2013  20:56:00     -171.901      -62.611       10.557      122.133      111.788       64.949    14916.375    12496.631     4218.373        3.260        1.582      182.949       70.650        0.149      343.285       19.288      859.621
06/12/2013  20:57:00     -157.155      -49.600        9.215      156.136      122.493       66.896    24378.601    15004.564     4475.141        3.554        2.193      164.797       74.116        0.202      343.265       19.253      859.637
06/12/2013  20:58:00     -392.546     -129.231       -6.512      233.553      216.986       91.717    54546.796    47083.123     8411.964       14.042        5.502      413.271       88.417        0.046      343.283       19.282      859.637
06/12/2013  20:59:00     -627.880      -24.909      -31.457      292.983      147.178       99.419    85839.301    21661.291     9884.082       25.659        5.869      628.373      124.420        0.039      343.272       19.263      859.632
06/12/2013  21:00:00     -471.761     -166.351      -20.280      176.292      165.872       84.067    31078.824    27513.580     7067.191       15.814        3.283      500.231       86.456        0.030      343.272       19.262      859.666
06/12/2013  21:01:00     -484.600     -188.000      -30.150      240.044      138.512       93.984    57620.891    19185.630     8833.081       17.835        4.282      519.790      111.885        0.046      343.279       19.275      859.686
06/12/2013  21:02:00     -284.610        5.575      -13.476      143.280      120.912       59.352    20529.280    14619.822     3522.678        5.994        1.934      284.665       54.639        0.037      343.254       19.231      859.700
06/12/2013  21:03:00     -214.291      -61.577      -13.309      130.252      126.157       63.102    16965.612    15915.674     3981.866        4.337        1.843      222.963       59.313        0.071      343.247       19.219      859.707
06/12/2013  21:04:00     -269.767      -76.318        4.436      186.291      124.799       77.932    34704.421    15574.698     6073.328        6.747        2.818      280.354       90.294        0.104      343.219       19.173      859.708
06/12/2013  21:05:00     -434.721      -40.046       -5.736      188.649      126.805       84.617    35588.463    16079.514     7160.058       12.471        2.941      436.561       92.994        0.045      343.184       19.114      859.715
06/12/2013  21:06:00     -283.459      -47.687       -3.961      141.026      114.178       63.763    19888.358    13036.533     4065.712        5.981        1.850      287.442       68.237        0.056      343.188       19.121      859.747
06/12/2013  21:07:00     -191.072      -38.183       11.416      112.879       97.495       57.469    12741.750     9505.199     3302.690        3.182        1.277      194.850       61.068        0.098      343.146       19.048      859.771
06/12/2013  21:08:00     -264.330     -157.348      -15.494       91.845       91.016       46.524     8435.550     8283.949     2164.441        5.687        0.944      307.618       30.322        0.010      343.189       19.122      859.807
06/12/2013  21:09:00     -193.331     -143.769       -1.369      109.208       88.461       61.567    11926.377     7825.350     3790.501        4.079        1.177      240.929       60.586        0.063      343.159       19.072      859.834
06/12/2013  21:10:00     -196.014     -183.059       22.637      219.791      148.821       98.696    48308.045    22147.765     9740.959        7.630        4.010      268.202      129.517        0.233      343.118       19.002      859.820
06/12/2013  21:11:00     -369.849     -108.689       -9.353      152.283      140.744       66.307    23190.138    19808.887     4396.641        9.803        2.370      385.489       66.195        0.029      343.095       18.961      859.827
06/12/2013  21:12:00     -263.827     -136.510      -19.535      200.760      130.635       81.908    40304.437    17065.605     6708.866        7.634        3.204      297.052       84.648        0.081      343.122       19.009      859.839
06/12/2013  21:13:00     -390.269     -228.472      -19.249      216.841      136.463       69.310    47019.970    18622.083     4803.903       13.765        3.522      452.227       88.339        0.038      343.108       18.984      859.856
06/12/2013  21:14:00     -252.566     -202.925       -2.212      159.086      122.049       92.257    25308.343    14895.859     8511.409        7.683        2.436      323.989       99.520        0.094      343.097       18.965      859.854
06/12/2013  21:15:00     -305.676     -185.199       -3.568      145.737      120.209       71.783    21239.243    14450.290     5152.802        8.429        2.042      357.403       69.112        0.037      343.082       18.940      859.893
06/12/2013  21:16:00     -278.924     -109.607        0.677      181.476      117.260       56.345    32933.651    13750.010     3174.752        6.983        2.493      299.687       71.036        0.056      343.054       18.893      859.910
06/12/2013  21:17:00     -257.384      -83.223       -3.236      129.058      101.264       49.101    16655.976    10254.419     2410.934        5.125        1.466      270.504       56.701        0.044      343.033       18.856      859.952
06/12/2013  21:18:00     -115.054      -71.934       23.226      131.665      129.803       63.377    17335.676    16848.828     4016.620        2.857        1.910      135.691       78.749        0.337      343.024       18.843      859.956
06/12/2013  21:19:00      -46.621      -64.076       12.423      112.670       89.819       52.545    12694.421     8067.423     2760.998        1.497        1.176       79.242       58.943        0.553      342.990       18.786      859.985
06/12/2013  21:20:00     -135.030      -53.849        7.559       80.892       92.199       38.538     6543.459     8500.702     1485.205        1.886        0.826      145.371       40.389        0.077      342.932       18.687      860.009
06/12/2013  21:21:00     -279.116      -42.455       -4.707      146.101       70.174       58.513    21345.640     4924.447     3423.742        5.471        1.485      282.327       65.456        0.054      342.939       18.697      860.019
06/12/2013  21:22:00     -298.023     -198.820      -12.949      160.342      166.462       87.347    25709.598    27709.712     7629.528        9.477        3.052      358.256       85.841        0.057      342.962       18.735      860.012
06/12/2013  21:23:00     -282.284     -164.737       -8.852      189.817      133.081       83.224    36030.366    17710.539     6926.237        8.377        3.033      326.837       91.011        0.078      342.921       18.665      860.010
06/12/2013  21:24:00     -341.751      -94.180      -12.096      165.957      110.375       61.968    27541.765    12182.549     3839.987        8.468        2.178      354.491       65.215        0.034      342.888       18.610      860.063
06/12/2013  21:25:00     -323.335      -68.444       -5.379      158.890      112.580       68.473    25245.887    12674.356     4688.522        7.593        2.130      330.500       61.251        0.034      342.883       18.601      860.053
06/12/2013  21:26:00     -337.516     -169.941       -3.320      202.200      145.801       86.680    40885.000    21258.027     7513.426       10.622        3.483      377.885       89.236        0.056      342.887       18.607      860.065
06/12/2013  21:27:00     -348.326     -120.264        7.331      184.005      140.770       78.852    33857.769    19816.144     6217.633        9.786        2.995      368.503       90.921        0.061      342.859       18.560      860.081
06/12/2013  21:28:00     -382.343     -213.658      -24.873      133.160      124.106       74.837    17731.596    15402.265     5600.546       11.559        1.937      437.991       59.696        0.019      342.854       18.550      860.103
06/12/2013  21:29:00     -282.608      -44.317       12.269      200.723      164.321       94.019    40289.852    27001.229     8839.576        7.904        3.807      286.062       99.231        0.120      342.848       18.541      860.105
06/12/2013  21:30:00     -446.006     -100.742       -7.509      162.203      139.915       72.484    26309.668    19576.197     5253.975       13.012        2.557      457.242       73.329        0.026      342.807       18.472      860.119
06/12/2013  21:31:00     -333.114     -134.203       -9.378      141.737      104.104       61.274    20089.282    10837.704     3754.450        8.187        1.734      359.131       69.310        0.037      342.784       18.435      860.153
06/12/2013  21:32:00     -274.320      -88.428      -11.394       90.513       74.780       55.124     8192.647     5592.053     3038.674        5.001        0.841      288.221       50.463        0.031      342.773       18.413      860.168
06/12/2013  21:33:00     -286.897      -51.896        8.930      146.979      113.678       65.723    21602.928    12922.747     4319.533        6.196        1.942      291.553       75.423        0.067      342.741       18.360      860.193
06/12/2013  21:34:00     -266.677      -65.827       -3.356      182.791      117.519       55.254    33412.680    13810.764     3053.038        6.286        2.514      274.681       66.478        0.059      342.741       18.359      860.201
06/12/2013  21:35:00     -259.426     -140.965      -10.537      129.193       91.105       62.904    16690.830     8300.142     3956.960        5.811        1.447      295.250       72.969        0.061      342.753       18.379      860.199
06/12/2013  21:36:00     -200.034      -97.028      -10.990      127.914      108.596       65.774    16361.959    11793.154     4326.156        4.101        1.624      222.324       80.248        0.130      342.741       18.359      860.212
06/12/2013  21:37:00     -252.772     -113.830       -9.199      113.138      113.182       45.003    12800.288    12810.120     2025.298        5.228        1.382      277.220       45.684        0.027      342.699       18.288      860.224
06/12/2013  21:38:00     -332.331      -36.469      -19.660      123.320      107.849       66.417    15207.822    11631.303     4411.267        7.170        1.563      334.326       62.211        0.035      342.678       18.253      860.232
06/12/2013  21:39:00     -209.162     -108.036      -10.765       97.862       92.400       57.592     9576.904     8537.735     3316.839        3.848        1.072      235.416       56.394        0.057      342.695       18.281      860.247
06/12/2013  21:40:00     -358.805     -109.602       -6.961      185.660      139.241       73.633    34469.490    19387.942     5421.863       10.003        2.964      375.171       82.718        0.049      342.638       18.185      860.252
06/12/2013  21:41:00     -264.303      -49.626      -15.945       82.851       95.680       47.903     6864.329     9154.668     2294.650        4.544        0.916      268.922       33.343        0.015      342.602       18.123      860.272
06/12/2013  21:42:00     -177.413      -13.799       -0.271      106.333       66.520       47.762    11306.671     4424.945     2281.228        2.484        0.901      177.949       54.347        0.093      342.576       18.081      860.263
06/12/2013  21:43:00     -148.290      -54.981        8.712       94.396       70.377       53.199     8910.530     4952.933     2830.136        2.089        0.835      158.155       48.418        0.094      342.638       18.187      860.273
06/12/2013  21:44:00     -237.840      -16.786       -1.559      113.999       76.438       46.170    12995.712     5842.799     2131.699        3.891        1.049      238.432       57.365        0.058      342.523       17.991      860.300
06/12/2013  21:45:00     -358.823      -83.765      -15.655      117.977      102.325       57.064    13918.667    10470.497     3256.289        8.182        1.382      368.470       49.981        0.018      342.553       18.038      860.321
06/12/2013  21:46:00     -220.844     -124.453       -2.294      138.597      116.995       60.311    19209.239    13687.764     3637.357        5.039        1.827      253.496       57.774        0.052      342.543       18.024      860.329
06/12/2013  21:47:00     -321.969        0.373      -26.092      110.857       94.325       55.925    12289.297     8897.200     3127.579        6.432        1.216      321.969       56.270        0.031      342.540       18.016      860.343
06/12/2013  21:48:00     -359.905      -91.984      -21.433      128.344      105.716       53.974    16472.304    11175.866     2913.236        8.450        1.528      371.473       53.653        0.021      342.496       17.944      860.362
06/12/2013  21:49:00     -109.528       54.216       19.468       97.545       67.614       48.879     9514.953     4571.712     2389.115        1.589        0.824      122.212       46.522        0.145      342.450       17.867      860.366
06/12/2013  21:50:00     -288.839     -145.729       -8.039      167.739      107.197       69.155    28136.258    11491.102     4782.419        7.456        2.220      323.519       73.686        0.052      342.482       17.919      860.373
06/12/2013  21:51:00     -216.923      -90.074       -1.331      126.437      123.895       65.398    15986.433    15349.923     4276.906        4.538        1.781      234.881       64.681        0.076      342.485       17.925      860.369
06/12/2013  21:52:00     -221.448      -31.776       -1.242      102.561       76.985       45.086    10518.771     5926.699     2032.737        3.426        0.924      223.717       43.739        0.038      342.475       17.906      860.397
06/12/2013  21:53:00     -310.176      -28.932      -17.729      122.159      126.640       42.779    14922.876    16037.596     1830.017        6.507        1.640      311.522       35.299        0.013      342.435       17.839      860.398
06/12/2013  21:54:00     -236.066      -30.914       -5.468      139.840       89.567       54.975    19555.104     8022.278     3022.264        4.365        1.530      238.082       63.264        0.071      342.370       17.729      860.409
06/12/2013  21:55:00     -342.758     -107.386       -0.471      134.440      126.867       70.209    18074.162    16095.161     4929.299        8.405        1.955      359.186       66.857        0.035      342.390       17.764      860.388
06/12/2013  21:56:00     -176.757      -24.503      -14.125      103.422       86.550       49.807    10696.202     7490.923     2480.695        2.635        1.033      178.447       38.153        0.046      342.366       17.723      860.410
06/12/2013  21:57:00     -187.384      -56.875        6.506      166.861      129.757       67.308    27842.665    16836.807     4530.301        4.379        2.460      195.825       79.040        0.163      342.342       17.682      860.423
06/12/2013  21:58:00     -314.248     -128.189        1.776      187.753      133.884       68.896    35251.142    17924.882     4746.710        8.654        2.896      339.389       82.517        0.059      342.368       17.725      860.419
06/12/2013  21:59:00     -172.726     -133.221        1.821      105.882       98.782       68.177    11210.921     9757.785     4648.114        3.660        1.281      218.133       70.004        0.103      342.360       17.712      860.432
06/12/2013  22:00:00     -220.523      -49.249      -17.217      135.977       79.444       56.918    18489.640     6311.350     3239.605        3.969        1.402      225.956       65.822        0.085      342.326       17.654      860.436
06/12/2013  22:01:00     -219.625      -49.854       -2.055      150.203      113.041       66.229    22560.976    12778.196     4386.247        4.522        1.986      225.212       80.651        0.128      342.311       17.630      860.446
06/12/2013  22:02:00     -230.356      -50.372       -3.663      181.589      105.656       70.320    32974.421    11163.177     4944.884        5.234        2.454      235.799       79.973        0.115      342.336       17.672      860.436
06/12/2013  22:03:00     -177.950      -89.327       16.114      160.729      111.545       66.893    25833.688    12442.201     4474.719        4.132        2.138      199.112       75.282        0.143      342.308       17.625      860.440
06/12/2013  22:04:00     -162.532     -146.653        9.053      172.078      129.134       70.916    29610.923    16675.610     5029.027        4.965        2.566      218.914       85.326        0.152      342.328       17.659      860.439
06/12/2013  22:05:00     -185.716      -81.834       -0.962      127.036       92.353       54.411    16138.027     8528.998     2960.552        3.440        1.381      202.946       53.243        0.069      342.309       17.625      860.455
06/12/2013  22:06:00     -234.697     -129.667      -11.801      127.143      101.597       60.216    16165.402    10321.946     3625.928        5.107        1.506      268.134       49.531        0.034      342.295       17.600      860.474
06/12/2013  22:07:00     -360.966      -78.801       -8.024      154.134      125.463       67.969    23757.277    15740.941     4619.789        9.034        2.206      369.468       75.377        0.042      342.223       17.479      860.479
06/12/2013  22:08:00     -203.654      -28.145        0.354      133.058       83.843       51.342    17704.558     7029.722     2636.047        3.481        1.369      205.590       52.544        0.065      342.194       17.432      860.484
06/12/2013  22:09:00     -194.737     -139.538        3.606      162.071      161.451       80.996    26266.969    26066.565     6560.383        5.814        2.945      239.569       91.093        0.145      342.242       17.511      860.477
06/12/2013  22:10:00     -203.653      -46.961      -17.096       87.091       75.419       45.366     7584.759     5688.089     2058.076        2.965        0.767      208.997       20.859        0.010      342.232       17.494      860.482
06/12/2013  22:11:00     -275.244     -158.208      -10.260      171.102      114.035       69.985    29275.949    13004.006     4897.883        7.403        2.359      317.473       79.157        0.062      342.224       17.483      860.487
06/12/2013  22:12:00     -280.887     -183.255       -4.475      156.430      126.425       72.104    24470.369    15983.318     5198.923        7.907        2.283      335.380       77.665        0.054      342.248       17.522      860.483
06/12/2013  22:13:00     -245.768     -100.149       -8.556      142.830      101.094       64.018    20400.395    10220.079     4098.300        5.261        1.736      265.390       63.237        0.057      342.254       17.532      860.494
06/12/2013  22:14:00     -216.547      -85.390        4.721      189.004      134.618       78.855    35722.572    18122.134     6218.085        5.712        3.003      232.775       85.827        0.136      342.228       17.489      860.487
06/12/2013  22:15:00     -226.922      -93.823       -3.633      127.390      129.973       64.112    16228.237    16893.008     4110.365        4.876        1.862      245.553       62.651        0.065      342.239       17.508      860.517
06/12/2013  22:16:00     -218.888     -131.072      -13.914      136.566      107.152       82.097    18650.154    11481.555     6739.857        5.107        1.844      255.131       75.615        0.088      342.259       17.540      860.513
06/12/2013  22:17:00     -230.062     -145.079      -22.450      128.308      127.953       54.529    16462.843    16372.076     2973.383        5.514        1.790      271.986       38.958        0.021      342.238       17.505      860.532
06/12/2013  22:18:00     -219.969     -138.999        4.775      118.188      143.716       67.930    13968.509    20654.357     4614.490        5.348        1.962      260.206       59.418        0.052      342.212       17.462      860.531
06/12/2013  22:19:00     -187.366     -121.605        8.720      145.347      128.350       65.191    21125.692    16473.712     4249.907        4.590        2.092      223.370       69.604        0.097      342.231       17.493      860.555
06/12/2013  22:20:00     -274.134      -94.329       -8.285      149.986       94.943       59.366    22495.938     9014.208     3524.347        5.957        1.752      289.909       61.994        0.046      342.168       17.387      860.581
06/12/2013  22:21:00     -206.113     -149.467      -12.647      133.465      117.480       76.524    17812.947    13801.552     5855.944        5.122        1.874      254.604       80.558        0.100      342.158       17.369      860.583
06/12/2013  22:22:00     -128.206      -60.858       -4.594      101.385       90.659       49.928    10278.878     8219.075     2492.835        2.057        1.050      141.917       51.775        0.133      342.145       17.348      860.591
06/12/2013  22:23:00     -199.739      -50.885       -6.349      134.592       97.345       57.348    18114.995     9475.984     3288.746        3.670        1.544      206.119       59.065        0.082      342.155       17.364      860.593
06/12/2013  22:24:00     -357.349     -204.810       -8.808      189.378      129.699       79.018    35863.854    16821.885     6243.767       11.431        2.946      411.880       80.642        0.038      342.151       17.359      860.586
06/12/2013  22:25:00     -374.106      -26.334      -16.646      265.989      116.345       87.493    70750.279    13536.060     7654.961       11.641        4.597      375.031      130.723        0.121      342.124       17.310      860.624
06/12/2013  22:26:00     -357.129      -84.867       -5.749      213.620      117.283       82.271    45633.580    13755.346     6768.563       10.045        3.308      367.074       89.333        0.059      342.108       17.285      860.624
06/12/2013  22:27:00     -436.402     -116.257      -10.226      206.591      146.382       89.057    42679.704    21427.745     7931.223       13.804        3.602      451.622       99.163        0.048      342.124       17.311      860.635
06/12/2013  22:28:00     -353.073      -44.947      -13.600      146.361      120.340       66.906    21421.617    14481.676     4476.463        8.361        2.019      355.922       60.277        0.029      342.122       17.307      860.641
06/12/2013  22:29:00     -468.492      -90.434      -13.778      152.815      107.754       70.541    23352.449    11611.010     4975.963       13.389        1.997      477.140       65.366        0.019      342.107       17.282      860.672
06/12/2013  22:30:00     -317.719      -61.725      -14.260      145.676      105.060       64.024    21221.603    11037.519     4099.121        7.065        1.818      323.659       63.754        0.039      342.119       17.302      860.678
06/12/2013  22:31:00     -268.728      -63.224       -8.161      152.297      135.539       73.874    23194.249    18370.909     5457.369        6.164        2.351      276.065       86.312        0.098      342.084       17.243      860.680
06/12/2013  22:32:00     -232.188      -55.415       -3.007      152.187       93.474       49.556    23160.819     8737.476     2455.755        4.567        1.718      238.709       62.105        0.068      342.052       17.190      860.689
06/12/2013  22:33:00     -292.816      -26.127      -15.742      107.542       87.975       62.171    11565.288     7739.599     3865.232        5.492        1.159      293.979       63.410        0.047      342.049       17.183      860.707
06/12/2013  22:34:00     -149.029      -16.004       12.261      104.644       94.496       61.247    10950.446     8929.437     3751.144        2.312        1.182      149.886       61.529        0.169      342.044       17.177      860.722
06/12/2013  22:35:00     -232.402      -42.223       -5.993      147.260       72.526       52.140    21685.410     5259.952     2718.604        4.274        1.483      236.206       71.122        0.091      342.040       17.168      860.745
06/12/2013  22:36:00     -291.156      -80.117      -14.736      230.115       90.675       68.922    52952.901     8221.867     4750.310        7.865        3.296      301.977      100.717        0.111      342.021       17.137      860.758
06/12/2013  22:37:00     -222.220      -91.169       -9.543      107.827       96.540       47.379    11626.629     9320.008     2244.760        4.048        1.160      240.195       48.832        0.041      342.001       17.104      860.751
06/12/2013  22:38:00     -212.522      -69.078      -14.904       90.187       82.789       56.407     8133.623     6854.017     3181.778        3.416        0.908      223.467       53.005        0.056      342.033       17.155      860.760
06/12/2013  22:39:00     -269.076      -71.482      -11.926      131.877      125.196       74.728    17391.454    15674.037     5584.248        5.814        1.932      278.409       74.662        0.072      342.015       17.126      860.758
06/12/2013  22:40:00     -324.198      -84.386      -12.289      189.639      124.012       78.939    35962.774    15379.007     6231.434        8.496        2.879      335.001       89.050        0.071      342.000       17.101      860.758
06/12/2013  22:41:00     -165.018      -78.495        9.500      156.494      125.383       70.281    24490.273    15720.854     4939.487        3.931        2.258      182.736       78.371        0.184      342.018       17.131      860.769
06/12/2013  22:42:00     -138.527      -77.473        9.875      106.245       85.047       57.328    11287.969     7233.064     3286.520        2.354        1.090      158.719       61.902        0.152      342.024       17.142      860.803
06/12/2013  22:43:00     -216.983      -44.570        0.101      120.884       90.156       51.102    14612.944     8128.052     2611.419        3.721        1.268      221.513       56.702        0.066      342.000       17.100      860.795
06/12/2013  22:44:00     -439.128     -106.557      -14.455      121.079      114.559       60.650    14660.177    13123.746     3678.424       11.792        1.573      451.871       58.289        0.017      342.002       17.103      860.812
06/12/2013  22:45:00     -361.372      -33.379      -17.864      130.079       95.464       62.428    16920.620     9113.426     3897.218        8.097        1.497      362.910       66.447        0.034      341.955       17.024      860.816
06/12/2013  22:46:00     -136.422      -70.348       14.919      154.824       85.649       76.305    23970.581     7335.707     5822.517        3.045        1.856      153.492       96.383        0.394      341.986       17.076      860.808
06/12/2013  22:47:00     -248.391      -41.060       -3.252      100.330       69.187       47.154    10066.084     4786.785     2223.456        4.023        0.854      251.762       37.418        0.022      341.927       16.977      860.821
06/12/2013  22:48:00     -184.645      -62.456        1.578      121.784       89.799       51.358    14831.419     8063.944     2637.631        3.176        1.277      194.922       57.852        0.088      341.925       16.974      860.805
06/12/2013  22:49:00     -177.811      -51.861       -1.753      126.074       88.530       56.112    15894.762     7837.520     3148.598        3.059        1.344      185.220       67.134        0.131      341.894       16.921      860.796
06/12/2013  22:50:00     -241.201      -98.568      -18.547       98.401       95.659       53.242     9682.698     9150.622     2834.720        4.495        1.083      260.564       43.422        0.028      341.941       16.999      860.802
06/12/2013  22:51:00     -412.622     -156.144       -5.253      149.732      133.530       69.170    22419.569    17830.368     4784.436       11.984        2.252      441.178       72.073        0.027      341.910       16.947      860.803
06/12/2013  22:52:00     -329.084      -54.618       -8.716      176.836      107.777       72.154    31270.900    11615.778     5206.234        7.971        2.405      333.585       82.699        0.061      341.889       16.912      860.793
06/12/2013  22:53:00     -268.488      -85.817      -10.992      176.103       94.460       69.610    31012.208     8922.656     4845.578        6.217        2.239      281.869       88.688        0.099      341.881       16.897      860.801
06/12/2013  22:54:00     -204.114     -121.357       -9.118      162.093      108.190       66.469    26273.997    11705.159     4418.167        4.943        2.120      237.466       66.845        0.079      341.900       16.930      860.814
06/12/2013  22:55:00     -344.184     -108.214      -28.598      121.881      106.032       57.251    14855.079    11242.835     3277.688        8.018        1.469      360.795       57.131        0.025      341.884       16.903      860.818
06/12/2013  22:56:00     -159.173     -117.931       16.734      114.085      115.817       68.422    13015.471    13413.691     4681.595        3.531        1.556      198.100       69.624        0.124      341.861       16.865      860.813
06/12/2013  22:57:00     -238.490      -62.718       -8.567      139.637       84.966       51.883    19498.396     7219.138     2691.863        4.514        1.470      246.599       59.960        0.059      341.851       16.847      860.818
06/12/2013  22:58:00     -197.325      -98.465        9.133      139.203       98.328       67.067    19377.340     9668.408     4497.931        4.112        1.677      220.528       78.956        0.128      341.832       16.815      860.822
06/12/2013  22:59:00     -215.230      -57.067       -2.571      134.691       82.093       58.828    18141.685     6739.256     3460.776        3.896        1.417      222.667       57.835        0.067      341.864       16.868      860.804
06/12/2013  23:00:00     -189.272      -74.073       19.470      147.858      102.161       65.794    21862.002    10436.814     4328.913        3.915        1.831      203.250       61.330        0.091      341.823       16.801      860.781
06/12/2013  23:01:00     -232.994     -151.541        4.299      118.706      103.006       65.410    14091.027    10610.222     4278.415        5.312        1.449      277.941       63.501        0.052      341.827       16.805      860.789
06/12/2013  23:02:00     -317.313     -200.348      -17.449      144.850       97.767       69.599    20981.620     9558.337     4843.999        8.825        1.769      375.269       76.691        0.042      341.840       16.827      860.778
06/12/2013  23:03:00     -265.371     -179.924      -11.376      136.701      121.463       68.892    18687.213    14753.174     4746.110        7.055        1.909      320.616       74.379        0.054      341.856       16.855      860.760
06/12/2013  23:04:00     -287.487      -91.810       -6.810      174.763      100.095       71.200    30542.011    10019.017     5069.422        6.837        2.282      301.791       83.234        0.076      341.812       16.782      860.751
06/12/2013  23:05:00     -183.258     -119.777       -6.185      130.240      142.195       68.545    16962.547    20219.314     4698.430        4.492        2.094      218.929       71.212        0.106      341.795       16.752      860.743
06/12/2013  23:06:00     -285.965     -125.908       -9.925      142.655      105.683       56.530    20350.375    11168.898     3195.639        6.621        1.736      312.456       67.482        0.047      341.814       16.784      860.732
06/12/2013  23:07:00     -439.807     -141.143      -18.537      219.187      133.801       78.225    48043.013    17902.840     6119.225       14.287        3.603      461.900       79.982        0.030      341.840       16.829      860.711
06/12/2013  23:08:00     -473.850     -267.754      -41.514      211.075      143.494       81.026    44552.732    20590.661     6565.148       18.481        3.585      544.267       88.091        0.026      341.852       16.848      860.704
06/12/2013  23:09:00     -203.924     -104.977        4.796      151.577      119.062       74.184    22975.523    14175.712     5503.196        4.763        2.133      229.358       76.477        0.111      341.822       16.798      860.708
06/12/2013  23:10:00     -233.023     -144.154        2.217      130.837      108.747       71.835    17118.412    11826.002     5160.219        5.459        1.705      274.007       80.471        0.086      341.787       16.738      860.699
06/12/2013  23:11:00     -314.830     -108.821      -15.502      144.268      101.442       67.355    20813.365    10290.382     4536.686        7.341        1.782      333.107       69.210        0.043      341.786       16.735      860.694
06/12/2013  23:12:00     -295.750     -171.362       -5.480      166.403      137.441       72.637    27689.956    18890.141     5276.141        8.435        2.593      341.808       82.917        0.059      341.785       16.736      860.656
06/12/2013  23:13:00     -204.958     -121.760       -1.072      195.505      109.413       64.901    38222.334    11971.160     4212.171        5.561        2.720      238.398       83.661        0.123      341.774       16.718      860.660
06/12/2013  23:14:00     -240.161     -101.596       -8.721      179.822      107.925       84.549    32335.941    11647.873     7148.502        5.959        2.557      260.767      104.583        0.161      341.752       16.680      860.647
06/12/2013  23:15:00     -279.411      -65.501       -2.967      125.700      118.690       67.510    15800.371    14087.417     4557.653        5.840        1.722      286.986       69.180        0.058      341.726       16.634      860.628
06/12/2013  23:16:00     -247.417     -138.197       -1.617      162.184      136.252       81.135    26303.709    18564.547     6582.845        6.587        2.573      283.397       79.518        0.079      341.719       16.625      860.631
06/12/2013  23:17:00     -248.140     -178.629       -1.958      155.445      107.946       83.746    24163.090    11652.250     7013.370        6.815        2.141      305.747       82.925        0.074      341.710       16.608      860.609
06/12/2013  23:18:00     -364.069      -63.569       -6.610      155.489      142.110       67.041    24176.747    20195.207     4494.441        9.274        2.443      369.577       63.437        0.029      341.718       16.622      860.615
06/12/2013  23:19:00     -440.323     -319.410       -9.866      251.229      162.878       96.826    63116.070    26529.150     9375.291       19.749        4.951      543.973      109.193        0.040      341.801       16.762      860.593
06/12/2013  23:20:00     -325.894     -173.722        6.131      176.530      145.617       73.927    31162.906    21204.449     5465.150        9.712        2.892      369.305       92.778        0.063      341.782       16.729      860.608
06/12/2013  23:21:00     -277.344     -112.175       -4.352      172.859      107.859       63.414    29880.288    11633.656     4021.385        6.752        2.277      299.171       83.740        0.078      341.751       16.677      860.626
06/12/2013  23:22:00     -355.118     -186.460       -5.848      144.010      126.576       63.962    20739.023    16021.550     4091.164       10.087        2.043      401.094       53.595        0.018      341.717       16.620      860.629
06/12/2013  23:23:00     -317.442     -191.900      -13.858      155.413      115.699       73.615    24153.145    13386.170     5419.157        9.036        2.148      370.938       76.219        0.042      341.710       16.608      860.614
06/12/2013  23:24:00     -330.056     -154.741       -0.554      184.065      107.544       75.997    33880.034    11565.641     5775.550        9.204        2.561      364.529       85.834        0.055      341.699       16.588      860.610
06/12/2013  23:25:00     -214.646     -119.834       13.906      167.042      102.002       62.904    27903.043    10404.352     3956.973        5.144        2.113      245.832       69.504        0.080      341.693       16.581      860.612
06/12/2013  23:26:00     -285.503     -190.323      -10.609      123.202      106.496       66.143    15178.739    11341.346     4374.913        7.437        1.545      343.125       63.549        0.034      341.672       16.546      860.596
06/12/2013  23:27:00     -294.956     -184.477       -9.916      173.046      117.890       73.586    29944.836    13898.012     5414.969        8.518        2.463      347.895       80.530        0.054      341.633       16.480      860.616
06/12/2013  23:28:00     -310.100     -212.357       -6.288      178.152      136.299       87.429    31738.183    18577.322     7643.853        9.962        2.898      375.843       94.041        0.063      341.631       16.474      860.603
06/12/2013  23:29:00     -259.253     -153.224      -11.581      208.834      125.854       89.364    43611.461    15839.311     7985.931        7.912        3.372      301.147      113.849        0.143      341.640       16.490      860.603
06/12/2013  23:30:00     -216.102     -113.418        4.585      149.341      131.289       58.123    22302.738    17236.842     3378.290        5.124        2.146      244.057       59.128        0.059      341.637       16.484      860.600
06/12/2013  23:31:00     -168.373     -120.935        5.410      133.462      147.407       77.628    17812.133    21728.915     6026.183        4.428        2.278      207.304       82.197        0.157      341.628       16.470      860.601
06/12/2013  23:32:00     -256.837     -174.524       -6.986      138.597       95.105       59.080    19209.100     9045.018     3490.414        6.410        1.587      310.522       67.898        0.048      341.569       16.369      860.608
06/12/2013  23:33:00     -218.990     -124.498       -0.494      127.793      123.400       60.392    16331.033    15227.519     3647.149        4.932        1.760      251.905       56.621        0.051      341.559       16.353      860.621
06/12/2013  23:34:00     -227.928      -59.625       -9.507      168.919       92.048       66.005    28533.544     8472.793     4356.645        4.847        2.068      235.598       85.651        0.132      341.555       16.347      860.619
06/12/2013  23:35:00     -294.822     -157.709        2.313      181.132      111.740       61.115    32808.893    12485.808     3735.048        8.040        2.451      334.354       62.803        0.035      341.577       16.384      860.627
06/12/2013  23:36:00     -200.080     -149.475      -12.512      149.216      115.557       65.047    22265.357    13353.526     4231.158        5.118        1.993      249.749       73.339        0.086      341.578       16.385      860.627
06/12/2013  23:37:00     -214.531     -172.631        3.000      138.710      110.881       70.085    19240.602    12294.504     4911.906        5.613        1.822      275.363       71.923        0.068      341.546       16.330      860.640
06/12/2013  23:38:00     -183.661     -153.631        7.116      177.533       91.311       72.571    31518.120     8337.721     5266.478        5.124        2.256      239.444       93.688        0.153      341.523       16.290      860.660
06/12/2013  23:39:00     -149.101      -37.214       12.447      140.904       75.047       47.194    19853.880     5632.033     2227.244        2.574        1.386      153.675       56.879        0.137      341.521       16.291      860.655
06/12/2013  23:40:00     -297.710     -143.687      -11.583       81.050      105.587       46.910     6569.072    11148.702     2200.592        6.466        0.996      330.571       40.692        0.015      341.512       16.273      860.660
06/12/2013  23:41:00     -241.199     -178.715      -14.566      134.715      127.650       72.699    18148.036    16294.441     5285.132        6.502        1.986      300.193       80.122        0.071      341.517       16.281      860.660
06/12/2013  23:42:00     -274.211     -174.567      -17.686       91.759      100.795       47.351     8419.797    10159.697     2242.112        6.340        1.041      325.063       51.048        0.025      341.517       16.280      860.675
06/12/2013  23:43:00     -177.669      -73.203        5.740      113.106      103.119       55.623    12793.061    10633.547     3093.869        3.173        1.326      192.159       63.190        0.108      341.506       16.263      860.710
06/12/2013  23:44:00     -193.206     -175.716        7.024      145.195      114.067       61.311    21081.725    13011.280     3758.988        5.305        1.893      261.161       77.553        0.088      341.471       16.204      860.721
06/12/2013  23:45:00     -228.832     -124.811       -5.411       97.010       84.033       55.746     9410.889     7061.494     3107.622        4.377        0.979      260.657       50.357        0.037      341.499       16.248      860.725
06/12/2013  23:46:00     -184.955      -98.283        4.810      103.381      107.292       57.103    10687.639    11511.674     3260.742        3.467        1.273      209.447       52.862        0.064      341.502       16.256      860.724
06/12/2013  23:47:00     -249.118     -109.699       -7.954      147.996       97.894       55.930    21902.917     9583.306     3128.136        5.438        1.731      272.202       69.329        0.065      341.501       16.254      860.737
06/12/2013  23:48:00     -253.650      -84.890      -15.744      119.102       74.710       51.794    14185.346     5581.592     2682.575        4.712        1.122      267.479       49.943        0.035      341.485       16.227      860.731
06/12/2013  23:49:00     -289.139     -194.189      -13.074      142.744      137.808       72.569    20375.896    18991.087     5266.189        8.305        2.232      348.297       73.394        0.044      341.518       16.284      860.749
06/12/2013  23:50:00     -225.198     -128.392       -9.027      140.845      101.899       60.778    19837.258    10383.393     3693.958        5.059        1.696      259.227       67.986        0.069      341.488       16.232      860.751
06/12/2013  23:51:00     -142.483     -144.583       24.797      165.988      108.347       87.048    27551.890    11739.052     7577.384        4.433        2.343      202.992       88.366        0.190      341.469       16.199      860.762
06/12/2013  23:52:00     -154.445      -54.648       10.391      113.408       80.220       63.598    12861.437     6435.181     4044.729        2.514        1.167      163.828       72.648        0.197      341.465       16.194      860.786
06/12/2013  23:53:00     -126.669      -78.725        9.527      104.669       87.816       50.924    10955.673     7711.731     2593.226        2.179        1.063      149.139       49.340        0.109      341.445       16.159      860.788
06/12/2013  23:54:00     -162.301      -88.918       13.173      128.008      100.759       58.958    16385.959    10152.403     3476.004        3.221        1.501      185.062       69.756        0.142      341.456       16.180      860.787
06/12/2013  23:55:00     -200.072     -107.556        1.092      121.068       89.261       55.945    14657.387     7967.440     3129.813        3.867        1.288      227.150       61.844        0.074      341.455       16.178      860.788
06/12/2013  23:56:00     -201.746     -127.992       -3.260      108.109       81.109       51.483    11687.576     6578.736     2650.497        3.900        1.046      238.921       59.033        0.061      341.444       16.159      860.809
06/12/2013  23:57:00     -207.513     -135.675        3.433      105.404      101.212       54.199    11110.006    10243.949     2937.513        4.288        1.215      247.930       55.274        0.050      341.424       16.123      860.825
06/12/2013  23:58:00     -360.611     -233.599      -17.912      104.312      104.504       59.032    10881.049    10921.083     3484.798       10.510        1.264      429.661       41.847        0.009      341.535       16.311      860.831
06/12/2013  23:59:00     -275.782     -114.045       -4.581      152.669      130.494       58.200    23307.740    17028.786     3387.274        6.639        2.186      298.432       56.960        0.036      341.513       16.275      860.832
